<?xml version="1.0" encoding="UTF-8" standalone="no" ?>
<gpx xmlns="http://www.topografix.com/GPX/1/1" xmlns:xsi="http://www.w3.org/2001/XMLSchema-instance" xsi:schemaLocation="http://www.topografix.com/GPX/1/1 http://www.topografix.com/GPX/1/1/gpx.xsd" version="1.1" creator="VisuGPX - https://www.visugpx.com">
  <metadata>
    <name>rando circulaire au départ de Cappel</name>
    <desc><![CDATA[pas de difficulté majeure, parcours sur différents chemins balisés]]></desc>
  </metadata>
  <trk>
    <name><![CDATA[Cappel]]></name>
    <trkseg>
      <trkpt lat="49.07388" lon="6.85235">
        <ele>279.7</ele>
        <time>2014-11-19T07:29:02Z</time>
      </trkpt>
      <trkpt lat="49.07388" lon="6.85235">
        <ele>279.6</ele>
        <time>2014-11-19T07:29:03Z</time>
      </trkpt>
      <trkpt lat="49.07395" lon="6.85243">
        <ele>279.4</ele>
        <time>2014-11-19T07:29:08Z</time>
      </trkpt>
      <trkpt lat="49.07394" lon="6.85244">
        <ele>279.3</ele>
        <time>2014-11-19T07:29:13Z</time>
      </trkpt>
      <trkpt lat="49.07394" lon="6.85244">
        <ele>279.8</ele>
        <time>2014-11-19T07:29:18Z</time>
      </trkpt>
      <trkpt lat="49.07394" lon="6.85244">
        <ele>278.6</ele>
        <time>2014-11-19T07:29:23Z</time>
      </trkpt>
      <trkpt lat="49.07393" lon="6.85242">
        <ele>274.7</ele>
        <time>2014-11-19T07:29:28Z</time>
      </trkpt>
      <trkpt lat="49.07391" lon="6.8524">
        <ele>279.9</ele>
        <time>2014-11-19T07:29:33Z</time>
      </trkpt>
      <trkpt lat="49.0739" lon="6.85237">
        <ele>279.4</ele>
        <time>2014-11-19T07:29:38Z</time>
      </trkpt>
      <trkpt lat="49.0739" lon="6.85237">
        <ele>281</ele>
        <time>2014-11-19T07:29:43Z</time>
      </trkpt>
      <trkpt lat="49.07391" lon="6.85239">
        <ele>280.9</ele>
        <time>2014-11-19T07:29:48Z</time>
      </trkpt>
      <trkpt lat="49.07391" lon="6.85239">
        <ele>280.1</ele>
        <time>2014-11-19T07:29:53Z</time>
      </trkpt>
      <trkpt lat="49.07391" lon="6.85239">
        <ele>279.4</ele>
        <time>2014-11-19T07:29:58Z</time>
      </trkpt>
      <trkpt lat="49.07391" lon="6.85239">
        <ele>279.1</ele>
        <time>2014-11-19T07:30:03Z</time>
      </trkpt>
      <trkpt lat="49.07388" lon="6.85242">
        <ele>278.8</ele>
        <time>2014-11-19T07:30:08Z</time>
      </trkpt>
      <trkpt lat="49.0739" lon="6.85245">
        <ele>278.5</ele>
        <time>2014-11-19T07:30:13Z</time>
      </trkpt>
      <trkpt lat="49.0739" lon="6.85245">
        <ele>278.4</ele>
        <time>2014-11-19T07:30:18Z</time>
      </trkpt>
      <trkpt lat="49.0739" lon="6.85245">
        <ele>278.3</ele>
        <time>2014-11-19T07:30:23Z</time>
      </trkpt>
      <trkpt lat="49.0739" lon="6.85245">
        <ele>278.1</ele>
        <time>2014-11-19T07:30:28Z</time>
      </trkpt>
      <trkpt lat="49.07394" lon="6.85258">
        <ele>277</ele>
        <time>2014-11-19T07:30:37Z</time>
      </trkpt>
      <trkpt lat="49.07384" lon="6.85257">
        <ele>277.7</ele>
        <time>2014-11-19T07:30:42Z</time>
      </trkpt>
      <trkpt lat="49.07377" lon="6.85257">
        <ele>277.7</ele>
        <time>2014-11-19T07:30:47Z</time>
      </trkpt>
      <trkpt lat="49.07373" lon="6.85258">
        <ele>277.6</ele>
        <time>2014-11-19T07:30:52Z</time>
      </trkpt>
      <trkpt lat="49.07365" lon="6.85262">
        <ele>277.5</ele>
        <time>2014-11-19T07:30:57Z</time>
      </trkpt>
      <trkpt lat="49.07358" lon="6.85269">
        <ele>277.4</ele>
        <time>2014-11-19T07:31:02Z</time>
      </trkpt>
      <trkpt lat="49.07352" lon="6.85271">
        <ele>277.3</ele>
        <time>2014-11-19T07:31:07Z</time>
      </trkpt>
      <trkpt lat="49.07349" lon="6.85274">
        <ele>277.2</ele>
        <time>2014-11-19T07:31:12Z</time>
      </trkpt>
      <trkpt lat="49.07342" lon="6.85279">
        <ele>277.1</ele>
        <time>2014-11-19T07:31:17Z</time>
      </trkpt>
      <trkpt lat="49.07338" lon="6.85274">
        <ele>277</ele>
        <time>2014-11-19T07:31:22Z</time>
      </trkpt>
      <trkpt lat="49.07335" lon="6.85262">
        <ele>277</ele>
        <time>2014-11-19T07:31:27Z</time>
      </trkpt>
      <trkpt lat="49.07329" lon="6.85256">
        <ele>277</ele>
        <time>2014-11-19T07:31:32Z</time>
      </trkpt>
      <trkpt lat="49.07321" lon="6.85254">
        <ele>277.1</ele>
        <time>2014-11-19T07:31:37Z</time>
      </trkpt>
      <trkpt lat="49.07315" lon="6.85252">
        <ele>277.3</ele>
        <time>2014-11-19T07:31:42Z</time>
      </trkpt>
      <trkpt lat="49.07308" lon="6.85253">
        <ele>277.3</ele>
        <time>2014-11-19T07:31:47Z</time>
      </trkpt>
      <trkpt lat="49.07301" lon="6.85255">
        <ele>277.2</ele>
        <time>2014-11-19T07:31:52Z</time>
      </trkpt>
      <trkpt lat="49.07294" lon="6.85259">
        <ele>277.2</ele>
        <time>2014-11-19T07:31:57Z</time>
      </trkpt>
      <trkpt lat="49.07291" lon="6.85267">
        <ele>277.1</ele>
        <time>2014-11-19T07:32:02Z</time>
      </trkpt>
      <trkpt lat="49.07287" lon="6.85275">
        <ele>276.5</ele>
        <time>2014-11-19T07:32:07Z</time>
      </trkpt>
      <trkpt lat="49.07284" lon="6.85283">
        <ele>276.3</ele>
        <time>2014-11-19T07:32:12Z</time>
      </trkpt>
      <trkpt lat="49.07277" lon="6.8529">
        <ele>275.9</ele>
        <time>2014-11-19T07:32:17Z</time>
      </trkpt>
      <trkpt lat="49.07272" lon="6.85296">
        <ele>275.6</ele>
        <time>2014-11-19T07:32:22Z</time>
      </trkpt>
      <trkpt lat="49.07266" lon="6.85303">
        <ele>275</ele>
        <time>2014-11-19T07:32:27Z</time>
      </trkpt>
      <trkpt lat="49.07261" lon="6.85308">
        <ele>274.5</ele>
        <time>2014-11-19T07:32:32Z</time>
      </trkpt>
      <trkpt lat="49.07255" lon="6.85313">
        <ele>273.9</ele>
        <time>2014-11-19T07:32:37Z</time>
      </trkpt>
      <trkpt lat="49.0725" lon="6.85318">
        <ele>273.6</ele>
        <time>2014-11-19T07:32:42Z</time>
      </trkpt>
      <trkpt lat="49.07244" lon="6.85323">
        <ele>273</ele>
        <time>2014-11-19T07:32:47Z</time>
      </trkpt>
      <trkpt lat="49.07239" lon="6.8533">
        <ele>272.7</ele>
        <time>2014-11-19T07:32:52Z</time>
      </trkpt>
      <trkpt lat="49.07233" lon="6.85336">
        <ele>272.6</ele>
        <time>2014-11-19T07:32:57Z</time>
      </trkpt>
      <trkpt lat="49.07226" lon="6.85341">
        <ele>272.5</ele>
        <time>2014-11-19T07:33:02Z</time>
      </trkpt>
      <trkpt lat="49.0722" lon="6.85346">
        <ele>272.4</ele>
        <time>2014-11-19T07:33:07Z</time>
      </trkpt>
      <trkpt lat="49.07214" lon="6.8535">
        <ele>272.2</ele>
        <time>2014-11-19T07:33:12Z</time>
      </trkpt>
      <trkpt lat="49.07212" lon="6.85359">
        <ele>271.8</ele>
        <time>2014-11-19T07:33:17Z</time>
      </trkpt>
      <trkpt lat="49.07206" lon="6.85359">
        <ele>271.7</ele>
        <time>2014-11-19T07:33:22Z</time>
      </trkpt>
      <trkpt lat="49.07198" lon="6.85356">
        <ele>271.5</ele>
        <time>2014-11-19T07:33:27Z</time>
      </trkpt>
      <trkpt lat="49.07191" lon="6.85352">
        <ele>271.5</ele>
        <time>2014-11-19T07:33:32Z</time>
      </trkpt>
      <trkpt lat="49.07185" lon="6.85351">
        <ele>271.7</ele>
        <time>2014-11-19T07:33:37Z</time>
      </trkpt>
      <trkpt lat="49.0718" lon="6.85354">
        <ele>271.8</ele>
        <time>2014-11-19T07:33:42Z</time>
      </trkpt>
      <trkpt lat="49.07175" lon="6.85363">
        <ele>272.2</ele>
        <time>2014-11-19T07:33:47Z</time>
      </trkpt>
      <trkpt lat="49.07168" lon="6.85367">
        <ele>272.2</ele>
        <time>2014-11-19T07:33:52Z</time>
      </trkpt>
      <trkpt lat="49.07159" lon="6.85369">
        <ele>272.3</ele>
        <time>2014-11-19T07:33:57Z</time>
      </trkpt>
      <trkpt lat="49.07153" lon="6.85373">
        <ele>272.4</ele>
        <time>2014-11-19T07:34:02Z</time>
      </trkpt>
      <trkpt lat="49.07148" lon="6.85375">
        <ele>272.7</ele>
        <time>2014-11-19T07:34:07Z</time>
      </trkpt>
      <trkpt lat="49.07142" lon="6.85376">
        <ele>272.9</ele>
        <time>2014-11-19T07:34:12Z</time>
      </trkpt>
      <trkpt lat="49.07136" lon="6.85385">
        <ele>273.1</ele>
        <time>2014-11-19T07:34:17Z</time>
      </trkpt>
      <trkpt lat="49.07129" lon="6.85383">
        <ele>273.2</ele>
        <time>2014-11-19T07:34:22Z</time>
      </trkpt>
      <trkpt lat="49.07123" lon="6.85378">
        <ele>273.5</ele>
        <time>2014-11-19T07:34:27Z</time>
      </trkpt>
      <trkpt lat="49.07115" lon="6.85376">
        <ele>273.9</ele>
        <time>2014-11-19T07:34:32Z</time>
      </trkpt>
      <trkpt lat="49.07108" lon="6.85378">
        <ele>274.1</ele>
        <time>2014-11-19T07:34:37Z</time>
      </trkpt>
      <trkpt lat="49.07102" lon="6.8538">
        <ele>274.4</ele>
        <time>2014-11-19T07:34:42Z</time>
      </trkpt>
      <trkpt lat="49.07097" lon="6.8538">
        <ele>274.9</ele>
        <time>2014-11-19T07:34:47Z</time>
      </trkpt>
      <trkpt lat="49.07093" lon="6.85387">
        <ele>275.1</ele>
        <time>2014-11-19T07:34:52Z</time>
      </trkpt>
      <trkpt lat="49.07089" lon="6.85385">
        <ele>275.4</ele>
        <time>2014-11-19T07:34:57Z</time>
      </trkpt>
      <trkpt lat="49.0709" lon="6.85386">
        <ele>276.1</ele>
        <time>2014-11-19T07:35:02Z</time>
      </trkpt>
      <trkpt lat="49.07085" lon="6.85391">
        <ele>276.3</ele>
        <time>2014-11-19T07:35:07Z</time>
      </trkpt>
      <trkpt lat="49.0708" lon="6.85393">
        <ele>276.6</ele>
        <time>2014-11-19T07:35:12Z</time>
      </trkpt>
      <trkpt lat="49.07075" lon="6.85396">
        <ele>277</ele>
        <time>2014-11-19T07:35:17Z</time>
      </trkpt>
      <trkpt lat="49.07072" lon="6.85406">
        <ele>277.4</ele>
        <time>2014-11-19T07:35:22Z</time>
      </trkpt>
      <trkpt lat="49.07067" lon="6.85411">
        <ele>278</ele>
        <time>2014-11-19T07:35:27Z</time>
      </trkpt>
      <trkpt lat="49.07061" lon="6.85414">
        <ele>278.7</ele>
        <time>2014-11-19T07:35:32Z</time>
      </trkpt>
      <trkpt lat="49.07058" lon="6.8542">
        <ele>279.6</ele>
        <time>2014-11-19T07:35:37Z</time>
      </trkpt>
      <trkpt lat="49.07052" lon="6.85426">
        <ele>280.7</ele>
        <time>2014-11-19T07:35:42Z</time>
      </trkpt>
      <trkpt lat="49.07047" lon="6.85432">
        <ele>281.3</ele>
        <time>2014-11-19T07:35:47Z</time>
      </trkpt>
      <trkpt lat="49.07041" lon="6.85437">
        <ele>281.8</ele>
        <time>2014-11-19T07:35:52Z</time>
      </trkpt>
      <trkpt lat="49.07034" lon="6.85438">
        <ele>282.6</ele>
        <time>2014-11-19T07:35:57Z</time>
      </trkpt>
      <trkpt lat="49.07029" lon="6.85439">
        <ele>283</ele>
        <time>2014-11-19T07:36:02Z</time>
      </trkpt>
      <trkpt lat="49.07023" lon="6.8544">
        <ele>283.6</ele>
        <time>2014-11-19T07:36:07Z</time>
      </trkpt>
      <trkpt lat="49.07016" lon="6.85442">
        <ele>284.3</ele>
        <time>2014-11-19T07:36:12Z</time>
      </trkpt>
      <trkpt lat="49.07009" lon="6.85445">
        <ele>284.7</ele>
        <time>2014-11-19T07:36:17Z</time>
      </trkpt>
      <trkpt lat="49.07003" lon="6.85453">
        <ele>284.9</ele>
        <time>2014-11-19T07:36:22Z</time>
      </trkpt>
      <trkpt lat="49.06997" lon="6.85456">
        <ele>285.2</ele>
        <time>2014-11-19T07:36:27Z</time>
      </trkpt>
      <trkpt lat="49.0699" lon="6.85454">
        <ele>285.4</ele>
        <time>2014-11-19T07:36:32Z</time>
      </trkpt>
      <trkpt lat="49.06984" lon="6.85438">
        <ele>285.5</ele>
        <time>2014-11-19T07:36:37Z</time>
      </trkpt>
      <trkpt lat="49.06984" lon="6.85425">
        <ele>285.5</ele>
        <time>2014-11-19T07:36:42Z</time>
      </trkpt>
      <trkpt lat="49.06988" lon="6.85416">
        <ele>285.5</ele>
        <time>2014-11-19T07:36:47Z</time>
      </trkpt>
      <trkpt lat="49.06988" lon="6.85404">
        <ele>285.4</ele>
        <time>2014-11-19T07:36:52Z</time>
      </trkpt>
      <trkpt lat="49.06988" lon="6.85394">
        <ele>285.4</ele>
        <time>2014-11-19T07:36:57Z</time>
      </trkpt>
      <trkpt lat="49.06986" lon="6.85386">
        <ele>285.4</ele>
        <time>2014-11-19T07:37:02Z</time>
      </trkpt>
      <trkpt lat="49.06986" lon="6.85377">
        <ele>285.3</ele>
        <time>2014-11-19T07:37:07Z</time>
      </trkpt>
      <trkpt lat="49.06985" lon="6.85368">
        <ele>285.2</ele>
        <time>2014-11-19T07:37:12Z</time>
      </trkpt>
      <trkpt lat="49.06982" lon="6.8536">
        <ele>285.1</ele>
        <time>2014-11-19T07:37:17Z</time>
      </trkpt>
      <trkpt lat="49.06982" lon="6.85353">
        <ele>285</ele>
        <time>2014-11-19T07:37:22Z</time>
      </trkpt>
      <trkpt lat="49.06982" lon="6.85346">
        <ele>285</ele>
        <time>2014-11-19T07:37:27Z</time>
      </trkpt>
      <trkpt lat="49.0698" lon="6.85338">
        <ele>284.9</ele>
        <time>2014-11-19T07:37:32Z</time>
      </trkpt>
      <trkpt lat="49.06978" lon="6.85328">
        <ele>284.8</ele>
        <time>2014-11-19T07:37:37Z</time>
      </trkpt>
      <trkpt lat="49.06976" lon="6.85319">
        <ele>284.7</ele>
        <time>2014-11-19T07:37:42Z</time>
      </trkpt>
      <trkpt lat="49.06974" lon="6.85309">
        <ele>284.6</ele>
        <time>2014-11-19T07:37:47Z</time>
      </trkpt>
      <trkpt lat="49.06972" lon="6.85299">
        <ele>284.5</ele>
        <time>2014-11-19T07:37:52Z</time>
      </trkpt>
      <trkpt lat="49.0697" lon="6.85291">
        <ele>284.4</ele>
        <time>2014-11-19T07:37:57Z</time>
      </trkpt>
      <trkpt lat="49.06969" lon="6.85281">
        <ele>284.1</ele>
        <time>2014-11-19T07:38:02Z</time>
      </trkpt>
      <trkpt lat="49.06966" lon="6.85271">
        <ele>283.6</ele>
        <time>2014-11-19T07:38:07Z</time>
      </trkpt>
      <trkpt lat="49.06963" lon="6.85262">
        <ele>283.3</ele>
        <time>2014-11-19T07:38:12Z</time>
      </trkpt>
      <trkpt lat="49.0696" lon="6.85253">
        <ele>283.1</ele>
        <time>2014-11-19T07:38:17Z</time>
      </trkpt>
      <trkpt lat="49.06958" lon="6.85244">
        <ele>283</ele>
        <time>2014-11-19T07:38:22Z</time>
      </trkpt>
      <trkpt lat="49.06959" lon="6.85235">
        <ele>282.9</ele>
        <time>2014-11-19T07:38:27Z</time>
      </trkpt>
      <trkpt lat="49.06957" lon="6.85222">
        <ele>282.7</ele>
        <time>2014-11-19T07:38:32Z</time>
      </trkpt>
      <trkpt lat="49.06956" lon="6.85213">
        <ele>282.6</ele>
        <time>2014-11-19T07:38:37Z</time>
      </trkpt>
      <trkpt lat="49.06953" lon="6.85205">
        <ele>282.5</ele>
        <time>2014-11-19T07:38:42Z</time>
      </trkpt>
      <trkpt lat="49.06951" lon="6.85196">
        <ele>282.4</ele>
        <time>2014-11-19T07:38:47Z</time>
      </trkpt>
      <trkpt lat="49.06948" lon="6.85187">
        <ele>282.3</ele>
        <time>2014-11-19T07:38:52Z</time>
      </trkpt>
      <trkpt lat="49.06945" lon="6.85176">
        <ele>282.2</ele>
        <time>2014-11-19T07:38:57Z</time>
      </trkpt>
      <trkpt lat="49.06943" lon="6.85166">
        <ele>282.1</ele>
        <time>2014-11-19T07:39:02Z</time>
      </trkpt>
      <trkpt lat="49.0694" lon="6.85158">
        <ele>282</ele>
        <time>2014-11-19T07:39:07Z</time>
      </trkpt>
      <trkpt lat="49.06938" lon="6.85149">
        <ele>281.9</ele>
        <time>2014-11-19T07:39:12Z</time>
      </trkpt>
      <trkpt lat="49.06936" lon="6.85141">
        <ele>281.7</ele>
        <time>2014-11-19T07:39:17Z</time>
      </trkpt>
      <trkpt lat="49.06931" lon="6.85132">
        <ele>281.3</ele>
        <time>2014-11-19T07:39:22Z</time>
      </trkpt>
      <trkpt lat="49.06926" lon="6.85123">
        <ele>281.1</ele>
        <time>2014-11-19T07:39:27Z</time>
      </trkpt>
      <trkpt lat="49.06923" lon="6.85113">
        <ele>280.7</ele>
        <time>2014-11-19T07:39:32Z</time>
      </trkpt>
      <trkpt lat="49.06919" lon="6.85101">
        <ele>279.9</ele>
        <time>2014-11-19T07:39:37Z</time>
      </trkpt>
      <trkpt lat="49.06916" lon="6.85088">
        <ele>279.4</ele>
        <time>2014-11-19T07:39:42Z</time>
      </trkpt>
      <trkpt lat="49.06916" lon="6.85078">
        <ele>278.9</ele>
        <time>2014-11-19T07:39:47Z</time>
      </trkpt>
      <trkpt lat="49.06916" lon="6.85068">
        <ele>278.6</ele>
        <time>2014-11-19T07:39:52Z</time>
      </trkpt>
      <trkpt lat="49.06915" lon="6.85057">
        <ele>278.4</ele>
        <time>2014-11-19T07:39:57Z</time>
      </trkpt>
      <trkpt lat="49.06907" lon="6.85054">
        <ele>278.3</ele>
        <time>2014-11-19T07:40:02Z</time>
      </trkpt>
      <trkpt lat="49.06901" lon="6.85049">
        <ele>278.1</ele>
        <time>2014-11-19T07:40:07Z</time>
      </trkpt>
      <trkpt lat="49.06898" lon="6.85037">
        <ele>278</ele>
        <time>2014-11-19T07:40:12Z</time>
      </trkpt>
      <trkpt lat="49.06899" lon="6.85028">
        <ele>277.6</ele>
        <time>2014-11-19T07:40:17Z</time>
      </trkpt>
      <trkpt lat="49.06901" lon="6.85019">
        <ele>277.4</ele>
        <time>2014-11-19T07:40:22Z</time>
      </trkpt>
      <trkpt lat="49.06901" lon="6.85011">
        <ele>277.3</ele>
        <time>2014-11-19T07:40:27Z</time>
      </trkpt>
      <trkpt lat="49.06901" lon="6.85002">
        <ele>277.2</ele>
        <time>2014-11-19T07:40:32Z</time>
      </trkpt>
      <trkpt lat="49.06897" lon="6.84995">
        <ele>277.1</ele>
        <time>2014-11-19T07:40:37Z</time>
      </trkpt>
      <trkpt lat="49.06894" lon="6.84997">
        <ele>277</ele>
        <time>2014-11-19T07:40:42Z</time>
      </trkpt>
      <trkpt lat="49.06888" lon="6.84999">
        <ele>276.8</ele>
        <time>2014-11-19T07:40:47Z</time>
      </trkpt>
      <trkpt lat="49.06884" lon="6.85">
        <ele>276.4</ele>
        <time>2014-11-19T07:40:52Z</time>
      </trkpt>
      <trkpt lat="49.06883" lon="6.84995">
        <ele>276</ele>
        <time>2014-11-19T07:40:57Z</time>
      </trkpt>
      <trkpt lat="49.06884" lon="6.84995">
        <ele>275.8</ele>
        <time>2014-11-19T07:41:02Z</time>
      </trkpt>
      <trkpt lat="49.06877" lon="6.84998">
        <ele>275.7</ele>
        <time>2014-11-19T07:41:07Z</time>
      </trkpt>
      <trkpt lat="49.06868" lon="6.85">
        <ele>275.6</ele>
        <time>2014-11-19T07:41:12Z</time>
      </trkpt>
      <trkpt lat="49.06864" lon="6.85">
        <ele>275</ele>
        <time>2014-11-19T07:41:17Z</time>
      </trkpt>
      <trkpt lat="49.06863" lon="6.84987">
        <ele>274.1</ele>
        <time>2014-11-19T07:41:22Z</time>
      </trkpt>
      <trkpt lat="49.06862" lon="6.8498">
        <ele>273.8</ele>
        <time>2014-11-19T07:41:27Z</time>
      </trkpt>
      <trkpt lat="49.06863" lon="6.84979">
        <ele>273.7</ele>
        <time>2014-11-19T07:41:32Z</time>
      </trkpt>
      <trkpt lat="49.06863" lon="6.84973">
        <ele>273.6</ele>
        <time>2014-11-19T07:41:37Z</time>
      </trkpt>
      <trkpt lat="49.0686" lon="6.84972">
        <ele>273.5</ele>
        <time>2014-11-19T07:41:42Z</time>
      </trkpt>
      <trkpt lat="49.06853" lon="6.84974">
        <ele>273.2</ele>
        <time>2014-11-19T07:41:47Z</time>
      </trkpt>
      <trkpt lat="49.06847" lon="6.84975">
        <ele>272.7</ele>
        <time>2014-11-19T07:41:52Z</time>
      </trkpt>
      <trkpt lat="49.06841" lon="6.84977">
        <ele>272.4</ele>
        <time>2014-11-19T07:41:57Z</time>
      </trkpt>
      <trkpt lat="49.06835" lon="6.84979">
        <ele>271.6</ele>
        <time>2014-11-19T07:42:02Z</time>
      </trkpt>
      <trkpt lat="49.06829" lon="6.8498">
        <ele>271.1</ele>
        <time>2014-11-19T07:42:07Z</time>
      </trkpt>
      <trkpt lat="49.06823" lon="6.84983">
        <ele>270.5</ele>
        <time>2014-11-19T07:42:12Z</time>
      </trkpt>
      <trkpt lat="49.06816" lon="6.84986">
        <ele>269.8</ele>
        <time>2014-11-19T07:42:17Z</time>
      </trkpt>
      <trkpt lat="49.06809" lon="6.84988">
        <ele>269.2</ele>
        <time>2014-11-19T07:42:22Z</time>
      </trkpt>
      <trkpt lat="49.06802" lon="6.84989">
        <ele>268.2</ele>
        <time>2014-11-19T07:42:27Z</time>
      </trkpt>
      <trkpt lat="49.06796" lon="6.8499">
        <ele>267.3</ele>
        <time>2014-11-19T07:42:32Z</time>
      </trkpt>
      <trkpt lat="49.0679" lon="6.84993">
        <ele>267</ele>
        <time>2014-11-19T07:42:37Z</time>
      </trkpt>
      <trkpt lat="49.06785" lon="6.84997">
        <ele>266.4</ele>
        <time>2014-11-19T07:42:42Z</time>
      </trkpt>
      <trkpt lat="49.06779" lon="6.85">
        <ele>265.5</ele>
        <time>2014-11-19T07:42:47Z</time>
      </trkpt>
      <trkpt lat="49.06772" lon="6.85001">
        <ele>265.2</ele>
        <time>2014-11-19T07:42:52Z</time>
      </trkpt>
      <trkpt lat="49.06766" lon="6.85004">
        <ele>264.6</ele>
        <time>2014-11-19T07:42:57Z</time>
      </trkpt>
      <trkpt lat="49.06759" lon="6.85005">
        <ele>264.3</ele>
        <time>2014-11-19T07:43:02Z</time>
      </trkpt>
      <trkpt lat="49.06751" lon="6.85006">
        <ele>264</ele>
        <time>2014-11-19T07:43:07Z</time>
      </trkpt>
      <trkpt lat="49.06743" lon="6.85006">
        <ele>263.1</ele>
        <time>2014-11-19T07:43:12Z</time>
      </trkpt>
      <trkpt lat="49.06736" lon="6.85009">
        <ele>262.7</ele>
        <time>2014-11-19T07:43:17Z</time>
      </trkpt>
      <trkpt lat="49.06729" lon="6.85011">
        <ele>262.3</ele>
        <time>2014-11-19T07:43:22Z</time>
      </trkpt>
      <trkpt lat="49.06724" lon="6.85013">
        <ele>261.9</ele>
        <time>2014-11-19T07:43:27Z</time>
      </trkpt>
      <trkpt lat="49.06718" lon="6.85016">
        <ele>261.7</ele>
        <time>2014-11-19T07:43:32Z</time>
      </trkpt>
      <trkpt lat="49.06711" lon="6.85019">
        <ele>261.5</ele>
        <time>2014-11-19T07:43:37Z</time>
      </trkpt>
      <trkpt lat="49.06705" lon="6.85022">
        <ele>261.2</ele>
        <time>2014-11-19T07:43:42Z</time>
      </trkpt>
      <trkpt lat="49.06698" lon="6.85024">
        <ele>260.7</ele>
        <time>2014-11-19T07:43:47Z</time>
      </trkpt>
      <trkpt lat="49.06691" lon="6.85026">
        <ele>260.2</ele>
        <time>2014-11-19T07:43:52Z</time>
      </trkpt>
      <trkpt lat="49.06684" lon="6.85026">
        <ele>259.6</ele>
        <time>2014-11-19T07:43:57Z</time>
      </trkpt>
      <trkpt lat="49.06677" lon="6.85029">
        <ele>259.3</ele>
        <time>2014-11-19T07:44:02Z</time>
      </trkpt>
      <trkpt lat="49.06671" lon="6.8503">
        <ele>259.2</ele>
        <time>2014-11-19T07:44:07Z</time>
      </trkpt>
      <trkpt lat="49.06664" lon="6.85033">
        <ele>258.9</ele>
        <time>2014-11-19T07:44:12Z</time>
      </trkpt>
      <trkpt lat="49.06658" lon="6.85038">
        <ele>258.6</ele>
        <time>2014-11-19T07:44:17Z</time>
      </trkpt>
      <trkpt lat="49.06652" lon="6.85043">
        <ele>258.4</ele>
        <time>2014-11-19T07:44:22Z</time>
      </trkpt>
      <trkpt lat="49.06645" lon="6.85047">
        <ele>258</ele>
        <time>2014-11-19T07:44:27Z</time>
      </trkpt>
      <trkpt lat="49.06637" lon="6.85052">
        <ele>257.8</ele>
        <time>2014-11-19T07:44:32Z</time>
      </trkpt>
      <trkpt lat="49.06631" lon="6.85057">
        <ele>257.5</ele>
        <time>2014-11-19T07:44:37Z</time>
      </trkpt>
      <trkpt lat="49.06624" lon="6.85061">
        <ele>257.3</ele>
        <time>2014-11-19T07:44:42Z</time>
      </trkpt>
      <trkpt lat="49.06617" lon="6.85062">
        <ele>256.9</ele>
        <time>2014-11-19T07:44:47Z</time>
      </trkpt>
      <trkpt lat="49.06611" lon="6.85065">
        <ele>256.5</ele>
        <time>2014-11-19T07:44:52Z</time>
      </trkpt>
      <trkpt lat="49.06604" lon="6.85068">
        <ele>256.2</ele>
        <time>2014-11-19T07:44:57Z</time>
      </trkpt>
      <trkpt lat="49.06598" lon="6.85072">
        <ele>256</ele>
        <time>2014-11-19T07:45:02Z</time>
      </trkpt>
      <trkpt lat="49.06592" lon="6.85076">
        <ele>255.7</ele>
        <time>2014-11-19T07:45:07Z</time>
      </trkpt>
      <trkpt lat="49.06586" lon="6.85081">
        <ele>255.5</ele>
        <time>2014-11-19T07:45:12Z</time>
      </trkpt>
      <trkpt lat="49.06582" lon="6.85086">
        <ele>255.4</ele>
        <time>2014-11-19T07:45:17Z</time>
      </trkpt>
      <trkpt lat="49.06575" lon="6.85089">
        <ele>255</ele>
        <time>2014-11-19T07:45:22Z</time>
      </trkpt>
      <trkpt lat="49.06567" lon="6.85092">
        <ele>254.4</ele>
        <time>2014-11-19T07:45:27Z</time>
      </trkpt>
      <trkpt lat="49.06561" lon="6.85096">
        <ele>254.3</ele>
        <time>2014-11-19T07:45:32Z</time>
      </trkpt>
      <trkpt lat="49.06555" lon="6.85098">
        <ele>254.1</ele>
        <time>2014-11-19T07:45:37Z</time>
      </trkpt>
      <trkpt lat="49.06548" lon="6.85101">
        <ele>254</ele>
        <time>2014-11-19T07:45:42Z</time>
      </trkpt>
      <trkpt lat="49.06542" lon="6.85104">
        <ele>254</ele>
        <time>2014-11-19T07:45:47Z</time>
      </trkpt>
      <trkpt lat="49.06534" lon="6.85109">
        <ele>253.8</ele>
        <time>2014-11-19T07:45:52Z</time>
      </trkpt>
      <trkpt lat="49.06528" lon="6.85112">
        <ele>253.5</ele>
        <time>2014-11-19T07:45:57Z</time>
      </trkpt>
      <trkpt lat="49.06522" lon="6.85115">
        <ele>253.4</ele>
        <time>2014-11-19T07:46:02Z</time>
      </trkpt>
      <trkpt lat="49.06515" lon="6.85119">
        <ele>253.3</ele>
        <time>2014-11-19T07:46:07Z</time>
      </trkpt>
      <trkpt lat="49.0651" lon="6.85123">
        <ele>253.2</ele>
        <time>2014-11-19T07:46:12Z</time>
      </trkpt>
      <trkpt lat="49.06505" lon="6.85131">
        <ele>253.1</ele>
        <time>2014-11-19T07:46:17Z</time>
      </trkpt>
      <trkpt lat="49.065" lon="6.85138">
        <ele>253</ele>
        <time>2014-11-19T07:46:22Z</time>
      </trkpt>
      <trkpt lat="49.06496" lon="6.85144">
        <ele>252.9</ele>
        <time>2014-11-19T07:46:27Z</time>
      </trkpt>
      <trkpt lat="49.06491" lon="6.85146">
        <ele>252.8</ele>
        <time>2014-11-19T07:46:32Z</time>
      </trkpt>
      <trkpt lat="49.06486" lon="6.8515">
        <ele>252.7</ele>
        <time>2014-11-19T07:46:37Z</time>
      </trkpt>
      <trkpt lat="49.06481" lon="6.85155">
        <ele>252.6</ele>
        <time>2014-11-19T07:46:42Z</time>
      </trkpt>
      <trkpt lat="49.06476" lon="6.8516">
        <ele>252.5</ele>
        <time>2014-11-19T07:46:47Z</time>
      </trkpt>
      <trkpt lat="49.06473" lon="6.85168">
        <ele>252.6</ele>
        <time>2014-11-19T07:46:52Z</time>
      </trkpt>
      <trkpt lat="49.06469" lon="6.85174">
        <ele>252.7</ele>
        <time>2014-11-19T07:46:57Z</time>
      </trkpt>
      <trkpt lat="49.06466" lon="6.8518">
        <ele>253</ele>
        <time>2014-11-19T07:47:02Z</time>
      </trkpt>
      <trkpt lat="49.06462" lon="6.85185">
        <ele>253.2</ele>
        <time>2014-11-19T07:47:07Z</time>
      </trkpt>
      <trkpt lat="49.06458" lon="6.8519">
        <ele>253.4</ele>
        <time>2014-11-19T07:47:12Z</time>
      </trkpt>
      <trkpt lat="49.06455" lon="6.85197">
        <ele>253.9</ele>
        <time>2014-11-19T07:47:17Z</time>
      </trkpt>
      <trkpt lat="49.0645" lon="6.85202">
        <ele>254.1</ele>
        <time>2014-11-19T07:47:22Z</time>
      </trkpt>
      <trkpt lat="49.06444" lon="6.85209">
        <ele>254.7</ele>
        <time>2014-11-19T07:47:27Z</time>
      </trkpt>
      <trkpt lat="49.06438" lon="6.85214">
        <ele>254.8</ele>
        <time>2014-11-19T07:47:32Z</time>
      </trkpt>
      <trkpt lat="49.06433" lon="6.8522">
        <ele>254.9</ele>
        <time>2014-11-19T07:47:37Z</time>
      </trkpt>
      <trkpt lat="49.06428" lon="6.85227">
        <ele>255.4</ele>
        <time>2014-11-19T07:47:42Z</time>
      </trkpt>
      <trkpt lat="49.06422" lon="6.85232">
        <ele>255.6</ele>
        <time>2014-11-19T07:47:47Z</time>
      </trkpt>
      <trkpt lat="49.06416" lon="6.85237">
        <ele>255.6</ele>
        <time>2014-11-19T07:47:52Z</time>
      </trkpt>
      <trkpt lat="49.06412" lon="6.85243">
        <ele>255.5</ele>
        <time>2014-11-19T07:47:57Z</time>
      </trkpt>
      <trkpt lat="49.06406" lon="6.85247">
        <ele>255.5</ele>
        <time>2014-11-19T07:48:02Z</time>
      </trkpt>
      <trkpt lat="49.06401" lon="6.85253">
        <ele>255.4</ele>
        <time>2014-11-19T07:48:07Z</time>
      </trkpt>
      <trkpt lat="49.06396" lon="6.85259">
        <ele>255.3</ele>
        <time>2014-11-19T07:48:12Z</time>
      </trkpt>
      <trkpt lat="49.06391" lon="6.85265">
        <ele>255.2</ele>
        <time>2014-11-19T07:48:17Z</time>
      </trkpt>
      <trkpt lat="49.06386" lon="6.85272">
        <ele>255</ele>
        <time>2014-11-19T07:48:22Z</time>
      </trkpt>
      <trkpt lat="49.06381" lon="6.85278">
        <ele>254.9</ele>
        <time>2014-11-19T07:48:27Z</time>
      </trkpt>
      <trkpt lat="49.06375" lon="6.85284">
        <ele>254.4</ele>
        <time>2014-11-19T07:48:32Z</time>
      </trkpt>
      <trkpt lat="49.06371" lon="6.85289">
        <ele>254.1</ele>
        <time>2014-11-19T07:48:37Z</time>
      </trkpt>
      <trkpt lat="49.06365" lon="6.85294">
        <ele>254.3</ele>
        <time>2014-11-19T07:48:42Z</time>
      </trkpt>
      <trkpt lat="49.0636" lon="6.85298">
        <ele>254.3</ele>
        <time>2014-11-19T07:48:47Z</time>
      </trkpt>
      <trkpt lat="49.06355" lon="6.85303">
        <ele>254.3</ele>
        <time>2014-11-19T07:48:52Z</time>
      </trkpt>
      <trkpt lat="49.0635" lon="6.85309">
        <ele>254.2</ele>
        <time>2014-11-19T07:48:57Z</time>
      </trkpt>
      <trkpt lat="49.06344" lon="6.85315">
        <ele>254.1</ele>
        <time>2014-11-19T07:49:02Z</time>
      </trkpt>
      <trkpt lat="49.06338" lon="6.85321">
        <ele>254.1</ele>
        <time>2014-11-19T07:49:07Z</time>
      </trkpt>
      <trkpt lat="49.06333" lon="6.85327">
        <ele>254.3</ele>
        <time>2014-11-19T07:49:12Z</time>
      </trkpt>
      <trkpt lat="49.06327" lon="6.85332">
        <ele>254.9</ele>
        <time>2014-11-19T07:49:17Z</time>
      </trkpt>
      <trkpt lat="49.06322" lon="6.85338">
        <ele>255.1</ele>
        <time>2014-11-19T07:49:22Z</time>
      </trkpt>
      <trkpt lat="49.06316" lon="6.85344">
        <ele>255.4</ele>
        <time>2014-11-19T07:49:27Z</time>
      </trkpt>
      <trkpt lat="49.06311" lon="6.8535">
        <ele>255.8</ele>
        <time>2014-11-19T07:49:32Z</time>
      </trkpt>
      <trkpt lat="49.06306" lon="6.85355">
        <ele>256.4</ele>
        <time>2014-11-19T07:49:37Z</time>
      </trkpt>
      <trkpt lat="49.063" lon="6.85361">
        <ele>256.6</ele>
        <time>2014-11-19T07:49:42Z</time>
      </trkpt>
      <trkpt lat="49.06295" lon="6.85368">
        <ele>257.1</ele>
        <time>2014-11-19T07:49:47Z</time>
      </trkpt>
      <trkpt lat="49.06289" lon="6.85374">
        <ele>257.8</ele>
        <time>2014-11-19T07:49:52Z</time>
      </trkpt>
      <trkpt lat="49.06283" lon="6.85379">
        <ele>258.3</ele>
        <time>2014-11-19T07:49:57Z</time>
      </trkpt>
      <trkpt lat="49.06278" lon="6.85384">
        <ele>258.7</ele>
        <time>2014-11-19T07:50:02Z</time>
      </trkpt>
      <trkpt lat="49.06273" lon="6.85389">
        <ele>259.4</ele>
        <time>2014-11-19T07:50:07Z</time>
      </trkpt>
      <trkpt lat="49.06269" lon="6.85394">
        <ele>260.2</ele>
        <time>2014-11-19T07:50:12Z</time>
      </trkpt>
      <trkpt lat="49.06264" lon="6.854">
        <ele>260.7</ele>
        <time>2014-11-19T07:50:17Z</time>
      </trkpt>
      <trkpt lat="49.06259" lon="6.85406">
        <ele>261.1</ele>
        <time>2014-11-19T07:50:22Z</time>
      </trkpt>
      <trkpt lat="49.06254" lon="6.85413">
        <ele>261.2</ele>
        <time>2014-11-19T07:50:27Z</time>
      </trkpt>
      <trkpt lat="49.0625" lon="6.85419">
        <ele>261.2</ele>
        <time>2014-11-19T07:50:32Z</time>
      </trkpt>
      <trkpt lat="49.06244" lon="6.85424">
        <ele>261.3</ele>
        <time>2014-11-19T07:50:37Z</time>
      </trkpt>
      <trkpt lat="49.06239" lon="6.8543">
        <ele>261.3</ele>
        <time>2014-11-19T07:50:42Z</time>
      </trkpt>
      <trkpt lat="49.06233" lon="6.85435">
        <ele>261.2</ele>
        <time>2014-11-19T07:50:47Z</time>
      </trkpt>
      <trkpt lat="49.06227" lon="6.8544">
        <ele>261.1</ele>
        <time>2014-11-19T07:50:52Z</time>
      </trkpt>
      <trkpt lat="49.06222" lon="6.85445">
        <ele>260.7</ele>
        <time>2014-11-19T07:50:57Z</time>
      </trkpt>
      <trkpt lat="49.06217" lon="6.8545">
        <ele>260.3</ele>
        <time>2014-11-19T07:51:02Z</time>
      </trkpt>
      <trkpt lat="49.06213" lon="6.85455">
        <ele>260</ele>
        <time>2014-11-19T07:51:07Z</time>
      </trkpt>
      <trkpt lat="49.06208" lon="6.8546">
        <ele>259.5</ele>
        <time>2014-11-19T07:51:12Z</time>
      </trkpt>
      <trkpt lat="49.06205" lon="6.85468">
        <ele>259.3</ele>
        <time>2014-11-19T07:51:17Z</time>
      </trkpt>
      <trkpt lat="49.06199" lon="6.85474">
        <ele>259.2</ele>
        <time>2014-11-19T07:51:22Z</time>
      </trkpt>
      <trkpt lat="49.06194" lon="6.85479">
        <ele>259.1</ele>
        <time>2014-11-19T07:51:27Z</time>
      </trkpt>
      <trkpt lat="49.06189" lon="6.85485">
        <ele>259</ele>
        <time>2014-11-19T07:51:32Z</time>
      </trkpt>
      <trkpt lat="49.06183" lon="6.85489">
        <ele>258.9</ele>
        <time>2014-11-19T07:51:37Z</time>
      </trkpt>
      <trkpt lat="49.06177" lon="6.85493">
        <ele>258.7</ele>
        <time>2014-11-19T07:51:42Z</time>
      </trkpt>
      <trkpt lat="49.06171" lon="6.85499">
        <ele>258.5</ele>
        <time>2014-11-19T07:51:47Z</time>
      </trkpt>
      <trkpt lat="49.06165" lon="6.85505">
        <ele>258.4</ele>
        <time>2014-11-19T07:51:52Z</time>
      </trkpt>
      <trkpt lat="49.0616" lon="6.85511">
        <ele>258.3</ele>
        <time>2014-11-19T07:51:57Z</time>
      </trkpt>
      <trkpt lat="49.06155" lon="6.85517">
        <ele>258.2</ele>
        <time>2014-11-19T07:52:02Z</time>
      </trkpt>
      <trkpt lat="49.0615" lon="6.85524">
        <ele>258.1</ele>
        <time>2014-11-19T07:52:07Z</time>
      </trkpt>
      <trkpt lat="49.06145" lon="6.85531">
        <ele>258.1</ele>
        <time>2014-11-19T07:52:12Z</time>
      </trkpt>
      <trkpt lat="49.0614" lon="6.85537">
        <ele>258.5</ele>
        <time>2014-11-19T07:52:17Z</time>
      </trkpt>
      <trkpt lat="49.06135" lon="6.85544">
        <ele>258.6</ele>
        <time>2014-11-19T07:52:22Z</time>
      </trkpt>
      <trkpt lat="49.0613" lon="6.8555">
        <ele>258.8</ele>
        <time>2014-11-19T07:52:27Z</time>
      </trkpt>
      <trkpt lat="49.06124" lon="6.85556">
        <ele>258.8</ele>
        <time>2014-11-19T07:52:32Z</time>
      </trkpt>
      <trkpt lat="49.06117" lon="6.8556">
        <ele>258.9</ele>
        <time>2014-11-19T07:52:37Z</time>
      </trkpt>
      <trkpt lat="49.06114" lon="6.85567">
        <ele>259.4</ele>
        <time>2014-11-19T07:52:42Z</time>
      </trkpt>
      <trkpt lat="49.06115" lon="6.85577">
        <ele>259.8</ele>
        <time>2014-11-19T07:52:47Z</time>
      </trkpt>
      <trkpt lat="49.06117" lon="6.85587">
        <ele>260</ele>
        <time>2014-11-19T07:52:52Z</time>
      </trkpt>
      <trkpt lat="49.06118" lon="6.85595">
        <ele>260.3</ele>
        <time>2014-11-19T07:52:57Z</time>
      </trkpt>
      <trkpt lat="49.06121" lon="6.85604">
        <ele>260.4</ele>
        <time>2014-11-19T07:53:02Z</time>
      </trkpt>
      <trkpt lat="49.06123" lon="6.85614">
        <ele>260.3</ele>
        <time>2014-11-19T07:53:07Z</time>
      </trkpt>
      <trkpt lat="49.06126" lon="6.85623">
        <ele>260.3</ele>
        <time>2014-11-19T07:53:12Z</time>
      </trkpt>
      <trkpt lat="49.06126" lon="6.8563">
        <ele>260.2</ele>
        <time>2014-11-19T07:53:17Z</time>
      </trkpt>
      <trkpt lat="49.06125" lon="6.8564">
        <ele>260.1</ele>
        <time>2014-11-19T07:53:22Z</time>
      </trkpt>
      <trkpt lat="49.06127" lon="6.85648">
        <ele>260</ele>
        <time>2014-11-19T07:53:27Z</time>
      </trkpt>
      <trkpt lat="49.06129" lon="6.85659">
        <ele>259.9</ele>
        <time>2014-11-19T07:53:32Z</time>
      </trkpt>
      <trkpt lat="49.06129" lon="6.8567">
        <ele>259.7</ele>
        <time>2014-11-19T07:53:37Z</time>
      </trkpt>
      <trkpt lat="49.06127" lon="6.8568">
        <ele>259.6</ele>
        <time>2014-11-19T07:53:42Z</time>
      </trkpt>
      <trkpt lat="49.06127" lon="6.8569">
        <ele>259.5</ele>
        <time>2014-11-19T07:53:47Z</time>
      </trkpt>
      <trkpt lat="49.06127" lon="6.857">
        <ele>259.4</ele>
        <time>2014-11-19T07:53:52Z</time>
      </trkpt>
      <trkpt lat="49.06127" lon="6.85709">
        <ele>259.2</ele>
        <time>2014-11-19T07:53:57Z</time>
      </trkpt>
      <trkpt lat="49.06125" lon="6.8572">
        <ele>259.1</ele>
        <time>2014-11-19T07:54:02Z</time>
      </trkpt>
      <trkpt lat="49.06126" lon="6.85728">
        <ele>259</ele>
        <time>2014-11-19T07:54:07Z</time>
      </trkpt>
      <trkpt lat="49.06127" lon="6.85737">
        <ele>258.9</ele>
        <time>2014-11-19T07:54:12Z</time>
      </trkpt>
      <trkpt lat="49.06127" lon="6.85747">
        <ele>258.8</ele>
        <time>2014-11-19T07:54:17Z</time>
      </trkpt>
      <trkpt lat="49.06128" lon="6.85758">
        <ele>258.7</ele>
        <time>2014-11-19T07:54:22Z</time>
      </trkpt>
      <trkpt lat="49.06128" lon="6.85767">
        <ele>258.7</ele>
        <time>2014-11-19T07:54:27Z</time>
      </trkpt>
      <trkpt lat="49.06129" lon="6.85777">
        <ele>258.6</ele>
        <time>2014-11-19T07:54:32Z</time>
      </trkpt>
      <trkpt lat="49.0613" lon="6.85789">
        <ele>258.5</ele>
        <time>2014-11-19T07:54:37Z</time>
      </trkpt>
      <trkpt lat="49.06131" lon="6.85799">
        <ele>258.4</ele>
        <time>2014-11-19T07:54:42Z</time>
      </trkpt>
      <trkpt lat="49.06132" lon="6.85809">
        <ele>258.4</ele>
        <time>2014-11-19T07:54:47Z</time>
      </trkpt>
      <trkpt lat="49.06133" lon="6.85819">
        <ele>258.3</ele>
        <time>2014-11-19T07:54:52Z</time>
      </trkpt>
      <trkpt lat="49.06135" lon="6.8583">
        <ele>258.3</ele>
        <time>2014-11-19T07:54:57Z</time>
      </trkpt>
      <trkpt lat="49.06136" lon="6.85839">
        <ele>258.3</ele>
        <time>2014-11-19T07:55:02Z</time>
      </trkpt>
      <trkpt lat="49.06137" lon="6.85848">
        <ele>258.2</ele>
        <time>2014-11-19T07:55:07Z</time>
      </trkpt>
      <trkpt lat="49.06138" lon="6.85857">
        <ele>258.1</ele>
        <time>2014-11-19T07:55:12Z</time>
      </trkpt>
      <trkpt lat="49.06138" lon="6.85867">
        <ele>258</ele>
        <time>2014-11-19T07:55:17Z</time>
      </trkpt>
      <trkpt lat="49.0614" lon="6.85876">
        <ele>257.9</ele>
        <time>2014-11-19T07:55:22Z</time>
      </trkpt>
      <trkpt lat="49.06141" lon="6.85884">
        <ele>257.9</ele>
        <time>2014-11-19T07:55:27Z</time>
      </trkpt>
      <trkpt lat="49.06143" lon="6.85894">
        <ele>257.8</ele>
        <time>2014-11-19T07:55:32Z</time>
      </trkpt>
      <trkpt lat="49.06144" lon="6.85904">
        <ele>257.8</ele>
        <time>2014-11-19T07:55:37Z</time>
      </trkpt>
      <trkpt lat="49.06145" lon="6.85913">
        <ele>257.8</ele>
        <time>2014-11-19T07:55:42Z</time>
      </trkpt>
      <trkpt lat="49.06147" lon="6.85923">
        <ele>257.8</ele>
        <time>2014-11-19T07:55:47Z</time>
      </trkpt>
      <trkpt lat="49.0615" lon="6.85932">
        <ele>257.8</ele>
        <time>2014-11-19T07:55:52Z</time>
      </trkpt>
      <trkpt lat="49.06153" lon="6.85943">
        <ele>257.8</ele>
        <time>2014-11-19T07:55:57Z</time>
      </trkpt>
      <trkpt lat="49.06156" lon="6.85953">
        <ele>257.8</ele>
        <time>2014-11-19T07:56:02Z</time>
      </trkpt>
      <trkpt lat="49.06158" lon="6.85963">
        <ele>257.8</ele>
        <time>2014-11-19T07:56:07Z</time>
      </trkpt>
      <trkpt lat="49.06161" lon="6.85974">
        <ele>257.8</ele>
        <time>2014-11-19T07:56:12Z</time>
      </trkpt>
      <trkpt lat="49.06164" lon="6.85984">
        <ele>257.8</ele>
        <time>2014-11-19T07:56:17Z</time>
      </trkpt>
      <trkpt lat="49.06167" lon="6.85994">
        <ele>257.8</ele>
        <time>2014-11-19T07:56:22Z</time>
      </trkpt>
      <trkpt lat="49.06171" lon="6.86003">
        <ele>257.8</ele>
        <time>2014-11-19T07:56:27Z</time>
      </trkpt>
      <trkpt lat="49.06174" lon="6.86011">
        <ele>257.6</ele>
        <time>2014-11-19T07:56:32Z</time>
      </trkpt>
      <trkpt lat="49.06177" lon="6.86021">
        <ele>257.6</ele>
        <time>2014-11-19T07:56:37Z</time>
      </trkpt>
      <trkpt lat="49.0618" lon="6.86026">
        <ele>257.6</ele>
        <time>2014-11-19T07:56:42Z</time>
      </trkpt>
      <trkpt lat="49.06183" lon="6.86036">
        <ele>257.6</ele>
        <time>2014-11-19T07:56:47Z</time>
      </trkpt>
      <trkpt lat="49.06186" lon="6.86044">
        <ele>257.6</ele>
        <time>2014-11-19T07:56:52Z</time>
      </trkpt>
      <trkpt lat="49.06189" lon="6.86053">
        <ele>257.6</ele>
        <time>2014-11-19T07:56:57Z</time>
      </trkpt>
      <trkpt lat="49.06192" lon="6.86062">
        <ele>257.5</ele>
        <time>2014-11-19T07:57:02Z</time>
      </trkpt>
      <trkpt lat="49.06196" lon="6.86072">
        <ele>257.5</ele>
        <time>2014-11-19T07:57:07Z</time>
      </trkpt>
      <trkpt lat="49.06198" lon="6.86081">
        <ele>257.5</ele>
        <time>2014-11-19T07:57:12Z</time>
      </trkpt>
      <trkpt lat="49.06201" lon="6.8609">
        <ele>257.5</ele>
        <time>2014-11-19T07:57:17Z</time>
      </trkpt>
      <trkpt lat="49.06203" lon="6.86099">
        <ele>257.5</ele>
        <time>2014-11-19T07:57:22Z</time>
      </trkpt>
      <trkpt lat="49.06205" lon="6.8611">
        <ele>257.5</ele>
        <time>2014-11-19T07:57:27Z</time>
      </trkpt>
      <trkpt lat="49.06207" lon="6.86121">
        <ele>257.5</ele>
        <time>2014-11-19T07:57:32Z</time>
      </trkpt>
      <trkpt lat="49.06208" lon="6.8613">
        <ele>257.5</ele>
        <time>2014-11-19T07:57:37Z</time>
      </trkpt>
      <trkpt lat="49.0621" lon="6.86141">
        <ele>257.4</ele>
        <time>2014-11-19T07:57:42Z</time>
      </trkpt>
      <trkpt lat="49.06211" lon="6.86151">
        <ele>257.2</ele>
        <time>2014-11-19T07:57:47Z</time>
      </trkpt>
      <trkpt lat="49.06213" lon="6.86161">
        <ele>257.1</ele>
        <time>2014-11-19T07:57:52Z</time>
      </trkpt>
      <trkpt lat="49.06215" lon="6.86172">
        <ele>257</ele>
        <time>2014-11-19T07:57:57Z</time>
      </trkpt>
      <trkpt lat="49.06217" lon="6.86184">
        <ele>256.9</ele>
        <time>2014-11-19T07:58:02Z</time>
      </trkpt>
      <trkpt lat="49.06219" lon="6.86194">
        <ele>256.8</ele>
        <time>2014-11-19T07:58:07Z</time>
      </trkpt>
      <trkpt lat="49.06221" lon="6.86203">
        <ele>256.7</ele>
        <time>2014-11-19T07:58:12Z</time>
      </trkpt>
      <trkpt lat="49.06222" lon="6.86213">
        <ele>256.6</ele>
        <time>2014-11-19T07:58:17Z</time>
      </trkpt>
      <trkpt lat="49.06225" lon="6.86224">
        <ele>256.5</ele>
        <time>2014-11-19T07:58:22Z</time>
      </trkpt>
      <trkpt lat="49.06227" lon="6.86233">
        <ele>256.3</ele>
        <time>2014-11-19T07:58:27Z</time>
      </trkpt>
      <trkpt lat="49.06229" lon="6.86242">
        <ele>255.6</ele>
        <time>2014-11-19T07:58:32Z</time>
      </trkpt>
      <trkpt lat="49.06231" lon="6.86253">
        <ele>255.4</ele>
        <time>2014-11-19T07:58:37Z</time>
      </trkpt>
      <trkpt lat="49.06235" lon="6.86263">
        <ele>255.4</ele>
        <time>2014-11-19T07:58:42Z</time>
      </trkpt>
      <trkpt lat="49.06238" lon="6.86273">
        <ele>255.4</ele>
        <time>2014-11-19T07:58:47Z</time>
      </trkpt>
      <trkpt lat="49.0624" lon="6.86283">
        <ele>255.4</ele>
        <time>2014-11-19T07:58:52Z</time>
      </trkpt>
      <trkpt lat="49.06242" lon="6.86292">
        <ele>255.3</ele>
        <time>2014-11-19T07:58:57Z</time>
      </trkpt>
      <trkpt lat="49.06243" lon="6.863">
        <ele>255.3</ele>
        <time>2014-11-19T07:59:02Z</time>
      </trkpt>
      <trkpt lat="49.06246" lon="6.86308">
        <ele>255.3</ele>
        <time>2014-11-19T07:59:07Z</time>
      </trkpt>
      <trkpt lat="49.06249" lon="6.86316">
        <ele>255.3</ele>
        <time>2014-11-19T07:59:12Z</time>
      </trkpt>
      <trkpt lat="49.06252" lon="6.86326">
        <ele>255.3</ele>
        <time>2014-11-19T07:59:17Z</time>
      </trkpt>
      <trkpt lat="49.06255" lon="6.86335">
        <ele>255.3</ele>
        <time>2014-11-19T07:59:22Z</time>
      </trkpt>
      <trkpt lat="49.06258" lon="6.86344">
        <ele>255.3</ele>
        <time>2014-11-19T07:59:27Z</time>
      </trkpt>
      <trkpt lat="49.06261" lon="6.86353">
        <ele>255.3</ele>
        <time>2014-11-19T07:59:32Z</time>
      </trkpt>
      <trkpt lat="49.06262" lon="6.86362">
        <ele>255.1</ele>
        <time>2014-11-19T07:59:37Z</time>
      </trkpt>
      <trkpt lat="49.06264" lon="6.86373">
        <ele>255</ele>
        <time>2014-11-19T07:59:42Z</time>
      </trkpt>
      <trkpt lat="49.06263" lon="6.86384">
        <ele>255</ele>
        <time>2014-11-19T07:59:47Z</time>
      </trkpt>
      <trkpt lat="49.06265" lon="6.86395">
        <ele>255</ele>
        <time>2014-11-19T07:59:52Z</time>
      </trkpt>
      <trkpt lat="49.06268" lon="6.86405">
        <ele>254.7</ele>
        <time>2014-11-19T07:59:57Z</time>
      </trkpt>
      <trkpt lat="49.06271" lon="6.86415">
        <ele>254.6</ele>
        <time>2014-11-19T08:00:02Z</time>
      </trkpt>
      <trkpt lat="49.06274" lon="6.86424">
        <ele>254.6</ele>
        <time>2014-11-19T08:00:07Z</time>
      </trkpt>
      <trkpt lat="49.06277" lon="6.86434">
        <ele>254.4</ele>
        <time>2014-11-19T08:00:12Z</time>
      </trkpt>
      <trkpt lat="49.0628" lon="6.86444">
        <ele>254.4</ele>
        <time>2014-11-19T08:00:17Z</time>
      </trkpt>
      <trkpt lat="49.06284" lon="6.86454">
        <ele>254.4</ele>
        <time>2014-11-19T08:00:22Z</time>
      </trkpt>
      <trkpt lat="49.06286" lon="6.86464">
        <ele>254.4</ele>
        <time>2014-11-19T08:00:27Z</time>
      </trkpt>
      <trkpt lat="49.06288" lon="6.86473">
        <ele>254.4</ele>
        <time>2014-11-19T08:00:32Z</time>
      </trkpt>
      <trkpt lat="49.0629" lon="6.86483">
        <ele>254.4</ele>
        <time>2014-11-19T08:00:37Z</time>
      </trkpt>
      <trkpt lat="49.06293" lon="6.86493">
        <ele>254.3</ele>
        <time>2014-11-19T08:00:42Z</time>
      </trkpt>
      <trkpt lat="49.06295" lon="6.86502">
        <ele>254.1</ele>
        <time>2014-11-19T08:00:47Z</time>
      </trkpt>
      <trkpt lat="49.06299" lon="6.86513">
        <ele>253.6</ele>
        <time>2014-11-19T08:00:52Z</time>
      </trkpt>
      <trkpt lat="49.06302" lon="6.86525">
        <ele>253.5</ele>
        <time>2014-11-19T08:00:57Z</time>
      </trkpt>
      <trkpt lat="49.06305" lon="6.86535">
        <ele>253.5</ele>
        <time>2014-11-19T08:01:02Z</time>
      </trkpt>
      <trkpt lat="49.06308" lon="6.86546">
        <ele>253.5</ele>
        <time>2014-11-19T08:01:07Z</time>
      </trkpt>
      <trkpt lat="49.0631" lon="6.86556">
        <ele>253.5</ele>
        <time>2014-11-19T08:01:12Z</time>
      </trkpt>
      <trkpt lat="49.06312" lon="6.86566">
        <ele>253.5</ele>
        <time>2014-11-19T08:01:17Z</time>
      </trkpt>
      <trkpt lat="49.06315" lon="6.86577">
        <ele>253.4</ele>
        <time>2014-11-19T08:01:22Z</time>
      </trkpt>
      <trkpt lat="49.06318" lon="6.86587">
        <ele>253</ele>
        <time>2014-11-19T08:01:27Z</time>
      </trkpt>
      <trkpt lat="49.06322" lon="6.86598">
        <ele>252.7</ele>
        <time>2014-11-19T08:01:32Z</time>
      </trkpt>
      <trkpt lat="49.06326" lon="6.86608">
        <ele>252.7</ele>
        <time>2014-11-19T08:01:37Z</time>
      </trkpt>
      <trkpt lat="49.0633" lon="6.86618">
        <ele>252.7</ele>
        <time>2014-11-19T08:01:42Z</time>
      </trkpt>
      <trkpt lat="49.06336" lon="6.86627">
        <ele>252.3</ele>
        <time>2014-11-19T08:01:47Z</time>
      </trkpt>
      <trkpt lat="49.06342" lon="6.86635">
        <ele>251.8</ele>
        <time>2014-11-19T08:01:52Z</time>
      </trkpt>
      <trkpt lat="49.06344" lon="6.86642">
        <ele>251.5</ele>
        <time>2014-11-19T08:01:57Z</time>
      </trkpt>
      <trkpt lat="49.06348" lon="6.8665">
        <ele>250.6</ele>
        <time>2014-11-19T08:02:02Z</time>
      </trkpt>
      <trkpt lat="49.06351" lon="6.86658">
        <ele>250.2</ele>
        <time>2014-11-19T08:02:07Z</time>
      </trkpt>
      <trkpt lat="49.06353" lon="6.86668">
        <ele>250.1</ele>
        <time>2014-11-19T08:02:12Z</time>
      </trkpt>
      <trkpt lat="49.06355" lon="6.86677">
        <ele>250</ele>
        <time>2014-11-19T08:02:17Z</time>
      </trkpt>
      <trkpt lat="49.06354" lon="6.86687">
        <ele>249.6</ele>
        <time>2014-11-19T08:02:22Z</time>
      </trkpt>
      <trkpt lat="49.06356" lon="6.86697">
        <ele>249</ele>
        <time>2014-11-19T08:02:27Z</time>
      </trkpt>
      <trkpt lat="49.06358" lon="6.86708">
        <ele>248.7</ele>
        <time>2014-11-19T08:02:32Z</time>
      </trkpt>
      <trkpt lat="49.06359" lon="6.86719">
        <ele>248.6</ele>
        <time>2014-11-19T08:02:37Z</time>
      </trkpt>
      <trkpt lat="49.06361" lon="6.86729">
        <ele>248.6</ele>
        <time>2014-11-19T08:02:42Z</time>
      </trkpt>
      <trkpt lat="49.06361" lon="6.8674">
        <ele>248.4</ele>
        <time>2014-11-19T08:02:47Z</time>
      </trkpt>
      <trkpt lat="49.06362" lon="6.86751">
        <ele>248.3</ele>
        <time>2014-11-19T08:02:52Z</time>
      </trkpt>
      <trkpt lat="49.06363" lon="6.86761">
        <ele>248.3</ele>
        <time>2014-11-19T08:02:57Z</time>
      </trkpt>
      <trkpt lat="49.06364" lon="6.8677">
        <ele>248.2</ele>
        <time>2014-11-19T08:03:02Z</time>
      </trkpt>
      <trkpt lat="49.06365" lon="6.8678">
        <ele>248</ele>
        <time>2014-11-19T08:03:07Z</time>
      </trkpt>
      <trkpt lat="49.06367" lon="6.86791">
        <ele>247.9</ele>
        <time>2014-11-19T08:03:12Z</time>
      </trkpt>
      <trkpt lat="49.06367" lon="6.868">
        <ele>247.7</ele>
        <time>2014-11-19T08:03:17Z</time>
      </trkpt>
      <trkpt lat="49.06369" lon="6.86811">
        <ele>247.7</ele>
        <time>2014-11-19T08:03:22Z</time>
      </trkpt>
      <trkpt lat="49.06369" lon="6.86821">
        <ele>247.7</ele>
        <time>2014-11-19T08:03:27Z</time>
      </trkpt>
      <trkpt lat="49.06369" lon="6.86832">
        <ele>247.7</ele>
        <time>2014-11-19T08:03:32Z</time>
      </trkpt>
      <trkpt lat="49.0637" lon="6.86843">
        <ele>247.7</ele>
        <time>2014-11-19T08:03:37Z</time>
      </trkpt>
      <trkpt lat="49.06369" lon="6.86854">
        <ele>247.7</ele>
        <time>2014-11-19T08:03:42Z</time>
      </trkpt>
      <trkpt lat="49.0637" lon="6.86866">
        <ele>247.7</ele>
        <time>2014-11-19T08:03:47Z</time>
      </trkpt>
      <trkpt lat="49.06371" lon="6.86878">
        <ele>247.7</ele>
        <time>2014-11-19T08:03:52Z</time>
      </trkpt>
      <trkpt lat="49.06372" lon="6.86888">
        <ele>247.7</ele>
        <time>2014-11-19T08:03:57Z</time>
      </trkpt>
      <trkpt lat="49.06372" lon="6.86898">
        <ele>247.7</ele>
        <time>2014-11-19T08:04:02Z</time>
      </trkpt>
      <trkpt lat="49.06374" lon="6.86908">
        <ele>247.7</ele>
        <time>2014-11-19T08:04:07Z</time>
      </trkpt>
      <trkpt lat="49.06375" lon="6.86917">
        <ele>247.7</ele>
        <time>2014-11-19T08:04:12Z</time>
      </trkpt>
      <trkpt lat="49.06375" lon="6.86927">
        <ele>247.7</ele>
        <time>2014-11-19T08:04:17Z</time>
      </trkpt>
      <trkpt lat="49.06377" lon="6.86938">
        <ele>247.7</ele>
        <time>2014-11-19T08:04:22Z</time>
      </trkpt>
      <trkpt lat="49.06379" lon="6.86949">
        <ele>247.7</ele>
        <time>2014-11-19T08:04:27Z</time>
      </trkpt>
      <trkpt lat="49.06382" lon="6.8696">
        <ele>247.7</ele>
        <time>2014-11-19T08:04:32Z</time>
      </trkpt>
      <trkpt lat="49.06383" lon="6.86969">
        <ele>247.7</ele>
        <time>2014-11-19T08:04:37Z</time>
      </trkpt>
      <trkpt lat="49.06384" lon="6.86981">
        <ele>247.7</ele>
        <time>2014-11-19T08:04:42Z</time>
      </trkpt>
      <trkpt lat="49.06386" lon="6.86992">
        <ele>247.6</ele>
        <time>2014-11-19T08:04:47Z</time>
      </trkpt>
      <trkpt lat="49.06388" lon="6.87002">
        <ele>247.4</ele>
        <time>2014-11-19T08:04:52Z</time>
      </trkpt>
      <trkpt lat="49.06389" lon="6.87011">
        <ele>247.3</ele>
        <time>2014-11-19T08:04:57Z</time>
      </trkpt>
      <trkpt lat="49.0639" lon="6.87022">
        <ele>247.2</ele>
        <time>2014-11-19T08:05:02Z</time>
      </trkpt>
      <trkpt lat="49.06391" lon="6.87032">
        <ele>247.2</ele>
        <time>2014-11-19T08:05:07Z</time>
      </trkpt>
      <trkpt lat="49.06392" lon="6.87042">
        <ele>247.1</ele>
        <time>2014-11-19T08:05:12Z</time>
      </trkpt>
      <trkpt lat="49.06395" lon="6.87053">
        <ele>247</ele>
        <time>2014-11-19T08:05:17Z</time>
      </trkpt>
      <trkpt lat="49.06396" lon="6.87063">
        <ele>246.9</ele>
        <time>2014-11-19T08:05:22Z</time>
      </trkpt>
      <trkpt lat="49.06397" lon="6.87074">
        <ele>246.8</ele>
        <time>2014-11-19T08:05:27Z</time>
      </trkpt>
      <trkpt lat="49.064" lon="6.87085">
        <ele>246.8</ele>
        <time>2014-11-19T08:05:32Z</time>
      </trkpt>
      <trkpt lat="49.06403" lon="6.87095">
        <ele>246.7</ele>
        <time>2014-11-19T08:05:37Z</time>
      </trkpt>
      <trkpt lat="49.06405" lon="6.87105">
        <ele>246.5</ele>
        <time>2014-11-19T08:05:42Z</time>
      </trkpt>
      <trkpt lat="49.06406" lon="6.87115">
        <ele>246.5</ele>
        <time>2014-11-19T08:05:47Z</time>
      </trkpt>
      <trkpt lat="49.06406" lon="6.87126">
        <ele>246.5</ele>
        <time>2014-11-19T08:05:52Z</time>
      </trkpt>
      <trkpt lat="49.06406" lon="6.87136">
        <ele>246.7</ele>
        <time>2014-11-19T08:05:57Z</time>
      </trkpt>
      <trkpt lat="49.06408" lon="6.87144">
        <ele>247</ele>
        <time>2014-11-19T08:06:02Z</time>
      </trkpt>
      <trkpt lat="49.0641" lon="6.87155">
        <ele>247.3</ele>
        <time>2014-11-19T08:06:07Z</time>
      </trkpt>
      <trkpt lat="49.06412" lon="6.87164">
        <ele>247.4</ele>
        <time>2014-11-19T08:06:12Z</time>
      </trkpt>
      <trkpt lat="49.06413" lon="6.87175">
        <ele>247.7</ele>
        <time>2014-11-19T08:06:17Z</time>
      </trkpt>
      <trkpt lat="49.06414" lon="6.87188">
        <ele>247.8</ele>
        <time>2014-11-19T08:06:22Z</time>
      </trkpt>
      <trkpt lat="49.06415" lon="6.87199">
        <ele>247.8</ele>
        <time>2014-11-19T08:06:27Z</time>
      </trkpt>
      <trkpt lat="49.06416" lon="6.8721">
        <ele>247.8</ele>
        <time>2014-11-19T08:06:32Z</time>
      </trkpt>
      <trkpt lat="49.06417" lon="6.87221">
        <ele>247.8</ele>
        <time>2014-11-19T08:06:37Z</time>
      </trkpt>
      <trkpt lat="49.06417" lon="6.87232">
        <ele>247.9</ele>
        <time>2014-11-19T08:06:42Z</time>
      </trkpt>
      <trkpt lat="49.06419" lon="6.87241">
        <ele>248</ele>
        <time>2014-11-19T08:06:47Z</time>
      </trkpt>
      <trkpt lat="49.0642" lon="6.87252">
        <ele>248</ele>
        <time>2014-11-19T08:06:52Z</time>
      </trkpt>
      <trkpt lat="49.06422" lon="6.87263">
        <ele>248.1</ele>
        <time>2014-11-19T08:06:57Z</time>
      </trkpt>
      <trkpt lat="49.06424" lon="6.87274">
        <ele>248.1</ele>
        <time>2014-11-19T08:07:02Z</time>
      </trkpt>
      <trkpt lat="49.06426" lon="6.87283">
        <ele>248.1</ele>
        <time>2014-11-19T08:07:07Z</time>
      </trkpt>
      <trkpt lat="49.06428" lon="6.87292">
        <ele>248.1</ele>
        <time>2014-11-19T08:07:12Z</time>
      </trkpt>
      <trkpt lat="49.06429" lon="6.87301">
        <ele>248.1</ele>
        <time>2014-11-19T08:07:17Z</time>
      </trkpt>
      <trkpt lat="49.06431" lon="6.8731">
        <ele>248.1</ele>
        <time>2014-11-19T08:07:22Z</time>
      </trkpt>
      <trkpt lat="49.06432" lon="6.8732">
        <ele>248.1</ele>
        <time>2014-11-19T08:07:27Z</time>
      </trkpt>
      <trkpt lat="49.06435" lon="6.87332">
        <ele>248.1</ele>
        <time>2014-11-19T08:07:32Z</time>
      </trkpt>
      <trkpt lat="49.06437" lon="6.87342">
        <ele>247.5</ele>
        <time>2014-11-19T08:07:37Z</time>
      </trkpt>
      <trkpt lat="49.06438" lon="6.8735">
        <ele>247</ele>
        <time>2014-11-19T08:07:42Z</time>
      </trkpt>
      <trkpt lat="49.06441" lon="6.87359">
        <ele>246.5</ele>
        <time>2014-11-19T08:07:47Z</time>
      </trkpt>
      <trkpt lat="49.06443" lon="6.87369">
        <ele>245.9</ele>
        <time>2014-11-19T08:07:52Z</time>
      </trkpt>
      <trkpt lat="49.06445" lon="6.87379">
        <ele>245.7</ele>
        <time>2014-11-19T08:07:57Z</time>
      </trkpt>
      <trkpt lat="49.06447" lon="6.87388">
        <ele>245.5</ele>
        <time>2014-11-19T08:08:02Z</time>
      </trkpt>
      <trkpt lat="49.06451" lon="6.87397">
        <ele>245.1</ele>
        <time>2014-11-19T08:08:07Z</time>
      </trkpt>
      <trkpt lat="49.06452" lon="6.87408">
        <ele>244.7</ele>
        <time>2014-11-19T08:08:12Z</time>
      </trkpt>
      <trkpt lat="49.06454" lon="6.87419">
        <ele>244</ele>
        <time>2014-11-19T08:08:17Z</time>
      </trkpt>
      <trkpt lat="49.06456" lon="6.87429">
        <ele>243.9</ele>
        <time>2014-11-19T08:08:22Z</time>
      </trkpt>
      <trkpt lat="49.06458" lon="6.87439">
        <ele>243.6</ele>
        <time>2014-11-19T08:08:27Z</time>
      </trkpt>
      <trkpt lat="49.0646" lon="6.87448">
        <ele>243.4</ele>
        <time>2014-11-19T08:08:32Z</time>
      </trkpt>
      <trkpt lat="49.06463" lon="6.87459">
        <ele>243</ele>
        <time>2014-11-19T08:08:37Z</time>
      </trkpt>
      <trkpt lat="49.06466" lon="6.87468">
        <ele>242.8</ele>
        <time>2014-11-19T08:08:42Z</time>
      </trkpt>
      <trkpt lat="49.06468" lon="6.87476">
        <ele>242.4</ele>
        <time>2014-11-19T08:08:47Z</time>
      </trkpt>
      <trkpt lat="49.0647" lon="6.87485">
        <ele>241.9</ele>
        <time>2014-11-19T08:08:52Z</time>
      </trkpt>
      <trkpt lat="49.06472" lon="6.87493">
        <ele>241.6</ele>
        <time>2014-11-19T08:08:57Z</time>
      </trkpt>
      <trkpt lat="49.06475" lon="6.87503">
        <ele>241.5</ele>
        <time>2014-11-19T08:09:02Z</time>
      </trkpt>
      <trkpt lat="49.06479" lon="6.87512">
        <ele>241.4</ele>
        <time>2014-11-19T08:09:07Z</time>
      </trkpt>
      <trkpt lat="49.06483" lon="6.87521">
        <ele>241.2</ele>
        <time>2014-11-19T08:09:12Z</time>
      </trkpt>
      <trkpt lat="49.06486" lon="6.87529">
        <ele>240.9</ele>
        <time>2014-11-19T08:09:17Z</time>
      </trkpt>
      <trkpt lat="49.06491" lon="6.87538">
        <ele>240.8</ele>
        <time>2014-11-19T08:09:22Z</time>
      </trkpt>
      <trkpt lat="49.06496" lon="6.87546">
        <ele>240.8</ele>
        <time>2014-11-19T08:09:27Z</time>
      </trkpt>
      <trkpt lat="49.06499" lon="6.87556">
        <ele>240.8</ele>
        <time>2014-11-19T08:09:32Z</time>
      </trkpt>
      <trkpt lat="49.065" lon="6.87566">
        <ele>240.7</ele>
        <time>2014-11-19T08:09:37Z</time>
      </trkpt>
      <trkpt lat="49.06496" lon="6.87576">
        <ele>240.5</ele>
        <time>2014-11-19T08:09:42Z</time>
      </trkpt>
      <trkpt lat="49.0649" lon="6.87585">
        <ele>240.3</ele>
        <time>2014-11-19T08:09:47Z</time>
      </trkpt>
      <trkpt lat="49.06486" lon="6.87595">
        <ele>240</ele>
        <time>2014-11-19T08:09:52Z</time>
      </trkpt>
      <trkpt lat="49.0648" lon="6.87604">
        <ele>239.7</ele>
        <time>2014-11-19T08:09:57Z</time>
      </trkpt>
      <trkpt lat="49.06476" lon="6.87611">
        <ele>239.5</ele>
        <time>2014-11-19T08:10:02Z</time>
      </trkpt>
      <trkpt lat="49.06471" lon="6.8762">
        <ele>239.4</ele>
        <time>2014-11-19T08:10:07Z</time>
      </trkpt>
      <trkpt lat="49.06467" lon="6.87629">
        <ele>239.2</ele>
        <time>2014-11-19T08:10:12Z</time>
      </trkpt>
      <trkpt lat="49.06463" lon="6.87636">
        <ele>238.8</ele>
        <time>2014-11-19T08:10:17Z</time>
      </trkpt>
      <trkpt lat="49.06459" lon="6.87645">
        <ele>238.5</ele>
        <time>2014-11-19T08:10:22Z</time>
      </trkpt>
      <trkpt lat="49.06454" lon="6.87652">
        <ele>238.2</ele>
        <time>2014-11-19T08:10:27Z</time>
      </trkpt>
      <trkpt lat="49.0645" lon="6.87659">
        <ele>237.8</ele>
        <time>2014-11-19T08:10:32Z</time>
      </trkpt>
      <trkpt lat="49.06445" lon="6.87666">
        <ele>237.3</ele>
        <time>2014-11-19T08:10:37Z</time>
      </trkpt>
      <trkpt lat="49.0644" lon="6.87673">
        <ele>236.8</ele>
        <time>2014-11-19T08:10:42Z</time>
      </trkpt>
      <trkpt lat="49.06436" lon="6.87683">
        <ele>236.4</ele>
        <time>2014-11-19T08:10:47Z</time>
      </trkpt>
      <trkpt lat="49.06432" lon="6.87691">
        <ele>236.1</ele>
        <time>2014-11-19T08:10:52Z</time>
      </trkpt>
      <trkpt lat="49.06428" lon="6.87699">
        <ele>235.6</ele>
        <time>2014-11-19T08:10:57Z</time>
      </trkpt>
      <trkpt lat="49.06424" lon="6.87707">
        <ele>235.2</ele>
        <time>2014-11-19T08:11:02Z</time>
      </trkpt>
      <trkpt lat="49.0642" lon="6.87716">
        <ele>235.1</ele>
        <time>2014-11-19T08:11:07Z</time>
      </trkpt>
      <trkpt lat="49.06415" lon="6.87723">
        <ele>234.6</ele>
        <time>2014-11-19T08:11:12Z</time>
      </trkpt>
      <trkpt lat="49.06409" lon="6.87733">
        <ele>234.2</ele>
        <time>2014-11-19T08:11:17Z</time>
      </trkpt>
      <trkpt lat="49.06403" lon="6.8774">
        <ele>233.9</ele>
        <time>2014-11-19T08:11:22Z</time>
      </trkpt>
      <trkpt lat="49.06398" lon="6.87744">
        <ele>233.3</ele>
        <time>2014-11-19T08:11:27Z</time>
      </trkpt>
      <trkpt lat="49.06393" lon="6.87751">
        <ele>233</ele>
        <time>2014-11-19T08:11:32Z</time>
      </trkpt>
      <trkpt lat="49.06388" lon="6.87758">
        <ele>232.8</ele>
        <time>2014-11-19T08:11:37Z</time>
      </trkpt>
      <trkpt lat="49.06382" lon="6.87765">
        <ele>232.8</ele>
        <time>2014-11-19T08:11:42Z</time>
      </trkpt>
      <trkpt lat="49.06376" lon="6.87771">
        <ele>232.4</ele>
        <time>2014-11-19T08:11:47Z</time>
      </trkpt>
      <trkpt lat="49.0637" lon="6.87776">
        <ele>232</ele>
        <time>2014-11-19T08:11:52Z</time>
      </trkpt>
      <trkpt lat="49.06364" lon="6.87782">
        <ele>231.6</ele>
        <time>2014-11-19T08:11:57Z</time>
      </trkpt>
      <trkpt lat="49.06359" lon="6.8779">
        <ele>231.4</ele>
        <time>2014-11-19T08:12:02Z</time>
      </trkpt>
      <trkpt lat="49.06355" lon="6.87796">
        <ele>231.3</ele>
        <time>2014-11-19T08:12:07Z</time>
      </trkpt>
      <trkpt lat="49.06349" lon="6.87804">
        <ele>231.2</ele>
        <time>2014-11-19T08:12:12Z</time>
      </trkpt>
      <trkpt lat="49.06343" lon="6.87811">
        <ele>230.6</ele>
        <time>2014-11-19T08:12:17Z</time>
      </trkpt>
      <trkpt lat="49.06337" lon="6.87814">
        <ele>230.5</ele>
        <time>2014-11-19T08:12:22Z</time>
      </trkpt>
      <trkpt lat="49.06331" lon="6.87819">
        <ele>230.5</ele>
        <time>2014-11-19T08:12:27Z</time>
      </trkpt>
      <trkpt lat="49.06326" lon="6.87824">
        <ele>230.5</ele>
        <time>2014-11-19T08:12:32Z</time>
      </trkpt>
      <trkpt lat="49.06321" lon="6.8783">
        <ele>230.5</ele>
        <time>2014-11-19T08:12:37Z</time>
      </trkpt>
      <trkpt lat="49.06316" lon="6.87837">
        <ele>229.8</ele>
        <time>2014-11-19T08:12:42Z</time>
      </trkpt>
      <trkpt lat="49.0631" lon="6.87843">
        <ele>229.7</ele>
        <time>2014-11-19T08:12:47Z</time>
      </trkpt>
      <trkpt lat="49.06305" lon="6.87849">
        <ele>229.7</ele>
        <time>2014-11-19T08:12:52Z</time>
      </trkpt>
      <trkpt lat="49.063" lon="6.87855">
        <ele>229.7</ele>
        <time>2014-11-19T08:12:57Z</time>
      </trkpt>
      <trkpt lat="49.06294" lon="6.87862">
        <ele>229.7</ele>
        <time>2014-11-19T08:13:02Z</time>
      </trkpt>
      <trkpt lat="49.06288" lon="6.87869">
        <ele>229.7</ele>
        <time>2014-11-19T08:13:07Z</time>
      </trkpt>
      <trkpt lat="49.06281" lon="6.87874">
        <ele>229.7</ele>
        <time>2014-11-19T08:13:12Z</time>
      </trkpt>
      <trkpt lat="49.06275" lon="6.8788">
        <ele>229.8</ele>
        <time>2014-11-19T08:13:17Z</time>
      </trkpt>
      <trkpt lat="49.06268" lon="6.87887">
        <ele>229.8</ele>
        <time>2014-11-19T08:13:22Z</time>
      </trkpt>
      <trkpt lat="49.06262" lon="6.87892">
        <ele>229.9</ele>
        <time>2014-11-19T08:13:27Z</time>
      </trkpt>
      <trkpt lat="49.06256" lon="6.87896">
        <ele>229.9</ele>
        <time>2014-11-19T08:13:32Z</time>
      </trkpt>
      <trkpt lat="49.0625" lon="6.87902">
        <ele>229.9</ele>
        <time>2014-11-19T08:13:37Z</time>
      </trkpt>
      <trkpt lat="49.06244" lon="6.8791">
        <ele>229.9</ele>
        <time>2014-11-19T08:13:42Z</time>
      </trkpt>
      <trkpt lat="49.06239" lon="6.87914">
        <ele>229.9</ele>
        <time>2014-11-19T08:13:47Z</time>
      </trkpt>
      <trkpt lat="49.06233" lon="6.87919">
        <ele>229.9</ele>
        <time>2014-11-19T08:13:52Z</time>
      </trkpt>
      <trkpt lat="49.06227" lon="6.87922">
        <ele>229.9</ele>
        <time>2014-11-19T08:13:57Z</time>
      </trkpt>
      <trkpt lat="49.06221" lon="6.87928">
        <ele>229.9</ele>
        <time>2014-11-19T08:14:02Z</time>
      </trkpt>
      <trkpt lat="49.06217" lon="6.87935">
        <ele>229.9</ele>
        <time>2014-11-19T08:14:07Z</time>
      </trkpt>
      <trkpt lat="49.06216" lon="6.87946">
        <ele>229.9</ele>
        <time>2014-11-19T08:14:12Z</time>
      </trkpt>
      <trkpt lat="49.06218" lon="6.87957">
        <ele>229.9</ele>
        <time>2014-11-19T08:14:17Z</time>
      </trkpt>
      <trkpt lat="49.06222" lon="6.87966">
        <ele>229.9</ele>
        <time>2014-11-19T08:14:22Z</time>
      </trkpt>
      <trkpt lat="49.06227" lon="6.87974">
        <ele>229.9</ele>
        <time>2014-11-19T08:14:27Z</time>
      </trkpt>
      <trkpt lat="49.06233" lon="6.87982">
        <ele>229.9</ele>
        <time>2014-11-19T08:14:32Z</time>
      </trkpt>
      <trkpt lat="49.06236" lon="6.87991">
        <ele>229.9</ele>
        <time>2014-11-19T08:14:37Z</time>
      </trkpt>
      <trkpt lat="49.0624" lon="6.88">
        <ele>229.9</ele>
        <time>2014-11-19T08:14:42Z</time>
      </trkpt>
      <trkpt lat="49.06244" lon="6.88009">
        <ele>229.9</ele>
        <time>2014-11-19T08:14:47Z</time>
      </trkpt>
      <trkpt lat="49.06247" lon="6.88019">
        <ele>229.9</ele>
        <time>2014-11-19T08:14:52Z</time>
      </trkpt>
      <trkpt lat="49.0625" lon="6.88027">
        <ele>229.8</ele>
        <time>2014-11-19T08:14:57Z</time>
      </trkpt>
      <trkpt lat="49.06254" lon="6.88036">
        <ele>229.8</ele>
        <time>2014-11-19T08:15:02Z</time>
      </trkpt>
      <trkpt lat="49.06259" lon="6.88044">
        <ele>229.7</ele>
        <time>2014-11-19T08:15:07Z</time>
      </trkpt>
      <trkpt lat="49.06263" lon="6.88052">
        <ele>229.6</ele>
        <time>2014-11-19T08:15:12Z</time>
      </trkpt>
      <trkpt lat="49.06264" lon="6.88066">
        <ele>229.5</ele>
        <time>2014-11-19T08:15:17Z</time>
      </trkpt>
      <trkpt lat="49.06266" lon="6.88076">
        <ele>229.5</ele>
        <time>2014-11-19T08:15:22Z</time>
      </trkpt>
      <trkpt lat="49.0627" lon="6.88084">
        <ele>229.5</ele>
        <time>2014-11-19T08:15:27Z</time>
      </trkpt>
      <trkpt lat="49.06273" lon="6.88092">
        <ele>229.5</ele>
        <time>2014-11-19T08:15:32Z</time>
      </trkpt>
      <trkpt lat="49.06275" lon="6.88101">
        <ele>229.5</ele>
        <time>2014-11-19T08:15:37Z</time>
      </trkpt>
      <trkpt lat="49.06278" lon="6.8811">
        <ele>229.5</ele>
        <time>2014-11-19T08:15:42Z</time>
      </trkpt>
      <trkpt lat="49.06279" lon="6.88121">
        <ele>229.5</ele>
        <time>2014-11-19T08:15:47Z</time>
      </trkpt>
      <trkpt lat="49.06282" lon="6.88129">
        <ele>229.5</ele>
        <time>2014-11-19T08:15:52Z</time>
      </trkpt>
      <trkpt lat="49.06286" lon="6.88138">
        <ele>229.5</ele>
        <time>2014-11-19T08:15:57Z</time>
      </trkpt>
      <trkpt lat="49.0629" lon="6.88147">
        <ele>229.5</ele>
        <time>2014-11-19T08:16:02Z</time>
      </trkpt>
      <trkpt lat="49.06294" lon="6.88155">
        <ele>229.4</ele>
        <time>2014-11-19T08:16:07Z</time>
      </trkpt>
      <trkpt lat="49.06297" lon="6.88164">
        <ele>229.4</ele>
        <time>2014-11-19T08:16:12Z</time>
      </trkpt>
      <trkpt lat="49.06303" lon="6.88172">
        <ele>229.4</ele>
        <time>2014-11-19T08:16:17Z</time>
      </trkpt>
      <trkpt lat="49.06307" lon="6.8818">
        <ele>229.2</ele>
        <time>2014-11-19T08:16:22Z</time>
      </trkpt>
      <trkpt lat="49.06312" lon="6.88186">
        <ele>229.1</ele>
        <time>2014-11-19T08:16:27Z</time>
      </trkpt>
      <trkpt lat="49.06315" lon="6.88195">
        <ele>229</ele>
        <time>2014-11-19T08:16:32Z</time>
      </trkpt>
      <trkpt lat="49.06321" lon="6.88203">
        <ele>229</ele>
        <time>2014-11-19T08:16:37Z</time>
      </trkpt>
      <trkpt lat="49.06325" lon="6.88211">
        <ele>229</ele>
        <time>2014-11-19T08:16:42Z</time>
      </trkpt>
      <trkpt lat="49.06336" lon="6.88216">
        <ele>229</ele>
        <time>2014-11-19T08:16:47Z</time>
      </trkpt>
      <trkpt lat="49.06339" lon="6.88224">
        <ele>229</ele>
        <time>2014-11-19T08:16:52Z</time>
      </trkpt>
      <trkpt lat="49.06344" lon="6.88231">
        <ele>229</ele>
        <time>2014-11-19T08:16:57Z</time>
      </trkpt>
      <trkpt lat="49.06349" lon="6.88237">
        <ele>229</ele>
        <time>2014-11-19T08:17:02Z</time>
      </trkpt>
      <trkpt lat="49.06355" lon="6.88243">
        <ele>229</ele>
        <time>2014-11-19T08:17:07Z</time>
      </trkpt>
      <trkpt lat="49.0636" lon="6.88249">
        <ele>229</ele>
        <time>2014-11-19T08:17:12Z</time>
      </trkpt>
      <trkpt lat="49.06364" lon="6.88255">
        <ele>229</ele>
        <time>2014-11-19T08:17:17Z</time>
      </trkpt>
      <trkpt lat="49.06367" lon="6.88261">
        <ele>229.1</ele>
        <time>2014-11-19T08:17:22Z</time>
      </trkpt>
      <trkpt lat="49.06371" lon="6.88267">
        <ele>229.1</ele>
        <time>2014-11-19T08:17:27Z</time>
      </trkpt>
      <trkpt lat="49.06375" lon="6.88273">
        <ele>229.2</ele>
        <time>2014-11-19T08:17:32Z</time>
      </trkpt>
      <trkpt lat="49.06381" lon="6.88279">
        <ele>229.5</ele>
        <time>2014-11-19T08:17:37Z</time>
      </trkpt>
      <trkpt lat="49.06386" lon="6.88286">
        <ele>229.7</ele>
        <time>2014-11-19T08:17:42Z</time>
      </trkpt>
      <trkpt lat="49.06391" lon="6.88293">
        <ele>230.1</ele>
        <time>2014-11-19T08:17:47Z</time>
      </trkpt>
      <trkpt lat="49.06398" lon="6.88299">
        <ele>230.3</ele>
        <time>2014-11-19T08:17:52Z</time>
      </trkpt>
      <trkpt lat="49.06406" lon="6.88306">
        <ele>230.3</ele>
        <time>2014-11-19T08:17:57Z</time>
      </trkpt>
      <trkpt lat="49.0641" lon="6.88312">
        <ele>230.3</ele>
        <time>2014-11-19T08:18:02Z</time>
      </trkpt>
      <trkpt lat="49.06415" lon="6.88318">
        <ele>230.3</ele>
        <time>2014-11-19T08:18:07Z</time>
      </trkpt>
      <trkpt lat="49.06421" lon="6.88325">
        <ele>230.3</ele>
        <time>2014-11-19T08:18:12Z</time>
      </trkpt>
      <trkpt lat="49.06427" lon="6.88332">
        <ele>230.3</ele>
        <time>2014-11-19T08:18:17Z</time>
      </trkpt>
      <trkpt lat="49.06431" lon="6.88341">
        <ele>230.3</ele>
        <time>2014-11-19T08:18:22Z</time>
      </trkpt>
      <trkpt lat="49.06436" lon="6.88349">
        <ele>230.3</ele>
        <time>2014-11-19T08:18:27Z</time>
      </trkpt>
      <trkpt lat="49.06442" lon="6.88357">
        <ele>230.3</ele>
        <time>2014-11-19T08:18:32Z</time>
      </trkpt>
      <trkpt lat="49.06447" lon="6.88365">
        <ele>230.3</ele>
        <time>2014-11-19T08:18:37Z</time>
      </trkpt>
      <trkpt lat="49.06452" lon="6.88371">
        <ele>230.3</ele>
        <time>2014-11-19T08:18:42Z</time>
      </trkpt>
      <trkpt lat="49.06457" lon="6.88379">
        <ele>230.3</ele>
        <time>2014-11-19T08:18:47Z</time>
      </trkpt>
      <trkpt lat="49.06461" lon="6.88386">
        <ele>230.3</ele>
        <time>2014-11-19T08:18:52Z</time>
      </trkpt>
      <trkpt lat="49.06465" lon="6.88395">
        <ele>230.3</ele>
        <time>2014-11-19T08:18:57Z</time>
      </trkpt>
      <trkpt lat="49.06469" lon="6.88402">
        <ele>230.3</ele>
        <time>2014-11-19T08:19:02Z</time>
      </trkpt>
      <trkpt lat="49.06474" lon="6.88411">
        <ele>230.3</ele>
        <time>2014-11-19T08:19:07Z</time>
      </trkpt>
      <trkpt lat="49.06476" lon="6.88421">
        <ele>230.3</ele>
        <time>2014-11-19T08:19:12Z</time>
      </trkpt>
      <trkpt lat="49.0648" lon="6.88431">
        <ele>230.2</ele>
        <time>2014-11-19T08:19:17Z</time>
      </trkpt>
      <trkpt lat="49.06482" lon="6.88443">
        <ele>229.9</ele>
        <time>2014-11-19T08:19:22Z</time>
      </trkpt>
      <trkpt lat="49.06486" lon="6.8845">
        <ele>229.5</ele>
        <time>2014-11-19T08:19:27Z</time>
      </trkpt>
      <trkpt lat="49.06487" lon="6.88462">
        <ele>228.9</ele>
        <time>2014-11-19T08:19:32Z</time>
      </trkpt>
      <trkpt lat="49.0649" lon="6.88472">
        <ele>228.5</ele>
        <time>2014-11-19T08:19:37Z</time>
      </trkpt>
      <trkpt lat="49.06495" lon="6.8848">
        <ele>228.3</ele>
        <time>2014-11-19T08:19:42Z</time>
      </trkpt>
      <trkpt lat="49.06496" lon="6.88491">
        <ele>228.2</ele>
        <time>2014-11-19T08:19:47Z</time>
      </trkpt>
      <trkpt lat="49.06499" lon="6.885">
        <ele>228.2</ele>
        <time>2014-11-19T08:19:52Z</time>
      </trkpt>
      <trkpt lat="49.06502" lon="6.88507">
        <ele>228.2</ele>
        <time>2014-11-19T08:19:57Z</time>
      </trkpt>
      <trkpt lat="49.06504" lon="6.88517">
        <ele>228.1</ele>
        <time>2014-11-19T08:20:02Z</time>
      </trkpt>
      <trkpt lat="49.06506" lon="6.88528">
        <ele>228.1</ele>
        <time>2014-11-19T08:20:07Z</time>
      </trkpt>
      <trkpt lat="49.06508" lon="6.88538">
        <ele>228.1</ele>
        <time>2014-11-19T08:20:12Z</time>
      </trkpt>
      <trkpt lat="49.0651" lon="6.88549">
        <ele>228.1</ele>
        <time>2014-11-19T08:20:17Z</time>
      </trkpt>
      <trkpt lat="49.06513" lon="6.88558">
        <ele>228.1</ele>
        <time>2014-11-19T08:20:22Z</time>
      </trkpt>
      <trkpt lat="49.06516" lon="6.88568">
        <ele>228.1</ele>
        <time>2014-11-19T08:20:27Z</time>
      </trkpt>
      <trkpt lat="49.06518" lon="6.88577">
        <ele>228.1</ele>
        <time>2014-11-19T08:20:32Z</time>
      </trkpt>
      <trkpt lat="49.06521" lon="6.88586">
        <ele>228.1</ele>
        <time>2014-11-19T08:20:37Z</time>
      </trkpt>
      <trkpt lat="49.06525" lon="6.88591">
        <ele>228.2</ele>
        <time>2014-11-19T08:20:42Z</time>
      </trkpt>
      <trkpt lat="49.06532" lon="6.88593">
        <ele>228.2</ele>
        <time>2014-11-19T08:20:47Z</time>
      </trkpt>
      <trkpt lat="49.06539" lon="6.88595">
        <ele>228.2</ele>
        <time>2014-11-19T08:20:52Z</time>
      </trkpt>
      <trkpt lat="49.06546" lon="6.88598">
        <ele>228.1</ele>
        <time>2014-11-19T08:20:57Z</time>
      </trkpt>
      <trkpt lat="49.06552" lon="6.88602">
        <ele>228.1</ele>
        <time>2014-11-19T08:21:02Z</time>
      </trkpt>
      <trkpt lat="49.06558" lon="6.88606">
        <ele>228.1</ele>
        <time>2014-11-19T08:21:07Z</time>
      </trkpt>
      <trkpt lat="49.06565" lon="6.8861">
        <ele>228.1</ele>
        <time>2014-11-19T08:21:12Z</time>
      </trkpt>
      <trkpt lat="49.06572" lon="6.88614">
        <ele>228.1</ele>
        <time>2014-11-19T08:21:17Z</time>
      </trkpt>
      <trkpt lat="49.06577" lon="6.88616">
        <ele>228.1</ele>
        <time>2014-11-19T08:21:22Z</time>
      </trkpt>
      <trkpt lat="49.06585" lon="6.88619">
        <ele>228.1</ele>
        <time>2014-11-19T08:21:27Z</time>
      </trkpt>
      <trkpt lat="49.06591" lon="6.88622">
        <ele>228.1</ele>
        <time>2014-11-19T08:21:32Z</time>
      </trkpt>
      <trkpt lat="49.06598" lon="6.88626">
        <ele>228.1</ele>
        <time>2014-11-19T08:21:37Z</time>
      </trkpt>
      <trkpt lat="49.06604" lon="6.88634">
        <ele>228.1</ele>
        <time>2014-11-19T08:21:42Z</time>
      </trkpt>
      <trkpt lat="49.0661" lon="6.88641">
        <ele>228.1</ele>
        <time>2014-11-19T08:21:47Z</time>
      </trkpt>
      <trkpt lat="49.06615" lon="6.88646">
        <ele>228.1</ele>
        <time>2014-11-19T08:21:52Z</time>
      </trkpt>
      <trkpt lat="49.0662" lon="6.88655">
        <ele>228.1</ele>
        <time>2014-11-19T08:21:57Z</time>
      </trkpt>
      <trkpt lat="49.06624" lon="6.88662">
        <ele>228.1</ele>
        <time>2014-11-19T08:22:02Z</time>
      </trkpt>
      <trkpt lat="49.0663" lon="6.8867">
        <ele>228.1</ele>
        <time>2014-11-19T08:22:07Z</time>
      </trkpt>
      <trkpt lat="49.06635" lon="6.88677">
        <ele>228</ele>
        <time>2014-11-19T08:22:12Z</time>
      </trkpt>
      <trkpt lat="49.06638" lon="6.88687">
        <ele>228</ele>
        <time>2014-11-19T08:22:17Z</time>
      </trkpt>
      <trkpt lat="49.06642" lon="6.88696">
        <ele>228</ele>
        <time>2014-11-19T08:22:22Z</time>
      </trkpt>
      <trkpt lat="49.06646" lon="6.88704">
        <ele>228</ele>
        <time>2014-11-19T08:22:27Z</time>
      </trkpt>
      <trkpt lat="49.06651" lon="6.88713">
        <ele>228</ele>
        <time>2014-11-19T08:22:32Z</time>
      </trkpt>
      <trkpt lat="49.06655" lon="6.88722">
        <ele>228</ele>
        <time>2014-11-19T08:22:37Z</time>
      </trkpt>
      <trkpt lat="49.06659" lon="6.88732">
        <ele>228</ele>
        <time>2014-11-19T08:22:42Z</time>
      </trkpt>
      <trkpt lat="49.06662" lon="6.88741">
        <ele>228</ele>
        <time>2014-11-19T08:22:47Z</time>
      </trkpt>
      <trkpt lat="49.06665" lon="6.8875">
        <ele>228</ele>
        <time>2014-11-19T08:22:52Z</time>
      </trkpt>
      <trkpt lat="49.06667" lon="6.8876">
        <ele>228</ele>
        <time>2014-11-19T08:22:57Z</time>
      </trkpt>
      <trkpt lat="49.06668" lon="6.88772">
        <ele>228</ele>
        <time>2014-11-19T08:23:02Z</time>
      </trkpt>
      <trkpt lat="49.06671" lon="6.88781">
        <ele>228</ele>
        <time>2014-11-19T08:23:07Z</time>
      </trkpt>
      <trkpt lat="49.06672" lon="6.8879">
        <ele>228</ele>
        <time>2014-11-19T08:23:12Z</time>
      </trkpt>
      <trkpt lat="49.06676" lon="6.88797">
        <ele>228</ele>
        <time>2014-11-19T08:23:17Z</time>
      </trkpt>
      <trkpt lat="49.06679" lon="6.88804">
        <ele>228</ele>
        <time>2014-11-19T08:23:22Z</time>
      </trkpt>
      <trkpt lat="49.06681" lon="6.88813">
        <ele>228</ele>
        <time>2014-11-19T08:23:27Z</time>
      </trkpt>
      <trkpt lat="49.06682" lon="6.88827">
        <ele>228</ele>
        <time>2014-11-19T08:23:32Z</time>
      </trkpt>
      <trkpt lat="49.06685" lon="6.88837">
        <ele>228</ele>
        <time>2014-11-19T08:23:37Z</time>
      </trkpt>
      <trkpt lat="49.0669" lon="6.88848">
        <ele>228</ele>
        <time>2014-11-19T08:23:42Z</time>
      </trkpt>
      <trkpt lat="49.06693" lon="6.88859">
        <ele>228</ele>
        <time>2014-11-19T08:23:47Z</time>
      </trkpt>
      <trkpt lat="49.06697" lon="6.8887">
        <ele>228</ele>
        <time>2014-11-19T08:23:52Z</time>
      </trkpt>
      <trkpt lat="49.06699" lon="6.88879">
        <ele>228</ele>
        <time>2014-11-19T08:23:57Z</time>
      </trkpt>
      <trkpt lat="49.06699" lon="6.88891">
        <ele>228</ele>
        <time>2014-11-19T08:24:02Z</time>
      </trkpt>
      <trkpt lat="49.06698" lon="6.88899">
        <ele>228</ele>
        <time>2014-11-19T08:24:07Z</time>
      </trkpt>
      <trkpt lat="49.067" lon="6.88908">
        <ele>228</ele>
        <time>2014-11-19T08:24:12Z</time>
      </trkpt>
      <trkpt lat="49.06701" lon="6.88918">
        <ele>228</ele>
        <time>2014-11-19T08:24:17Z</time>
      </trkpt>
      <trkpt lat="49.06701" lon="6.88927">
        <ele>228</ele>
        <time>2014-11-19T08:24:22Z</time>
      </trkpt>
      <trkpt lat="49.06701" lon="6.88934">
        <ele>228</ele>
        <time>2014-11-19T08:24:27Z</time>
      </trkpt>
      <trkpt lat="49.06703" lon="6.88945">
        <ele>228</ele>
        <time>2014-11-19T08:24:32Z</time>
      </trkpt>
      <trkpt lat="49.06703" lon="6.88959">
        <ele>228</ele>
        <time>2014-11-19T08:24:37Z</time>
      </trkpt>
      <trkpt lat="49.06704" lon="6.8897">
        <ele>228</ele>
        <time>2014-11-19T08:24:42Z</time>
      </trkpt>
      <trkpt lat="49.06705" lon="6.8898">
        <ele>228</ele>
        <time>2014-11-19T08:24:47Z</time>
      </trkpt>
      <trkpt lat="49.06706" lon="6.88991">
        <ele>228</ele>
        <time>2014-11-19T08:24:52Z</time>
      </trkpt>
      <trkpt lat="49.06707" lon="6.89002">
        <ele>228</ele>
        <time>2014-11-19T08:24:57Z</time>
      </trkpt>
      <trkpt lat="49.06708" lon="6.89013">
        <ele>228</ele>
        <time>2014-11-19T08:25:02Z</time>
      </trkpt>
      <trkpt lat="49.06709" lon="6.89025">
        <ele>228</ele>
        <time>2014-11-19T08:25:07Z</time>
      </trkpt>
      <trkpt lat="49.06709" lon="6.89036">
        <ele>228</ele>
        <time>2014-11-19T08:25:12Z</time>
      </trkpt>
      <trkpt lat="49.06708" lon="6.89044">
        <ele>228</ele>
        <time>2014-11-19T08:25:17Z</time>
      </trkpt>
      <trkpt lat="49.06708" lon="6.89052">
        <ele>228</ele>
        <time>2014-11-19T08:25:22Z</time>
      </trkpt>
      <trkpt lat="49.06709" lon="6.89061">
        <ele>228</ele>
        <time>2014-11-19T08:25:27Z</time>
      </trkpt>
      <trkpt lat="49.06709" lon="6.89069">
        <ele>228</ele>
        <time>2014-11-19T08:25:32Z</time>
      </trkpt>
      <trkpt lat="49.0671" lon="6.89084">
        <ele>228</ele>
        <time>2014-11-19T08:25:37Z</time>
      </trkpt>
      <trkpt lat="49.06711" lon="6.89096">
        <ele>228</ele>
        <time>2014-11-19T08:25:42Z</time>
      </trkpt>
      <trkpt lat="49.06712" lon="6.89107">
        <ele>228</ele>
        <time>2014-11-19T08:25:47Z</time>
      </trkpt>
      <trkpt lat="49.06717" lon="6.89117">
        <ele>228</ele>
        <time>2014-11-19T08:25:52Z</time>
      </trkpt>
      <trkpt lat="49.06722" lon="6.89125">
        <ele>228</ele>
        <time>2014-11-19T08:25:57Z</time>
      </trkpt>
      <trkpt lat="49.06726" lon="6.89134">
        <ele>228</ele>
        <time>2014-11-19T08:26:02Z</time>
      </trkpt>
      <trkpt lat="49.0673" lon="6.89142">
        <ele>228</ele>
        <time>2014-11-19T08:26:07Z</time>
      </trkpt>
      <trkpt lat="49.06734" lon="6.89149">
        <ele>228</ele>
        <time>2014-11-19T08:26:12Z</time>
      </trkpt>
      <trkpt lat="49.06738" lon="6.89157">
        <ele>228</ele>
        <time>2014-11-19T08:26:17Z</time>
      </trkpt>
      <trkpt lat="49.06743" lon="6.89164">
        <ele>228</ele>
        <time>2014-11-19T08:26:22Z</time>
      </trkpt>
      <trkpt lat="49.06747" lon="6.89172">
        <ele>228</ele>
        <time>2014-11-19T08:26:27Z</time>
      </trkpt>
      <trkpt lat="49.06753" lon="6.8918">
        <ele>228</ele>
        <time>2014-11-19T08:26:32Z</time>
      </trkpt>
      <trkpt lat="49.06757" lon="6.89189">
        <ele>228.1</ele>
        <time>2014-11-19T08:26:37Z</time>
      </trkpt>
      <trkpt lat="49.06758" lon="6.89199">
        <ele>228.2</ele>
        <time>2014-11-19T08:26:42Z</time>
      </trkpt>
      <trkpt lat="49.0676" lon="6.89207">
        <ele>228.2</ele>
        <time>2014-11-19T08:26:47Z</time>
      </trkpt>
      <trkpt lat="49.06766" lon="6.89203">
        <ele>228.3</ele>
        <time>2014-11-19T08:26:52Z</time>
      </trkpt>
      <trkpt lat="49.0677" lon="6.89197">
        <ele>228.4</ele>
        <time>2014-11-19T08:26:57Z</time>
      </trkpt>
      <trkpt lat="49.06774" lon="6.8919">
        <ele>228.4</ele>
        <time>2014-11-19T08:27:02Z</time>
      </trkpt>
      <trkpt lat="49.06778" lon="6.89182">
        <ele>228.4</ele>
        <time>2014-11-19T08:27:07Z</time>
      </trkpt>
      <trkpt lat="49.06783" lon="6.89176">
        <ele>228.4</ele>
        <time>2014-11-19T08:27:12Z</time>
      </trkpt>
      <trkpt lat="49.06788" lon="6.8917">
        <ele>228.6</ele>
        <time>2014-11-19T08:27:17Z</time>
      </trkpt>
      <trkpt lat="49.06795" lon="6.89165">
        <ele>228.6</ele>
        <time>2014-11-19T08:27:22Z</time>
      </trkpt>
      <trkpt lat="49.06801" lon="6.89159">
        <ele>228.6</ele>
        <time>2014-11-19T08:27:27Z</time>
      </trkpt>
      <trkpt lat="49.06808" lon="6.89154">
        <ele>228.6</ele>
        <time>2014-11-19T08:27:32Z</time>
      </trkpt>
      <trkpt lat="49.06816" lon="6.8915">
        <ele>228.6</ele>
        <time>2014-11-19T08:27:37Z</time>
      </trkpt>
      <trkpt lat="49.06825" lon="6.89148">
        <ele>228.6</ele>
        <time>2014-11-19T08:27:42Z</time>
      </trkpt>
      <trkpt lat="49.06831" lon="6.89141">
        <ele>228.6</ele>
        <time>2014-11-19T08:27:47Z</time>
      </trkpt>
      <trkpt lat="49.06835" lon="6.89134">
        <ele>228.6</ele>
        <time>2014-11-19T08:27:52Z</time>
      </trkpt>
      <trkpt lat="49.06841" lon="6.89129">
        <ele>228.6</ele>
        <time>2014-11-19T08:27:57Z</time>
      </trkpt>
      <trkpt lat="49.06846" lon="6.89125">
        <ele>228.6</ele>
        <time>2014-11-19T08:28:02Z</time>
      </trkpt>
      <trkpt lat="49.06851" lon="6.89119">
        <ele>228.6</ele>
        <time>2014-11-19T08:28:07Z</time>
      </trkpt>
      <trkpt lat="49.06857" lon="6.89113">
        <ele>228.6</ele>
        <time>2014-11-19T08:28:12Z</time>
      </trkpt>
      <trkpt lat="49.06862" lon="6.89107">
        <ele>228.6</ele>
        <time>2014-11-19T08:28:17Z</time>
      </trkpt>
      <trkpt lat="49.06868" lon="6.89102">
        <ele>228.6</ele>
        <time>2014-11-19T08:28:22Z</time>
      </trkpt>
      <trkpt lat="49.06875" lon="6.89096">
        <ele>228.6</ele>
        <time>2014-11-19T08:28:27Z</time>
      </trkpt>
      <trkpt lat="49.06881" lon="6.89091">
        <ele>228.6</ele>
        <time>2014-11-19T08:28:32Z</time>
      </trkpt>
      <trkpt lat="49.06887" lon="6.89086">
        <ele>228.6</ele>
        <time>2014-11-19T08:28:37Z</time>
      </trkpt>
      <trkpt lat="49.06893" lon="6.8908">
        <ele>228.6</ele>
        <time>2014-11-19T08:28:42Z</time>
      </trkpt>
      <trkpt lat="49.06899" lon="6.89074">
        <ele>228.6</ele>
        <time>2014-11-19T08:28:47Z</time>
      </trkpt>
      <trkpt lat="49.06905" lon="6.89067">
        <ele>228.6</ele>
        <time>2014-11-19T08:28:52Z</time>
      </trkpt>
      <trkpt lat="49.06906" lon="6.89059">
        <ele>228.6</ele>
        <time>2014-11-19T08:28:57Z</time>
      </trkpt>
      <trkpt lat="49.06901" lon="6.89049">
        <ele>228.6</ele>
        <time>2014-11-19T08:29:02Z</time>
      </trkpt>
      <trkpt lat="49.06899" lon="6.89041">
        <ele>228.6</ele>
        <time>2014-11-19T08:29:07Z</time>
      </trkpt>
      <trkpt lat="49.06894" lon="6.89038">
        <ele>228.6</ele>
        <time>2014-11-19T08:29:12Z</time>
      </trkpt>
      <trkpt lat="49.06893" lon="6.89028">
        <ele>228.6</ele>
        <time>2014-11-19T08:29:17Z</time>
      </trkpt>
      <trkpt lat="49.06892" lon="6.89015">
        <ele>228.5</ele>
        <time>2014-11-19T08:29:22Z</time>
      </trkpt>
      <trkpt lat="49.06889" lon="6.89004">
        <ele>228.4</ele>
        <time>2014-11-19T08:29:27Z</time>
      </trkpt>
      <trkpt lat="49.06887" lon="6.88992">
        <ele>228.4</ele>
        <time>2014-11-19T08:29:32Z</time>
      </trkpt>
      <trkpt lat="49.06884" lon="6.88982">
        <ele>228.3</ele>
        <time>2014-11-19T08:29:37Z</time>
      </trkpt>
      <trkpt lat="49.06883" lon="6.88972">
        <ele>228.3</ele>
        <time>2014-11-19T08:29:42Z</time>
      </trkpt>
      <trkpt lat="49.06881" lon="6.8896">
        <ele>228.3</ele>
        <time>2014-11-19T08:29:47Z</time>
      </trkpt>
      <trkpt lat="49.06878" lon="6.88949">
        <ele>228.3</ele>
        <time>2014-11-19T08:29:52Z</time>
      </trkpt>
      <trkpt lat="49.06877" lon="6.88939">
        <ele>228.3</ele>
        <time>2014-11-19T08:29:57Z</time>
      </trkpt>
      <trkpt lat="49.06876" lon="6.8893">
        <ele>228.1</ele>
        <time>2014-11-19T08:30:02Z</time>
      </trkpt>
      <trkpt lat="49.06875" lon="6.88919">
        <ele>228.1</ele>
        <time>2014-11-19T08:30:07Z</time>
      </trkpt>
      <trkpt lat="49.06875" lon="6.88909">
        <ele>228.1</ele>
        <time>2014-11-19T08:30:12Z</time>
      </trkpt>
      <trkpt lat="49.06876" lon="6.88897">
        <ele>228.1</ele>
        <time>2014-11-19T08:30:17Z</time>
      </trkpt>
      <trkpt lat="49.06873" lon="6.88889">
        <ele>228.1</ele>
        <time>2014-11-19T08:30:22Z</time>
      </trkpt>
      <trkpt lat="49.0687" lon="6.8888">
        <ele>228.1</ele>
        <time>2014-11-19T08:30:27Z</time>
      </trkpt>
      <trkpt lat="49.06867" lon="6.8887">
        <ele>228.1</ele>
        <time>2014-11-19T08:30:32Z</time>
      </trkpt>
      <trkpt lat="49.06865" lon="6.88862">
        <ele>228.1</ele>
        <time>2014-11-19T08:30:37Z</time>
      </trkpt>
      <trkpt lat="49.06864" lon="6.88853">
        <ele>228.1</ele>
        <time>2014-11-19T08:30:42Z</time>
      </trkpt>
      <trkpt lat="49.06861" lon="6.88843">
        <ele>228.1</ele>
        <time>2014-11-19T08:30:47Z</time>
      </trkpt>
      <trkpt lat="49.06859" lon="6.88833">
        <ele>228</ele>
        <time>2014-11-19T08:30:52Z</time>
      </trkpt>
      <trkpt lat="49.06856" lon="6.88823">
        <ele>227.8</ele>
        <time>2014-11-19T08:30:57Z</time>
      </trkpt>
      <trkpt lat="49.06855" lon="6.88817">
        <ele>227.6</ele>
        <time>2014-11-19T08:31:02Z</time>
      </trkpt>
      <trkpt lat="49.06854" lon="6.8881">
        <ele>227.5</ele>
        <time>2014-11-19T08:31:07Z</time>
      </trkpt>
      <trkpt lat="49.06852" lon="6.88801">
        <ele>227.5</ele>
        <time>2014-11-19T08:31:12Z</time>
      </trkpt>
      <trkpt lat="49.06848" lon="6.88789">
        <ele>227.5</ele>
        <time>2014-11-19T08:31:17Z</time>
      </trkpt>
      <trkpt lat="49.06845" lon="6.88778">
        <ele>227.5</ele>
        <time>2014-11-19T08:31:22Z</time>
      </trkpt>
      <trkpt lat="49.06843" lon="6.88764">
        <ele>227.5</ele>
        <time>2014-11-19T08:31:27Z</time>
      </trkpt>
      <trkpt lat="49.06838" lon="6.88752">
        <ele>227.5</ele>
        <time>2014-11-19T08:31:32Z</time>
      </trkpt>
      <trkpt lat="49.06834" lon="6.8874">
        <ele>227.5</ele>
        <time>2014-11-19T08:31:37Z</time>
      </trkpt>
      <trkpt lat="49.06831" lon="6.88732">
        <ele>227.5</ele>
        <time>2014-11-19T08:31:42Z</time>
      </trkpt>
      <trkpt lat="49.06828" lon="6.88721">
        <ele>227.5</ele>
        <time>2014-11-19T08:31:47Z</time>
      </trkpt>
      <trkpt lat="49.06824" lon="6.88711">
        <ele>227.3</ele>
        <time>2014-11-19T08:31:52Z</time>
      </trkpt>
      <trkpt lat="49.06821" lon="6.887">
        <ele>227.3</ele>
        <time>2014-11-19T08:31:57Z</time>
      </trkpt>
      <trkpt lat="49.06818" lon="6.8869">
        <ele>227.2</ele>
        <time>2014-11-19T08:32:02Z</time>
      </trkpt>
      <trkpt lat="49.06814" lon="6.88681">
        <ele>227.2</ele>
        <time>2014-11-19T08:32:07Z</time>
      </trkpt>
      <trkpt lat="49.0681" lon="6.88672">
        <ele>227.2</ele>
        <time>2014-11-19T08:32:12Z</time>
      </trkpt>
      <trkpt lat="49.06806" lon="6.88662">
        <ele>227.2</ele>
        <time>2014-11-19T08:32:17Z</time>
      </trkpt>
      <trkpt lat="49.06801" lon="6.88653">
        <ele>227.2</ele>
        <time>2014-11-19T08:32:22Z</time>
      </trkpt>
      <trkpt lat="49.06796" lon="6.88643">
        <ele>227.2</ele>
        <time>2014-11-19T08:32:27Z</time>
      </trkpt>
      <trkpt lat="49.06791" lon="6.88635">
        <ele>227.2</ele>
        <time>2014-11-19T08:32:32Z</time>
      </trkpt>
      <trkpt lat="49.06787" lon="6.88627">
        <ele>227.2</ele>
        <time>2014-11-19T08:32:37Z</time>
      </trkpt>
      <trkpt lat="49.06783" lon="6.88618">
        <ele>227.2</ele>
        <time>2014-11-19T08:32:42Z</time>
      </trkpt>
      <trkpt lat="49.06779" lon="6.8861">
        <ele>227.2</ele>
        <time>2014-11-19T08:32:47Z</time>
      </trkpt>
      <trkpt lat="49.06775" lon="6.88602">
        <ele>227.2</ele>
        <time>2014-11-19T08:32:52Z</time>
      </trkpt>
      <trkpt lat="49.06771" lon="6.88595">
        <ele>227.2</ele>
        <time>2014-11-19T08:32:57Z</time>
      </trkpt>
      <trkpt lat="49.06768" lon="6.88585">
        <ele>227.2</ele>
        <time>2014-11-19T08:33:02Z</time>
      </trkpt>
      <trkpt lat="49.06765" lon="6.88574">
        <ele>227.2</ele>
        <time>2014-11-19T08:33:07Z</time>
      </trkpt>
      <trkpt lat="49.06763" lon="6.88565">
        <ele>227.2</ele>
        <time>2014-11-19T08:33:12Z</time>
      </trkpt>
      <trkpt lat="49.06761" lon="6.88554">
        <ele>227.2</ele>
        <time>2014-11-19T08:33:17Z</time>
      </trkpt>
      <trkpt lat="49.0676" lon="6.88544">
        <ele>227.2</ele>
        <time>2014-11-19T08:33:22Z</time>
      </trkpt>
      <trkpt lat="49.06758" lon="6.88536">
        <ele>227.2</ele>
        <time>2014-11-19T08:33:27Z</time>
      </trkpt>
      <trkpt lat="49.06758" lon="6.88529">
        <ele>227.2</ele>
        <time>2014-11-19T08:33:32Z</time>
      </trkpt>
      <trkpt lat="49.06756" lon="6.88519">
        <ele>227.2</ele>
        <time>2014-11-19T08:33:37Z</time>
      </trkpt>
      <trkpt lat="49.06754" lon="6.8851">
        <ele>227.2</ele>
        <time>2014-11-19T08:33:42Z</time>
      </trkpt>
      <trkpt lat="49.06753" lon="6.88501">
        <ele>227.5</ele>
        <time>2014-11-19T08:33:47Z</time>
      </trkpt>
      <trkpt lat="49.0676" lon="6.88496">
        <ele>227.6</ele>
        <time>2014-11-19T08:33:52Z</time>
      </trkpt>
      <trkpt lat="49.06767" lon="6.88493">
        <ele>227.6</ele>
        <time>2014-11-19T08:33:57Z</time>
      </trkpt>
      <trkpt lat="49.06774" lon="6.88492">
        <ele>227.6</ele>
        <time>2014-11-19T08:34:02Z</time>
      </trkpt>
      <trkpt lat="49.06782" lon="6.8849">
        <ele>227.6</ele>
        <time>2014-11-19T08:34:07Z</time>
      </trkpt>
      <trkpt lat="49.0679" lon="6.88487">
        <ele>227.7</ele>
        <time>2014-11-19T08:34:12Z</time>
      </trkpt>
      <trkpt lat="49.06797" lon="6.88485">
        <ele>228</ele>
        <time>2014-11-19T08:34:17Z</time>
      </trkpt>
      <trkpt lat="49.06804" lon="6.88482">
        <ele>228.1</ele>
        <time>2014-11-19T08:34:22Z</time>
      </trkpt>
      <trkpt lat="49.06811" lon="6.88479">
        <ele>228.4</ele>
        <time>2014-11-19T08:34:27Z</time>
      </trkpt>
      <trkpt lat="49.06817" lon="6.88476">
        <ele>228.6</ele>
        <time>2014-11-19T08:34:32Z</time>
      </trkpt>
      <trkpt lat="49.06824" lon="6.88472">
        <ele>229.2</ele>
        <time>2014-11-19T08:34:37Z</time>
      </trkpt>
      <trkpt lat="49.06831" lon="6.88468">
        <ele>229.4</ele>
        <time>2014-11-19T08:34:42Z</time>
      </trkpt>
      <trkpt lat="49.06838" lon="6.88465">
        <ele>229.5</ele>
        <time>2014-11-19T08:34:47Z</time>
      </trkpt>
      <trkpt lat="49.06845" lon="6.88462">
        <ele>229.7</ele>
        <time>2014-11-19T08:34:52Z</time>
      </trkpt>
      <trkpt lat="49.0685" lon="6.8846">
        <ele>230.3</ele>
        <time>2014-11-19T08:34:57Z</time>
      </trkpt>
      <trkpt lat="49.06857" lon="6.88457">
        <ele>230.4</ele>
        <time>2014-11-19T08:35:02Z</time>
      </trkpt>
      <trkpt lat="49.06862" lon="6.88455">
        <ele>231.3</ele>
        <time>2014-11-19T08:35:07Z</time>
      </trkpt>
      <trkpt lat="49.06867" lon="6.88452">
        <ele>231.9</ele>
        <time>2014-11-19T08:35:12Z</time>
      </trkpt>
      <trkpt lat="49.06874" lon="6.88449">
        <ele>232.7</ele>
        <time>2014-11-19T08:35:17Z</time>
      </trkpt>
      <trkpt lat="49.06882" lon="6.88445">
        <ele>233.1</ele>
        <time>2014-11-19T08:35:22Z</time>
      </trkpt>
      <trkpt lat="49.0689" lon="6.88442">
        <ele>233.9</ele>
        <time>2014-11-19T08:35:27Z</time>
      </trkpt>
      <trkpt lat="49.06896" lon="6.8844">
        <ele>234.6</ele>
        <time>2014-11-19T08:35:32Z</time>
      </trkpt>
      <trkpt lat="49.06901" lon="6.88437">
        <ele>235.3</ele>
        <time>2014-11-19T08:35:37Z</time>
      </trkpt>
      <trkpt lat="49.06907" lon="6.88436">
        <ele>236.2</ele>
        <time>2014-11-19T08:35:42Z</time>
      </trkpt>
      <trkpt lat="49.0691" lon="6.88434">
        <ele>236.9</ele>
        <time>2014-11-19T08:35:47Z</time>
      </trkpt>
      <trkpt lat="49.06916" lon="6.88434">
        <ele>237.3</ele>
        <time>2014-11-19T08:35:52Z</time>
      </trkpt>
      <trkpt lat="49.06922" lon="6.88432">
        <ele>237.9</ele>
        <time>2014-11-19T08:35:57Z</time>
      </trkpt>
      <trkpt lat="49.06928" lon="6.8843">
        <ele>238.4</ele>
        <time>2014-11-19T08:36:02Z</time>
      </trkpt>
      <trkpt lat="49.06937" lon="6.88424">
        <ele>239</ele>
        <time>2014-11-19T08:36:07Z</time>
      </trkpt>
      <trkpt lat="49.06943" lon="6.88423">
        <ele>239.5</ele>
        <time>2014-11-19T08:36:12Z</time>
      </trkpt>
      <trkpt lat="49.06947" lon="6.88421">
        <ele>239.6</ele>
        <time>2014-11-19T08:36:17Z</time>
      </trkpt>
      <trkpt lat="49.0695" lon="6.88418">
        <ele>239.9</ele>
        <time>2014-11-19T08:36:22Z</time>
      </trkpt>
      <trkpt lat="49.06951" lon="6.88412">
        <ele>239.9</ele>
        <time>2014-11-19T08:36:27Z</time>
      </trkpt>
      <trkpt lat="49.06955" lon="6.88407">
        <ele>239.9</ele>
        <time>2014-11-19T08:36:32Z</time>
      </trkpt>
      <trkpt lat="49.06956" lon="6.88403">
        <ele>240</ele>
        <time>2014-11-19T08:36:37Z</time>
      </trkpt>
      <trkpt lat="49.06955" lon="6.88397">
        <ele>240.2</ele>
        <time>2014-11-19T08:36:42Z</time>
      </trkpt>
      <trkpt lat="49.06953" lon="6.88385">
        <ele>240.3</ele>
        <time>2014-11-19T08:36:47Z</time>
      </trkpt>
      <trkpt lat="49.06952" lon="6.88374">
        <ele>240.4</ele>
        <time>2014-11-19T08:36:52Z</time>
      </trkpt>
      <trkpt lat="49.06951" lon="6.88366">
        <ele>240.4</ele>
        <time>2014-11-19T08:36:57Z</time>
      </trkpt>
      <trkpt lat="49.06951" lon="6.88356">
        <ele>240.4</ele>
        <time>2014-11-19T08:37:02Z</time>
      </trkpt>
      <trkpt lat="49.0695" lon="6.88347">
        <ele>240.9</ele>
        <time>2014-11-19T08:37:07Z</time>
      </trkpt>
      <trkpt lat="49.06948" lon="6.88337">
        <ele>241</ele>
        <time>2014-11-19T08:37:12Z</time>
      </trkpt>
      <trkpt lat="49.06946" lon="6.88327">
        <ele>241</ele>
        <time>2014-11-19T08:37:17Z</time>
      </trkpt>
      <trkpt lat="49.06945" lon="6.88318">
        <ele>241</ele>
        <time>2014-11-19T08:37:22Z</time>
      </trkpt>
      <trkpt lat="49.06944" lon="6.88308">
        <ele>241</ele>
        <time>2014-11-19T08:37:27Z</time>
      </trkpt>
      <trkpt lat="49.06943" lon="6.88296">
        <ele>241</ele>
        <time>2014-11-19T08:37:32Z</time>
      </trkpt>
      <trkpt lat="49.06948" lon="6.88289">
        <ele>241</ele>
        <time>2014-11-19T08:37:37Z</time>
      </trkpt>
      <trkpt lat="49.06951" lon="6.88287">
        <ele>241</ele>
        <time>2014-11-19T08:37:42Z</time>
      </trkpt>
      <trkpt lat="49.06961" lon="6.88284">
        <ele>241</ele>
        <time>2014-11-19T08:37:47Z</time>
      </trkpt>
      <trkpt lat="49.06973" lon="6.88282">
        <ele>241</ele>
        <time>2014-11-19T08:37:52Z</time>
      </trkpt>
      <trkpt lat="49.06981" lon="6.88283">
        <ele>241</ele>
        <time>2014-11-19T08:37:57Z</time>
      </trkpt>
      <trkpt lat="49.06988" lon="6.88282">
        <ele>240.7</ele>
        <time>2014-11-19T08:38:02Z</time>
      </trkpt>
      <trkpt lat="49.06995" lon="6.88281">
        <ele>240.5</ele>
        <time>2014-11-19T08:38:07Z</time>
      </trkpt>
      <trkpt lat="49.07001" lon="6.8828">
        <ele>240.1</ele>
        <time>2014-11-19T08:38:12Z</time>
      </trkpt>
      <trkpt lat="49.07009" lon="6.88278">
        <ele>239.4</ele>
        <time>2014-11-19T08:38:17Z</time>
      </trkpt>
      <trkpt lat="49.07015" lon="6.88278">
        <ele>238.6</ele>
        <time>2014-11-19T08:38:22Z</time>
      </trkpt>
      <trkpt lat="49.07021" lon="6.88277">
        <ele>238.2</ele>
        <time>2014-11-19T08:38:27Z</time>
      </trkpt>
      <trkpt lat="49.07029" lon="6.88276">
        <ele>237.6</ele>
        <time>2014-11-19T08:38:32Z</time>
      </trkpt>
      <trkpt lat="49.07035" lon="6.88274">
        <ele>237</ele>
        <time>2014-11-19T08:38:37Z</time>
      </trkpt>
      <trkpt lat="49.07041" lon="6.88274">
        <ele>236.5</ele>
        <time>2014-11-19T08:38:42Z</time>
      </trkpt>
      <trkpt lat="49.07047" lon="6.88273">
        <ele>235.9</ele>
        <time>2014-11-19T08:38:47Z</time>
      </trkpt>
      <trkpt lat="49.07053" lon="6.88273">
        <ele>235.3</ele>
        <time>2014-11-19T08:38:52Z</time>
      </trkpt>
      <trkpt lat="49.07061" lon="6.88271">
        <ele>234.7</ele>
        <time>2014-11-19T08:38:57Z</time>
      </trkpt>
      <trkpt lat="49.07067" lon="6.8827">
        <ele>233.7</ele>
        <time>2014-11-19T08:39:02Z</time>
      </trkpt>
      <trkpt lat="49.07074" lon="6.88269">
        <ele>233.4</ele>
        <time>2014-11-19T08:39:07Z</time>
      </trkpt>
      <trkpt lat="49.07082" lon="6.88269">
        <ele>233.1</ele>
        <time>2014-11-19T08:39:12Z</time>
      </trkpt>
      <trkpt lat="49.07088" lon="6.88268">
        <ele>232.7</ele>
        <time>2014-11-19T08:39:17Z</time>
      </trkpt>
      <trkpt lat="49.07094" lon="6.88267">
        <ele>232.2</ele>
        <time>2014-11-19T08:39:22Z</time>
      </trkpt>
      <trkpt lat="49.07102" lon="6.88267">
        <ele>231.9</ele>
        <time>2014-11-19T08:39:27Z</time>
      </trkpt>
      <trkpt lat="49.07109" lon="6.88267">
        <ele>231.2</ele>
        <time>2014-11-19T08:39:32Z</time>
      </trkpt>
      <trkpt lat="49.07115" lon="6.88267">
        <ele>230.8</ele>
        <time>2014-11-19T08:39:37Z</time>
      </trkpt>
      <trkpt lat="49.07121" lon="6.88267">
        <ele>230.4</ele>
        <time>2014-11-19T08:39:42Z</time>
      </trkpt>
      <trkpt lat="49.07128" lon="6.88268">
        <ele>230.2</ele>
        <time>2014-11-19T08:39:47Z</time>
      </trkpt>
      <trkpt lat="49.07134" lon="6.88269">
        <ele>229.9</ele>
        <time>2014-11-19T08:39:52Z</time>
      </trkpt>
      <trkpt lat="49.07141" lon="6.8827">
        <ele>229.7</ele>
        <time>2014-11-19T08:39:57Z</time>
      </trkpt>
      <trkpt lat="49.07148" lon="6.88272">
        <ele>229.3</ele>
        <time>2014-11-19T08:40:02Z</time>
      </trkpt>
      <trkpt lat="49.07156" lon="6.88274">
        <ele>229</ele>
        <time>2014-11-19T08:40:07Z</time>
      </trkpt>
      <trkpt lat="49.07162" lon="6.88277">
        <ele>229</ele>
        <time>2014-11-19T08:40:12Z</time>
      </trkpt>
      <trkpt lat="49.0717" lon="6.88277">
        <ele>228.7</ele>
        <time>2014-11-19T08:40:17Z</time>
      </trkpt>
      <trkpt lat="49.07177" lon="6.88278">
        <ele>228.2</ele>
        <time>2014-11-19T08:40:22Z</time>
      </trkpt>
      <trkpt lat="49.07182" lon="6.88281">
        <ele>228.1</ele>
        <time>2014-11-19T08:40:27Z</time>
      </trkpt>
      <trkpt lat="49.07189" lon="6.88283">
        <ele>228.1</ele>
        <time>2014-11-19T08:40:32Z</time>
      </trkpt>
      <trkpt lat="49.07195" lon="6.88286">
        <ele>227.9</ele>
        <time>2014-11-19T08:40:37Z</time>
      </trkpt>
      <trkpt lat="49.07202" lon="6.88287">
        <ele>227.7</ele>
        <time>2014-11-19T08:40:42Z</time>
      </trkpt>
      <trkpt lat="49.07209" lon="6.88289">
        <ele>227.6</ele>
        <time>2014-11-19T08:40:47Z</time>
      </trkpt>
      <trkpt lat="49.07217" lon="6.8829">
        <ele>227.4</ele>
        <time>2014-11-19T08:40:52Z</time>
      </trkpt>
      <trkpt lat="49.07223" lon="6.88292">
        <ele>226.9</ele>
        <time>2014-11-19T08:40:57Z</time>
      </trkpt>
      <trkpt lat="49.07229" lon="6.88294">
        <ele>226.6</ele>
        <time>2014-11-19T08:41:02Z</time>
      </trkpt>
      <trkpt lat="49.07236" lon="6.88296">
        <ele>226.6</ele>
        <time>2014-11-19T08:41:07Z</time>
      </trkpt>
      <trkpt lat="49.07242" lon="6.88299">
        <ele>226.6</ele>
        <time>2014-11-19T08:41:12Z</time>
      </trkpt>
      <trkpt lat="49.07248" lon="6.88301">
        <ele>226.6</ele>
        <time>2014-11-19T08:41:17Z</time>
      </trkpt>
      <trkpt lat="49.07253" lon="6.88302">
        <ele>226.5</ele>
        <time>2014-11-19T08:41:22Z</time>
      </trkpt>
      <trkpt lat="49.07261" lon="6.88304">
        <ele>226.4</ele>
        <time>2014-11-19T08:41:27Z</time>
      </trkpt>
      <trkpt lat="49.07266" lon="6.88307">
        <ele>226.2</ele>
        <time>2014-11-19T08:41:32Z</time>
      </trkpt>
      <trkpt lat="49.07271" lon="6.8831">
        <ele>226.2</ele>
        <time>2014-11-19T08:41:37Z</time>
      </trkpt>
      <trkpt lat="49.07277" lon="6.88314">
        <ele>226.1</ele>
        <time>2014-11-19T08:41:42Z</time>
      </trkpt>
      <trkpt lat="49.07283" lon="6.88317">
        <ele>226.1</ele>
        <time>2014-11-19T08:41:47Z</time>
      </trkpt>
      <trkpt lat="49.07289" lon="6.88319">
        <ele>226.1</ele>
        <time>2014-11-19T08:41:52Z</time>
      </trkpt>
      <trkpt lat="49.07295" lon="6.88325">
        <ele>226.1</ele>
        <time>2014-11-19T08:41:57Z</time>
      </trkpt>
      <trkpt lat="49.07302" lon="6.8833">
        <ele>226.1</ele>
        <time>2014-11-19T08:42:02Z</time>
      </trkpt>
      <trkpt lat="49.07308" lon="6.88334">
        <ele>226.1</ele>
        <time>2014-11-19T08:42:07Z</time>
      </trkpt>
      <trkpt lat="49.07315" lon="6.88337">
        <ele>226.1</ele>
        <time>2014-11-19T08:42:12Z</time>
      </trkpt>
      <trkpt lat="49.07321" lon="6.8834">
        <ele>226.4</ele>
        <time>2014-11-19T08:42:17Z</time>
      </trkpt>
      <trkpt lat="49.07329" lon="6.88341">
        <ele>226.7</ele>
        <time>2014-11-19T08:42:22Z</time>
      </trkpt>
      <trkpt lat="49.07333" lon="6.88347">
        <ele>226.8</ele>
        <time>2014-11-19T08:42:27Z</time>
      </trkpt>
      <trkpt lat="49.07341" lon="6.88349">
        <ele>227</ele>
        <time>2014-11-19T08:42:32Z</time>
      </trkpt>
      <trkpt lat="49.07348" lon="6.88351">
        <ele>227.5</ele>
        <time>2014-11-19T08:42:37Z</time>
      </trkpt>
      <trkpt lat="49.07354" lon="6.88352">
        <ele>227.8</ele>
        <time>2014-11-19T08:42:42Z</time>
      </trkpt>
      <trkpt lat="49.07361" lon="6.88353">
        <ele>227.9</ele>
        <time>2014-11-19T08:42:47Z</time>
      </trkpt>
      <trkpt lat="49.07367" lon="6.88355">
        <ele>227.9</ele>
        <time>2014-11-19T08:42:52Z</time>
      </trkpt>
      <trkpt lat="49.07375" lon="6.88354">
        <ele>228.2</ele>
        <time>2014-11-19T08:42:57Z</time>
      </trkpt>
      <trkpt lat="49.07382" lon="6.88353">
        <ele>228.6</ele>
        <time>2014-11-19T08:43:02Z</time>
      </trkpt>
      <trkpt lat="49.07388" lon="6.88357">
        <ele>229.3</ele>
        <time>2014-11-19T08:43:07Z</time>
      </trkpt>
      <trkpt lat="49.07393" lon="6.88361">
        <ele>229.5</ele>
        <time>2014-11-19T08:43:12Z</time>
      </trkpt>
      <trkpt lat="49.074" lon="6.88363">
        <ele>229.7</ele>
        <time>2014-11-19T08:43:17Z</time>
      </trkpt>
      <trkpt lat="49.07406" lon="6.88367">
        <ele>230.2</ele>
        <time>2014-11-19T08:43:22Z</time>
      </trkpt>
      <trkpt lat="49.07414" lon="6.88371">
        <ele>230.6</ele>
        <time>2014-11-19T08:43:27Z</time>
      </trkpt>
      <trkpt lat="49.07418" lon="6.88375">
        <ele>231.2</ele>
        <time>2014-11-19T08:43:32Z</time>
      </trkpt>
      <trkpt lat="49.07424" lon="6.88377">
        <ele>232</ele>
        <time>2014-11-19T08:43:37Z</time>
      </trkpt>
      <trkpt lat="49.07431" lon="6.88379">
        <ele>232.6</ele>
        <time>2014-11-19T08:43:42Z</time>
      </trkpt>
      <trkpt lat="49.07436" lon="6.8838">
        <ele>233.3</ele>
        <time>2014-11-19T08:43:47Z</time>
      </trkpt>
      <trkpt lat="49.07443" lon="6.88383">
        <ele>233.7</ele>
        <time>2014-11-19T08:43:52Z</time>
      </trkpt>
      <trkpt lat="49.0745" lon="6.88385">
        <ele>234.5</ele>
        <time>2014-11-19T08:43:57Z</time>
      </trkpt>
      <trkpt lat="49.07454" lon="6.88389">
        <ele>235.2</ele>
        <time>2014-11-19T08:44:02Z</time>
      </trkpt>
      <trkpt lat="49.07459" lon="6.88389">
        <ele>236</ele>
        <time>2014-11-19T08:44:07Z</time>
      </trkpt>
      <trkpt lat="49.07465" lon="6.88391">
        <ele>237.1</ele>
        <time>2014-11-19T08:44:12Z</time>
      </trkpt>
      <trkpt lat="49.07471" lon="6.88392">
        <ele>237.6</ele>
        <time>2014-11-19T08:44:17Z</time>
      </trkpt>
      <trkpt lat="49.07478" lon="6.88394">
        <ele>238.6</ele>
        <time>2014-11-19T08:44:22Z</time>
      </trkpt>
      <trkpt lat="49.07483" lon="6.88395">
        <ele>239.5</ele>
        <time>2014-11-19T08:44:27Z</time>
      </trkpt>
      <trkpt lat="49.07494" lon="6.88398">
        <ele>239.9</ele>
        <time>2014-11-19T08:44:32Z</time>
      </trkpt>
      <trkpt lat="49.07501" lon="6.884">
        <ele>240.7</ele>
        <time>2014-11-19T08:44:37Z</time>
      </trkpt>
      <trkpt lat="49.07507" lon="6.884">
        <ele>241.4</ele>
        <time>2014-11-19T08:44:42Z</time>
      </trkpt>
      <trkpt lat="49.07511" lon="6.88402">
        <ele>242</ele>
        <time>2014-11-19T08:44:47Z</time>
      </trkpt>
      <trkpt lat="49.07517" lon="6.88404">
        <ele>242.8</ele>
        <time>2014-11-19T08:44:52Z</time>
      </trkpt>
      <trkpt lat="49.07522" lon="6.88407">
        <ele>243.1</ele>
        <time>2014-11-19T08:44:57Z</time>
      </trkpt>
      <trkpt lat="49.07528" lon="6.88406">
        <ele>243.5</ele>
        <time>2014-11-19T08:45:02Z</time>
      </trkpt>
      <trkpt lat="49.07537" lon="6.88411">
        <ele>243.6</ele>
        <time>2014-11-19T08:45:07Z</time>
      </trkpt>
      <trkpt lat="49.07544" lon="6.88414">
        <ele>243.7</ele>
        <time>2014-11-19T08:45:12Z</time>
      </trkpt>
      <trkpt lat="49.0755" lon="6.88415">
        <ele>244.1</ele>
        <time>2014-11-19T08:45:17Z</time>
      </trkpt>
      <trkpt lat="49.07554" lon="6.88417">
        <ele>244.2</ele>
        <time>2014-11-19T08:45:22Z</time>
      </trkpt>
      <trkpt lat="49.07559" lon="6.88417">
        <ele>244.2</ele>
        <time>2014-11-19T08:45:27Z</time>
      </trkpt>
      <trkpt lat="49.07565" lon="6.88418">
        <ele>244.2</ele>
        <time>2014-11-19T08:45:32Z</time>
      </trkpt>
      <trkpt lat="49.07574" lon="6.88419">
        <ele>244.2</ele>
        <time>2014-11-19T08:45:37Z</time>
      </trkpt>
      <trkpt lat="49.07582" lon="6.88421">
        <ele>244.2</ele>
        <time>2014-11-19T08:45:42Z</time>
      </trkpt>
      <trkpt lat="49.07589" lon="6.88423">
        <ele>244.2</ele>
        <time>2014-11-19T08:45:47Z</time>
      </trkpt>
      <trkpt lat="49.07597" lon="6.88425">
        <ele>244</ele>
        <time>2014-11-19T08:45:52Z</time>
      </trkpt>
      <trkpt lat="49.07604" lon="6.88427">
        <ele>243.8</ele>
        <time>2014-11-19T08:45:57Z</time>
      </trkpt>
      <trkpt lat="49.0761" lon="6.8843">
        <ele>243.8</ele>
        <time>2014-11-19T08:46:02Z</time>
      </trkpt>
      <trkpt lat="49.07619" lon="6.88432">
        <ele>243.8</ele>
        <time>2014-11-19T08:46:07Z</time>
      </trkpt>
      <trkpt lat="49.07626" lon="6.88434">
        <ele>243.8</ele>
        <time>2014-11-19T08:46:12Z</time>
      </trkpt>
      <trkpt lat="49.0763" lon="6.88435">
        <ele>243.9</ele>
        <time>2014-11-19T08:46:17Z</time>
      </trkpt>
      <trkpt lat="49.07636" lon="6.88434">
        <ele>244.1</ele>
        <time>2014-11-19T08:46:22Z</time>
      </trkpt>
      <trkpt lat="49.07641" lon="6.88433">
        <ele>244.3</ele>
        <time>2014-11-19T08:46:27Z</time>
      </trkpt>
      <trkpt lat="49.07645" lon="6.88431">
        <ele>244.5</ele>
        <time>2014-11-19T08:46:32Z</time>
      </trkpt>
      <trkpt lat="49.07653" lon="6.88429">
        <ele>245.2</ele>
        <time>2014-11-19T08:46:37Z</time>
      </trkpt>
      <trkpt lat="49.07662" lon="6.88427">
        <ele>245.5</ele>
        <time>2014-11-19T08:46:42Z</time>
      </trkpt>
      <trkpt lat="49.0767" lon="6.88426">
        <ele>245.9</ele>
        <time>2014-11-19T08:46:47Z</time>
      </trkpt>
      <trkpt lat="49.07677" lon="6.88423">
        <ele>246.5</ele>
        <time>2014-11-19T08:46:52Z</time>
      </trkpt>
      <trkpt lat="49.07683" lon="6.8842">
        <ele>247.3</ele>
        <time>2014-11-19T08:46:57Z</time>
      </trkpt>
      <trkpt lat="49.0769" lon="6.88417">
        <ele>247.7</ele>
        <time>2014-11-19T08:47:02Z</time>
      </trkpt>
      <trkpt lat="49.07697" lon="6.88413">
        <ele>248.7</ele>
        <time>2014-11-19T08:47:07Z</time>
      </trkpt>
      <trkpt lat="49.07703" lon="6.8841">
        <ele>249.3</ele>
        <time>2014-11-19T08:47:12Z</time>
      </trkpt>
      <trkpt lat="49.07707" lon="6.88406">
        <ele>250.1</ele>
        <time>2014-11-19T08:47:17Z</time>
      </trkpt>
      <trkpt lat="49.07714" lon="6.88402">
        <ele>250.5</ele>
        <time>2014-11-19T08:47:22Z</time>
      </trkpt>
      <trkpt lat="49.0772" lon="6.88398">
        <ele>250.8</ele>
        <time>2014-11-19T08:47:27Z</time>
      </trkpt>
      <trkpt lat="49.07726" lon="6.88393">
        <ele>251.2</ele>
        <time>2014-11-19T08:47:32Z</time>
      </trkpt>
      <trkpt lat="49.07731" lon="6.88387">
        <ele>251.5</ele>
        <time>2014-11-19T08:47:37Z</time>
      </trkpt>
      <trkpt lat="49.07736" lon="6.88382">
        <ele>251.8</ele>
        <time>2014-11-19T08:47:42Z</time>
      </trkpt>
      <trkpt lat="49.07742" lon="6.88377">
        <ele>252.1</ele>
        <time>2014-11-19T08:47:47Z</time>
      </trkpt>
      <trkpt lat="49.07748" lon="6.88374">
        <ele>252.2</ele>
        <time>2014-11-19T08:47:52Z</time>
      </trkpt>
      <trkpt lat="49.07755" lon="6.88372">
        <ele>252.6</ele>
        <time>2014-11-19T08:47:57Z</time>
      </trkpt>
      <trkpt lat="49.07759" lon="6.88371">
        <ele>253.1</ele>
        <time>2014-11-19T08:48:02Z</time>
      </trkpt>
      <trkpt lat="49.07765" lon="6.8837">
        <ele>253.2</ele>
        <time>2014-11-19T08:48:07Z</time>
      </trkpt>
      <trkpt lat="49.07771" lon="6.88371">
        <ele>253.8</ele>
        <time>2014-11-19T08:48:12Z</time>
      </trkpt>
      <trkpt lat="49.07779" lon="6.88371">
        <ele>254.2</ele>
        <time>2014-11-19T08:48:17Z</time>
      </trkpt>
      <trkpt lat="49.07784" lon="6.88372">
        <ele>254.7</ele>
        <time>2014-11-19T08:48:22Z</time>
      </trkpt>
      <trkpt lat="49.07793" lon="6.88373">
        <ele>254.8</ele>
        <time>2014-11-19T08:48:27Z</time>
      </trkpt>
      <trkpt lat="49.07799" lon="6.88374">
        <ele>254.9</ele>
        <time>2014-11-19T08:48:32Z</time>
      </trkpt>
      <trkpt lat="49.0781" lon="6.88377">
        <ele>254.9</ele>
        <time>2014-11-19T08:48:37Z</time>
      </trkpt>
      <trkpt lat="49.07816" lon="6.88376">
        <ele>255</ele>
        <time>2014-11-19T08:48:42Z</time>
      </trkpt>
      <trkpt lat="49.07823" lon="6.88375">
        <ele>255</ele>
        <time>2014-11-19T08:48:47Z</time>
      </trkpt>
      <trkpt lat="49.07829" lon="6.88376">
        <ele>255</ele>
        <time>2014-11-19T08:48:52Z</time>
      </trkpt>
      <trkpt lat="49.07837" lon="6.88376">
        <ele>255</ele>
        <time>2014-11-19T08:48:57Z</time>
      </trkpt>
      <trkpt lat="49.07843" lon="6.88376">
        <ele>255</ele>
        <time>2014-11-19T08:49:02Z</time>
      </trkpt>
      <trkpt lat="49.07849" lon="6.88377">
        <ele>255.2</ele>
        <time>2014-11-19T08:49:07Z</time>
      </trkpt>
      <trkpt lat="49.07856" lon="6.88377">
        <ele>255.3</ele>
        <time>2014-11-19T08:49:12Z</time>
      </trkpt>
      <trkpt lat="49.07862" lon="6.88378">
        <ele>255.4</ele>
        <time>2014-11-19T08:49:17Z</time>
      </trkpt>
      <trkpt lat="49.07869" lon="6.88379">
        <ele>255.4</ele>
        <time>2014-11-19T08:49:22Z</time>
      </trkpt>
      <trkpt lat="49.07876" lon="6.88379">
        <ele>255.6</ele>
        <time>2014-11-19T08:49:27Z</time>
      </trkpt>
      <trkpt lat="49.07884" lon="6.88381">
        <ele>255.8</ele>
        <time>2014-11-19T08:49:32Z</time>
      </trkpt>
      <trkpt lat="49.07891" lon="6.88384">
        <ele>255.8</ele>
        <time>2014-11-19T08:49:37Z</time>
      </trkpt>
      <trkpt lat="49.07897" lon="6.88386">
        <ele>255.9</ele>
        <time>2014-11-19T08:49:42Z</time>
      </trkpt>
      <trkpt lat="49.07903" lon="6.88389">
        <ele>256</ele>
        <time>2014-11-19T08:49:47Z</time>
      </trkpt>
      <trkpt lat="49.0791" lon="6.88394">
        <ele>256.4</ele>
        <time>2014-11-19T08:49:52Z</time>
      </trkpt>
      <trkpt lat="49.07917" lon="6.88397">
        <ele>256.9</ele>
        <time>2014-11-19T08:49:57Z</time>
      </trkpt>
      <trkpt lat="49.07924" lon="6.88399">
        <ele>257.1</ele>
        <time>2014-11-19T08:50:02Z</time>
      </trkpt>
      <trkpt lat="49.07933" lon="6.88401">
        <ele>257.1</ele>
        <time>2014-11-19T08:50:07Z</time>
      </trkpt>
      <trkpt lat="49.07941" lon="6.88404">
        <ele>257.2</ele>
        <time>2014-11-19T08:50:12Z</time>
      </trkpt>
      <trkpt lat="49.07948" lon="6.88407">
        <ele>257.2</ele>
        <time>2014-11-19T08:50:17Z</time>
      </trkpt>
      <trkpt lat="49.07957" lon="6.88408">
        <ele>257.2</ele>
        <time>2014-11-19T08:50:22Z</time>
      </trkpt>
      <trkpt lat="49.07963" lon="6.88411">
        <ele>257.2</ele>
        <time>2014-11-19T08:50:27Z</time>
      </trkpt>
      <trkpt lat="49.07968" lon="6.88415">
        <ele>257.2</ele>
        <time>2014-11-19T08:50:32Z</time>
      </trkpt>
      <trkpt lat="49.07975" lon="6.88418">
        <ele>257.2</ele>
        <time>2014-11-19T08:50:37Z</time>
      </trkpt>
      <trkpt lat="49.0798" lon="6.88421">
        <ele>257.2</ele>
        <time>2014-11-19T08:50:42Z</time>
      </trkpt>
      <trkpt lat="49.07985" lon="6.88426">
        <ele>256.5</ele>
        <time>2014-11-19T08:50:47Z</time>
      </trkpt>
      <trkpt lat="49.07992" lon="6.8843">
        <ele>256.2</ele>
        <time>2014-11-19T08:50:52Z</time>
      </trkpt>
      <trkpt lat="49.07998" lon="6.88436">
        <ele>256.1</ele>
        <time>2014-11-19T08:50:57Z</time>
      </trkpt>
      <trkpt lat="49.08004" lon="6.88441">
        <ele>256.1</ele>
        <time>2014-11-19T08:51:02Z</time>
      </trkpt>
      <trkpt lat="49.0801" lon="6.88447">
        <ele>256.1</ele>
        <time>2014-11-19T08:51:07Z</time>
      </trkpt>
      <trkpt lat="49.08015" lon="6.88452">
        <ele>256.1</ele>
        <time>2014-11-19T08:51:12Z</time>
      </trkpt>
      <trkpt lat="49.08021" lon="6.88456">
        <ele>256.1</ele>
        <time>2014-11-19T08:51:17Z</time>
      </trkpt>
      <trkpt lat="49.08027" lon="6.88461">
        <ele>255.9</ele>
        <time>2014-11-19T08:51:22Z</time>
      </trkpt>
      <trkpt lat="49.08034" lon="6.88464">
        <ele>255.8</ele>
        <time>2014-11-19T08:51:27Z</time>
      </trkpt>
      <trkpt lat="49.08039" lon="6.88469">
        <ele>255.7</ele>
        <time>2014-11-19T08:51:32Z</time>
      </trkpt>
      <trkpt lat="49.08045" lon="6.88473">
        <ele>255.5</ele>
        <time>2014-11-19T08:51:37Z</time>
      </trkpt>
      <trkpt lat="49.08051" lon="6.88479">
        <ele>255.4</ele>
        <time>2014-11-19T08:51:42Z</time>
      </trkpt>
      <trkpt lat="49.08057" lon="6.88484">
        <ele>254.6</ele>
        <time>2014-11-19T08:51:47Z</time>
      </trkpt>
      <trkpt lat="49.08066" lon="6.88489">
        <ele>254.2</ele>
        <time>2014-11-19T08:51:52Z</time>
      </trkpt>
      <trkpt lat="49.08071" lon="6.88492">
        <ele>254.1</ele>
        <time>2014-11-19T08:51:57Z</time>
      </trkpt>
      <trkpt lat="49.08077" lon="6.88497">
        <ele>254</ele>
        <time>2014-11-19T08:52:02Z</time>
      </trkpt>
      <trkpt lat="49.08083" lon="6.88501">
        <ele>253.9</ele>
        <time>2014-11-19T08:52:07Z</time>
      </trkpt>
      <trkpt lat="49.08088" lon="6.88507">
        <ele>253.6</ele>
        <time>2014-11-19T08:52:12Z</time>
      </trkpt>
      <trkpt lat="49.08094" lon="6.88512">
        <ele>253</ele>
        <time>2014-11-19T08:52:17Z</time>
      </trkpt>
      <trkpt lat="49.081" lon="6.88518">
        <ele>252.7</ele>
        <time>2014-11-19T08:52:22Z</time>
      </trkpt>
      <trkpt lat="49.08109" lon="6.88521">
        <ele>252</ele>
        <time>2014-11-19T08:52:27Z</time>
      </trkpt>
      <trkpt lat="49.08116" lon="6.88526">
        <ele>251.5</ele>
        <time>2014-11-19T08:52:32Z</time>
      </trkpt>
      <trkpt lat="49.08123" lon="6.88529">
        <ele>251</ele>
        <time>2014-11-19T08:52:37Z</time>
      </trkpt>
      <trkpt lat="49.08129" lon="6.88534">
        <ele>250.5</ele>
        <time>2014-11-19T08:52:42Z</time>
      </trkpt>
      <trkpt lat="49.08136" lon="6.88539">
        <ele>250</ele>
        <time>2014-11-19T08:52:47Z</time>
      </trkpt>
      <trkpt lat="49.08142" lon="6.88545">
        <ele>249.4</ele>
        <time>2014-11-19T08:52:52Z</time>
      </trkpt>
      <trkpt lat="49.08149" lon="6.88548">
        <ele>248.8</ele>
        <time>2014-11-19T08:52:57Z</time>
      </trkpt>
      <trkpt lat="49.08156" lon="6.88553">
        <ele>248.3</ele>
        <time>2014-11-19T08:53:02Z</time>
      </trkpt>
      <trkpt lat="49.08163" lon="6.88559">
        <ele>247.4</ele>
        <time>2014-11-19T08:53:07Z</time>
      </trkpt>
      <trkpt lat="49.08169" lon="6.88565">
        <ele>246.9</ele>
        <time>2014-11-19T08:53:12Z</time>
      </trkpt>
      <trkpt lat="49.08176" lon="6.88568">
        <ele>246</ele>
        <time>2014-11-19T08:53:17Z</time>
      </trkpt>
      <trkpt lat="49.08184" lon="6.88572">
        <ele>245.3</ele>
        <time>2014-11-19T08:53:22Z</time>
      </trkpt>
      <trkpt lat="49.08192" lon="6.88574">
        <ele>244.5</ele>
        <time>2014-11-19T08:53:27Z</time>
      </trkpt>
      <trkpt lat="49.08201" lon="6.88576">
        <ele>244.1</ele>
        <time>2014-11-19T08:53:32Z</time>
      </trkpt>
      <trkpt lat="49.08207" lon="6.88577">
        <ele>243.2</ele>
        <time>2014-11-19T08:53:37Z</time>
      </trkpt>
      <trkpt lat="49.08214" lon="6.88577">
        <ele>242.5</ele>
        <time>2014-11-19T08:53:42Z</time>
      </trkpt>
      <trkpt lat="49.08219" lon="6.88577">
        <ele>242.2</ele>
        <time>2014-11-19T08:53:47Z</time>
      </trkpt>
      <trkpt lat="49.08224" lon="6.88578">
        <ele>241.8</ele>
        <time>2014-11-19T08:53:52Z</time>
      </trkpt>
      <trkpt lat="49.0823" lon="6.88576">
        <ele>241.3</ele>
        <time>2014-11-19T08:53:57Z</time>
      </trkpt>
      <trkpt lat="49.08235" lon="6.88574">
        <ele>241</ele>
        <time>2014-11-19T08:54:02Z</time>
      </trkpt>
      <trkpt lat="49.08242" lon="6.88572">
        <ele>240.8</ele>
        <time>2014-11-19T08:54:07Z</time>
      </trkpt>
      <trkpt lat="49.0825" lon="6.88572">
        <ele>240.4</ele>
        <time>2014-11-19T08:54:12Z</time>
      </trkpt>
      <trkpt lat="49.08259" lon="6.88569">
        <ele>240</ele>
        <time>2014-11-19T08:54:17Z</time>
      </trkpt>
      <trkpt lat="49.08265" lon="6.88564">
        <ele>239.5</ele>
        <time>2014-11-19T08:54:22Z</time>
      </trkpt>
      <trkpt lat="49.08271" lon="6.8856">
        <ele>238.7</ele>
        <time>2014-11-19T08:54:27Z</time>
      </trkpt>
      <trkpt lat="49.08277" lon="6.88555">
        <ele>238.2</ele>
        <time>2014-11-19T08:54:32Z</time>
      </trkpt>
      <trkpt lat="49.08283" lon="6.88549">
        <ele>237.9</ele>
        <time>2014-11-19T08:54:37Z</time>
      </trkpt>
      <trkpt lat="49.08288" lon="6.88542">
        <ele>237.8</ele>
        <time>2014-11-19T08:54:42Z</time>
      </trkpt>
      <trkpt lat="49.08294" lon="6.88536">
        <ele>237.8</ele>
        <time>2014-11-19T08:54:47Z</time>
      </trkpt>
      <trkpt lat="49.08301" lon="6.8853">
        <ele>237.7</ele>
        <time>2014-11-19T08:54:52Z</time>
      </trkpt>
      <trkpt lat="49.08307" lon="6.88523">
        <ele>237.5</ele>
        <time>2014-11-19T08:54:57Z</time>
      </trkpt>
      <trkpt lat="49.08313" lon="6.88517">
        <ele>237.3</ele>
        <time>2014-11-19T08:55:02Z</time>
      </trkpt>
      <trkpt lat="49.08319" lon="6.88511">
        <ele>237.2</ele>
        <time>2014-11-19T08:55:07Z</time>
      </trkpt>
      <trkpt lat="49.08325" lon="6.88506">
        <ele>237.2</ele>
        <time>2014-11-19T08:55:12Z</time>
      </trkpt>
      <trkpt lat="49.08332" lon="6.88503">
        <ele>237.1</ele>
        <time>2014-11-19T08:55:17Z</time>
      </trkpt>
      <trkpt lat="49.08338" lon="6.88498">
        <ele>237</ele>
        <time>2014-11-19T08:55:22Z</time>
      </trkpt>
      <trkpt lat="49.08344" lon="6.88495">
        <ele>237</ele>
        <time>2014-11-19T08:55:27Z</time>
      </trkpt>
      <trkpt lat="49.08351" lon="6.8849">
        <ele>236.9</ele>
        <time>2014-11-19T08:55:32Z</time>
      </trkpt>
      <trkpt lat="49.08356" lon="6.88486">
        <ele>236.8</ele>
        <time>2014-11-19T08:55:37Z</time>
      </trkpt>
      <trkpt lat="49.08363" lon="6.88486">
        <ele>236.8</ele>
        <time>2014-11-19T08:55:42Z</time>
      </trkpt>
      <trkpt lat="49.08369" lon="6.88487">
        <ele>236.6</ele>
        <time>2014-11-19T08:55:47Z</time>
      </trkpt>
      <trkpt lat="49.08376" lon="6.88487">
        <ele>236.5</ele>
        <time>2014-11-19T08:55:52Z</time>
      </trkpt>
      <trkpt lat="49.08382" lon="6.88488">
        <ele>236.5</ele>
        <time>2014-11-19T08:55:57Z</time>
      </trkpt>
      <trkpt lat="49.08392" lon="6.88488">
        <ele>236.5</ele>
        <time>2014-11-19T08:56:02Z</time>
      </trkpt>
      <trkpt lat="49.08397" lon="6.88488">
        <ele>236.5</ele>
        <time>2014-11-19T08:56:07Z</time>
      </trkpt>
      <trkpt lat="49.08403" lon="6.88488">
        <ele>236.5</ele>
        <time>2014-11-19T08:56:12Z</time>
      </trkpt>
      <trkpt lat="49.0841" lon="6.8849">
        <ele>236.5</ele>
        <time>2014-11-19T08:56:17Z</time>
      </trkpt>
      <trkpt lat="49.08417" lon="6.88492">
        <ele>236.5</ele>
        <time>2014-11-19T08:56:22Z</time>
      </trkpt>
      <trkpt lat="49.08425" lon="6.88498">
        <ele>236.5</ele>
        <time>2014-11-19T08:56:27Z</time>
      </trkpt>
      <trkpt lat="49.08433" lon="6.88504">
        <ele>236.5</ele>
        <time>2014-11-19T08:56:32Z</time>
      </trkpt>
      <trkpt lat="49.0844" lon="6.88508">
        <ele>236.5</ele>
        <time>2014-11-19T08:56:37Z</time>
      </trkpt>
      <trkpt lat="49.08446" lon="6.88513">
        <ele>236.9</ele>
        <time>2014-11-19T08:56:42Z</time>
      </trkpt>
      <trkpt lat="49.08452" lon="6.88516">
        <ele>237.3</ele>
        <time>2014-11-19T08:56:47Z</time>
      </trkpt>
      <trkpt lat="49.08457" lon="6.8852">
        <ele>237.6</ele>
        <time>2014-11-19T08:56:52Z</time>
      </trkpt>
      <trkpt lat="49.08462" lon="6.88523">
        <ele>238.1</ele>
        <time>2014-11-19T08:56:57Z</time>
      </trkpt>
      <trkpt lat="49.08467" lon="6.88528">
        <ele>238.4</ele>
        <time>2014-11-19T08:57:02Z</time>
      </trkpt>
      <trkpt lat="49.08473" lon="6.88532">
        <ele>238.8</ele>
        <time>2014-11-19T08:57:07Z</time>
      </trkpt>
      <trkpt lat="49.08478" lon="6.88537">
        <ele>239.2</ele>
        <time>2014-11-19T08:57:12Z</time>
      </trkpt>
      <trkpt lat="49.08482" lon="6.88543">
        <ele>239.8</ele>
        <time>2014-11-19T08:57:17Z</time>
      </trkpt>
      <trkpt lat="49.08486" lon="6.88547">
        <ele>240.4</ele>
        <time>2014-11-19T08:57:22Z</time>
      </trkpt>
      <trkpt lat="49.08493" lon="6.88549">
        <ele>241</ele>
        <time>2014-11-19T08:57:27Z</time>
      </trkpt>
      <trkpt lat="49.085" lon="6.88553">
        <ele>241.5</ele>
        <time>2014-11-19T08:57:32Z</time>
      </trkpt>
      <trkpt lat="49.08508" lon="6.8856">
        <ele>242.3</ele>
        <time>2014-11-19T08:57:37Z</time>
      </trkpt>
      <trkpt lat="49.08514" lon="6.88566">
        <ele>242.9</ele>
        <time>2014-11-19T08:57:42Z</time>
      </trkpt>
      <trkpt lat="49.08519" lon="6.88572">
        <ele>243.4</ele>
        <time>2014-11-19T08:57:47Z</time>
      </trkpt>
      <trkpt lat="49.08524" lon="6.88578">
        <ele>244</ele>
        <time>2014-11-19T08:57:52Z</time>
      </trkpt>
      <trkpt lat="49.0853" lon="6.88584">
        <ele>244.8</ele>
        <time>2014-11-19T08:57:57Z</time>
      </trkpt>
      <trkpt lat="49.08537" lon="6.88589">
        <ele>245</ele>
        <time>2014-11-19T08:58:02Z</time>
      </trkpt>
      <trkpt lat="49.08543" lon="6.88596">
        <ele>245.1</ele>
        <time>2014-11-19T08:58:07Z</time>
      </trkpt>
      <trkpt lat="49.08551" lon="6.88599">
        <ele>245.1</ele>
        <time>2014-11-19T08:58:12Z</time>
      </trkpt>
      <trkpt lat="49.08557" lon="6.88604">
        <ele>245.1</ele>
        <time>2014-11-19T08:58:17Z</time>
      </trkpt>
      <trkpt lat="49.08564" lon="6.88606">
        <ele>244.9</ele>
        <time>2014-11-19T08:58:22Z</time>
      </trkpt>
      <trkpt lat="49.0857" lon="6.88612">
        <ele>244.6</ele>
        <time>2014-11-19T08:58:27Z</time>
      </trkpt>
      <trkpt lat="49.08577" lon="6.88619">
        <ele>244.2</ele>
        <time>2014-11-19T08:58:32Z</time>
      </trkpt>
      <trkpt lat="49.08582" lon="6.88628">
        <ele>243.7</ele>
        <time>2014-11-19T08:58:37Z</time>
      </trkpt>
      <trkpt lat="49.08589" lon="6.88634">
        <ele>242.8</ele>
        <time>2014-11-19T08:58:42Z</time>
      </trkpt>
      <trkpt lat="49.08593" lon="6.88642">
        <ele>242.4</ele>
        <time>2014-11-19T08:58:47Z</time>
      </trkpt>
      <trkpt lat="49.08598" lon="6.8865">
        <ele>242.1</ele>
        <time>2014-11-19T08:58:52Z</time>
      </trkpt>
      <trkpt lat="49.08602" lon="6.88656">
        <ele>242</ele>
        <time>2014-11-19T08:58:57Z</time>
      </trkpt>
      <trkpt lat="49.08607" lon="6.88663">
        <ele>242</ele>
        <time>2014-11-19T08:59:02Z</time>
      </trkpt>
      <trkpt lat="49.0861" lon="6.8867">
        <ele>241.8</ele>
        <time>2014-11-19T08:59:07Z</time>
      </trkpt>
      <trkpt lat="49.08615" lon="6.88666">
        <ele>241.5</ele>
        <time>2014-11-19T08:59:12Z</time>
      </trkpt>
      <trkpt lat="49.08622" lon="6.88657">
        <ele>241.5</ele>
        <time>2014-11-19T08:59:17Z</time>
      </trkpt>
      <trkpt lat="49.08625" lon="6.88646">
        <ele>241.5</ele>
        <time>2014-11-19T08:59:22Z</time>
      </trkpt>
      <trkpt lat="49.08627" lon="6.88636">
        <ele>241.5</ele>
        <time>2014-11-19T08:59:27Z</time>
      </trkpt>
      <trkpt lat="49.08629" lon="6.88625">
        <ele>241.5</ele>
        <time>2014-11-19T08:59:32Z</time>
      </trkpt>
      <trkpt lat="49.08633" lon="6.88615">
        <ele>241.5</ele>
        <time>2014-11-19T08:59:37Z</time>
      </trkpt>
      <trkpt lat="49.08635" lon="6.88603">
        <ele>241.5</ele>
        <time>2014-11-19T08:59:42Z</time>
      </trkpt>
      <trkpt lat="49.0864" lon="6.88592">
        <ele>241.4</ele>
        <time>2014-11-19T08:59:47Z</time>
      </trkpt>
      <trkpt lat="49.08643" lon="6.88584">
        <ele>241.4</ele>
        <time>2014-11-19T08:59:52Z</time>
      </trkpt>
      <trkpt lat="49.08645" lon="6.88575">
        <ele>241.4</ele>
        <time>2014-11-19T08:59:57Z</time>
      </trkpt>
      <trkpt lat="49.08648" lon="6.88566">
        <ele>241.4</ele>
        <time>2014-11-19T09:00:02Z</time>
      </trkpt>
      <trkpt lat="49.08649" lon="6.88556">
        <ele>241.4</ele>
        <time>2014-11-19T09:00:07Z</time>
      </trkpt>
      <trkpt lat="49.08651" lon="6.88546">
        <ele>241.4</ele>
        <time>2014-11-19T09:00:12Z</time>
      </trkpt>
      <trkpt lat="49.08654" lon="6.88535">
        <ele>241.4</ele>
        <time>2014-11-19T09:00:17Z</time>
      </trkpt>
      <trkpt lat="49.08658" lon="6.88525">
        <ele>241.3</ele>
        <time>2014-11-19T09:00:22Z</time>
      </trkpt>
      <trkpt lat="49.08661" lon="6.88516">
        <ele>241.1</ele>
        <time>2014-11-19T09:00:27Z</time>
      </trkpt>
      <trkpt lat="49.08664" lon="6.88508">
        <ele>241.1</ele>
        <time>2014-11-19T09:00:32Z</time>
      </trkpt>
      <trkpt lat="49.08665" lon="6.885">
        <ele>241</ele>
        <time>2014-11-19T09:00:37Z</time>
      </trkpt>
      <trkpt lat="49.08668" lon="6.8849">
        <ele>241</ele>
        <time>2014-11-19T09:00:42Z</time>
      </trkpt>
      <trkpt lat="49.08671" lon="6.8848">
        <ele>241</ele>
        <time>2014-11-19T09:00:47Z</time>
      </trkpt>
      <trkpt lat="49.08673" lon="6.88469">
        <ele>241</ele>
        <time>2014-11-19T09:00:52Z</time>
      </trkpt>
      <trkpt lat="49.08677" lon="6.88459">
        <ele>241</ele>
        <time>2014-11-19T09:00:57Z</time>
      </trkpt>
      <trkpt lat="49.0868" lon="6.88448">
        <ele>241</ele>
        <time>2014-11-19T09:01:02Z</time>
      </trkpt>
      <trkpt lat="49.08682" lon="6.88437">
        <ele>241</ele>
        <time>2014-11-19T09:01:07Z</time>
      </trkpt>
      <trkpt lat="49.08684" lon="6.88429">
        <ele>241</ele>
        <time>2014-11-19T09:01:12Z</time>
      </trkpt>
      <trkpt lat="49.08686" lon="6.8842">
        <ele>241</ele>
        <time>2014-11-19T09:01:17Z</time>
      </trkpt>
      <trkpt lat="49.08688" lon="6.88411">
        <ele>241</ele>
        <time>2014-11-19T09:01:22Z</time>
      </trkpt>
      <trkpt lat="49.08689" lon="6.88403">
        <ele>241</ele>
        <time>2014-11-19T09:01:27Z</time>
      </trkpt>
      <trkpt lat="49.08691" lon="6.88394">
        <ele>241</ele>
        <time>2014-11-19T09:01:32Z</time>
      </trkpt>
      <trkpt lat="49.08694" lon="6.88383">
        <ele>241</ele>
        <time>2014-11-19T09:01:37Z</time>
      </trkpt>
      <trkpt lat="49.08698" lon="6.88371">
        <ele>241</ele>
        <time>2014-11-19T09:01:42Z</time>
      </trkpt>
      <trkpt lat="49.087" lon="6.8836">
        <ele>241</ele>
        <time>2014-11-19T09:01:47Z</time>
      </trkpt>
      <trkpt lat="49.08704" lon="6.88351">
        <ele>241</ele>
        <time>2014-11-19T09:01:52Z</time>
      </trkpt>
      <trkpt lat="49.08707" lon="6.88342">
        <ele>241</ele>
        <time>2014-11-19T09:01:57Z</time>
      </trkpt>
      <trkpt lat="49.08711" lon="6.88334">
        <ele>241</ele>
        <time>2014-11-19T09:02:02Z</time>
      </trkpt>
      <trkpt lat="49.08714" lon="6.88326">
        <ele>241</ele>
        <time>2014-11-19T09:02:07Z</time>
      </trkpt>
      <trkpt lat="49.08719" lon="6.88319">
        <ele>241</ele>
        <time>2014-11-19T09:02:12Z</time>
      </trkpt>
      <trkpt lat="49.08727" lon="6.88312">
        <ele>241</ele>
        <time>2014-11-19T09:02:17Z</time>
      </trkpt>
      <trkpt lat="49.08732" lon="6.88307">
        <ele>241</ele>
        <time>2014-11-19T09:02:22Z</time>
      </trkpt>
      <trkpt lat="49.08736" lon="6.88304">
        <ele>241</ele>
        <time>2014-11-19T09:02:27Z</time>
      </trkpt>
      <trkpt lat="49.08744" lon="6.88301">
        <ele>241</ele>
        <time>2014-11-19T09:02:32Z</time>
      </trkpt>
      <trkpt lat="49.08748" lon="6.883">
        <ele>241</ele>
        <time>2014-11-19T09:02:37Z</time>
      </trkpt>
      <trkpt lat="49.08754" lon="6.88298">
        <ele>241</ele>
        <time>2014-11-19T09:02:42Z</time>
      </trkpt>
      <trkpt lat="49.08762" lon="6.88298">
        <ele>241</ele>
        <time>2014-11-19T09:02:47Z</time>
      </trkpt>
      <trkpt lat="49.08771" lon="6.88296">
        <ele>241</ele>
        <time>2014-11-19T09:02:52Z</time>
      </trkpt>
      <trkpt lat="49.08777" lon="6.88294">
        <ele>241</ele>
        <time>2014-11-19T09:02:57Z</time>
      </trkpt>
      <trkpt lat="49.08784" lon="6.88291">
        <ele>241</ele>
        <time>2014-11-19T09:03:02Z</time>
      </trkpt>
      <trkpt lat="49.08791" lon="6.88289">
        <ele>241</ele>
        <time>2014-11-19T09:03:07Z</time>
      </trkpt>
      <trkpt lat="49.08799" lon="6.88284">
        <ele>241</ele>
        <time>2014-11-19T09:03:12Z</time>
      </trkpt>
      <trkpt lat="49.08801" lon="6.88274">
        <ele>241</ele>
        <time>2014-11-19T09:03:17Z</time>
      </trkpt>
      <trkpt lat="49.08807" lon="6.88265">
        <ele>240.9</ele>
        <time>2014-11-19T09:03:22Z</time>
      </trkpt>
      <trkpt lat="49.08811" lon="6.88256">
        <ele>240.9</ele>
        <time>2014-11-19T09:03:27Z</time>
      </trkpt>
      <trkpt lat="49.08816" lon="6.88248">
        <ele>240.9</ele>
        <time>2014-11-19T09:03:32Z</time>
      </trkpt>
      <trkpt lat="49.08821" lon="6.88241">
        <ele>240.9</ele>
        <time>2014-11-19T09:03:37Z</time>
      </trkpt>
      <trkpt lat="49.08824" lon="6.88235">
        <ele>240.9</ele>
        <time>2014-11-19T09:03:42Z</time>
      </trkpt>
      <trkpt lat="49.08828" lon="6.88231">
        <ele>240.9</ele>
        <time>2014-11-19T09:03:47Z</time>
      </trkpt>
      <trkpt lat="49.08832" lon="6.88224">
        <ele>240.9</ele>
        <time>2014-11-19T09:03:52Z</time>
      </trkpt>
      <trkpt lat="49.08838" lon="6.88215">
        <ele>240.9</ele>
        <time>2014-11-19T09:03:57Z</time>
      </trkpt>
      <trkpt lat="49.08842" lon="6.88207">
        <ele>240.9</ele>
        <time>2014-11-19T09:04:02Z</time>
      </trkpt>
      <trkpt lat="49.08845" lon="6.88199">
        <ele>240.9</ele>
        <time>2014-11-19T09:04:07Z</time>
      </trkpt>
      <trkpt lat="49.08851" lon="6.88191">
        <ele>240.9</ele>
        <time>2014-11-19T09:04:12Z</time>
      </trkpt>
      <trkpt lat="49.08857" lon="6.88185">
        <ele>240.9</ele>
        <time>2014-11-19T09:04:17Z</time>
      </trkpt>
      <trkpt lat="49.08866" lon="6.88179">
        <ele>240.9</ele>
        <time>2014-11-19T09:04:22Z</time>
      </trkpt>
      <trkpt lat="49.08871" lon="6.88176">
        <ele>240.9</ele>
        <time>2014-11-19T09:04:27Z</time>
      </trkpt>
      <trkpt lat="49.08877" lon="6.88172">
        <ele>240.9</ele>
        <time>2014-11-19T09:04:32Z</time>
      </trkpt>
      <trkpt lat="49.08883" lon="6.88168">
        <ele>240.9</ele>
        <time>2014-11-19T09:04:37Z</time>
      </trkpt>
      <trkpt lat="49.08889" lon="6.88164">
        <ele>240.9</ele>
        <time>2014-11-19T09:04:42Z</time>
      </trkpt>
      <trkpt lat="49.08896" lon="6.88159">
        <ele>240.9</ele>
        <time>2014-11-19T09:04:47Z</time>
      </trkpt>
      <trkpt lat="49.08902" lon="6.88154">
        <ele>240.9</ele>
        <time>2014-11-19T09:04:52Z</time>
      </trkpt>
      <trkpt lat="49.08906" lon="6.88152">
        <ele>240.9</ele>
        <time>2014-11-19T09:04:57Z</time>
      </trkpt>
      <trkpt lat="49.08909" lon="6.8815">
        <ele>240.9</ele>
        <time>2014-11-19T09:05:02Z</time>
      </trkpt>
      <trkpt lat="49.08916" lon="6.88145">
        <ele>240.9</ele>
        <time>2014-11-19T09:05:07Z</time>
      </trkpt>
      <trkpt lat="49.08921" lon="6.88142">
        <ele>240.9</ele>
        <time>2014-11-19T09:05:12Z</time>
      </trkpt>
      <trkpt lat="49.08927" lon="6.88139">
        <ele>240.9</ele>
        <time>2014-11-19T09:05:17Z</time>
      </trkpt>
      <trkpt lat="49.08933" lon="6.88133">
        <ele>240.9</ele>
        <time>2014-11-19T09:05:22Z</time>
      </trkpt>
      <trkpt lat="49.08938" lon="6.88129">
        <ele>240.9</ele>
        <time>2014-11-19T09:05:27Z</time>
      </trkpt>
      <trkpt lat="49.08944" lon="6.88124">
        <ele>240.8</ele>
        <time>2014-11-19T09:05:32Z</time>
      </trkpt>
      <trkpt lat="49.0895" lon="6.88119">
        <ele>240.6</ele>
        <time>2014-11-19T09:05:37Z</time>
      </trkpt>
      <trkpt lat="49.08956" lon="6.88112">
        <ele>240.6</ele>
        <time>2014-11-19T09:05:42Z</time>
      </trkpt>
      <trkpt lat="49.08961" lon="6.88107">
        <ele>240.5</ele>
        <time>2014-11-19T09:05:47Z</time>
      </trkpt>
      <trkpt lat="49.08968" lon="6.88102">
        <ele>240.5</ele>
        <time>2014-11-19T09:05:52Z</time>
      </trkpt>
      <trkpt lat="49.08975" lon="6.88099">
        <ele>240.5</ele>
        <time>2014-11-19T09:05:57Z</time>
      </trkpt>
      <trkpt lat="49.08982" lon="6.88096">
        <ele>240.5</ele>
        <time>2014-11-19T09:06:02Z</time>
      </trkpt>
      <trkpt lat="49.08988" lon="6.88095">
        <ele>240.5</ele>
        <time>2014-11-19T09:06:07Z</time>
      </trkpt>
      <trkpt lat="49.08996" lon="6.88096">
        <ele>240.6</ele>
        <time>2014-11-19T09:06:12Z</time>
      </trkpt>
      <trkpt lat="49.09004" lon="6.88099">
        <ele>240.8</ele>
        <time>2014-11-19T09:06:17Z</time>
      </trkpt>
      <trkpt lat="49.0901" lon="6.88105">
        <ele>240.8</ele>
        <time>2014-11-19T09:06:22Z</time>
      </trkpt>
      <trkpt lat="49.09013" lon="6.88113">
        <ele>240.8</ele>
        <time>2014-11-19T09:06:27Z</time>
      </trkpt>
      <trkpt lat="49.09014" lon="6.88122">
        <ele>240.8</ele>
        <time>2014-11-19T09:06:32Z</time>
      </trkpt>
      <trkpt lat="49.09016" lon="6.88128">
        <ele>240.8</ele>
        <time>2014-11-19T09:06:37Z</time>
      </trkpt>
      <trkpt lat="49.09018" lon="6.88132">
        <ele>240.8</ele>
        <time>2014-11-19T09:06:42Z</time>
      </trkpt>
      <trkpt lat="49.09019" lon="6.88133">
        <ele>240.8</ele>
        <time>2014-11-19T09:06:47Z</time>
      </trkpt>
      <trkpt lat="49.09025" lon="6.88133">
        <ele>240.8</ele>
        <time>2014-11-19T09:06:52Z</time>
      </trkpt>
      <trkpt lat="49.09032" lon="6.88131">
        <ele>240.8</ele>
        <time>2014-11-19T09:06:57Z</time>
      </trkpt>
      <trkpt lat="49.09039" lon="6.88126">
        <ele>240.8</ele>
        <time>2014-11-19T09:07:02Z</time>
      </trkpt>
      <trkpt lat="49.09044" lon="6.88123">
        <ele>240.8</ele>
        <time>2014-11-19T09:07:07Z</time>
      </trkpt>
      <trkpt lat="49.0905" lon="6.88118">
        <ele>240.8</ele>
        <time>2014-11-19T09:07:12Z</time>
      </trkpt>
      <trkpt lat="49.09056" lon="6.88113">
        <ele>240.8</ele>
        <time>2014-11-19T09:07:17Z</time>
      </trkpt>
      <trkpt lat="49.09063" lon="6.88107">
        <ele>240.9</ele>
        <time>2014-11-19T09:07:22Z</time>
      </trkpt>
      <trkpt lat="49.09066" lon="6.88098">
        <ele>241</ele>
        <time>2014-11-19T09:07:27Z</time>
      </trkpt>
      <trkpt lat="49.09067" lon="6.8809">
        <ele>241.1</ele>
        <time>2014-11-19T09:07:32Z</time>
      </trkpt>
      <trkpt lat="49.09071" lon="6.88082">
        <ele>241.2</ele>
        <time>2014-11-19T09:07:37Z</time>
      </trkpt>
      <trkpt lat="49.09077" lon="6.88082">
        <ele>241.2</ele>
        <time>2014-11-19T09:07:42Z</time>
      </trkpt>
      <trkpt lat="49.09083" lon="6.88084">
        <ele>241.2</ele>
        <time>2014-11-19T09:07:47Z</time>
      </trkpt>
      <trkpt lat="49.09089" lon="6.88085">
        <ele>241.2</ele>
        <time>2014-11-19T09:07:52Z</time>
      </trkpt>
      <trkpt lat="49.09096" lon="6.88087">
        <ele>241.4</ele>
        <time>2014-11-19T09:07:57Z</time>
      </trkpt>
      <trkpt lat="49.09104" lon="6.88088">
        <ele>241.6</ele>
        <time>2014-11-19T09:08:02Z</time>
      </trkpt>
      <trkpt lat="49.09112" lon="6.88088">
        <ele>241.6</ele>
        <time>2014-11-19T09:08:07Z</time>
      </trkpt>
      <trkpt lat="49.09118" lon="6.8809">
        <ele>241.8</ele>
        <time>2014-11-19T09:08:12Z</time>
      </trkpt>
      <trkpt lat="49.09125" lon="6.88089">
        <ele>241.9</ele>
        <time>2014-11-19T09:08:17Z</time>
      </trkpt>
      <trkpt lat="49.09131" lon="6.88088">
        <ele>242.1</ele>
        <time>2014-11-19T09:08:22Z</time>
      </trkpt>
      <trkpt lat="49.09139" lon="6.88087">
        <ele>242.6</ele>
        <time>2014-11-19T09:08:27Z</time>
      </trkpt>
      <trkpt lat="49.09146" lon="6.88085">
        <ele>242.8</ele>
        <time>2014-11-19T09:08:32Z</time>
      </trkpt>
      <trkpt lat="49.09152" lon="6.88081">
        <ele>243</ele>
        <time>2014-11-19T09:08:37Z</time>
      </trkpt>
      <trkpt lat="49.09159" lon="6.88076">
        <ele>243.6</ele>
        <time>2014-11-19T09:08:42Z</time>
      </trkpt>
      <trkpt lat="49.09166" lon="6.88072">
        <ele>243.9</ele>
        <time>2014-11-19T09:08:47Z</time>
      </trkpt>
      <trkpt lat="49.09174" lon="6.88068">
        <ele>244.1</ele>
        <time>2014-11-19T09:08:52Z</time>
      </trkpt>
      <trkpt lat="49.09181" lon="6.88064">
        <ele>244.6</ele>
        <time>2014-11-19T09:08:57Z</time>
      </trkpt>
      <trkpt lat="49.09187" lon="6.88064">
        <ele>245.1</ele>
        <time>2014-11-19T09:09:02Z</time>
      </trkpt>
      <trkpt lat="49.09193" lon="6.8807">
        <ele>245.4</ele>
        <time>2014-11-19T09:09:07Z</time>
      </trkpt>
      <trkpt lat="49.09198" lon="6.88077">
        <ele>245.5</ele>
        <time>2014-11-19T09:09:12Z</time>
      </trkpt>
      <trkpt lat="49.09204" lon="6.88082">
        <ele>245.9</ele>
        <time>2014-11-19T09:09:17Z</time>
      </trkpt>
      <trkpt lat="49.09209" lon="6.88088">
        <ele>246.2</ele>
        <time>2014-11-19T09:09:22Z</time>
      </trkpt>
      <trkpt lat="49.09214" lon="6.88094">
        <ele>246.3</ele>
        <time>2014-11-19T09:09:27Z</time>
      </trkpt>
      <trkpt lat="49.0922" lon="6.88101">
        <ele>246.5</ele>
        <time>2014-11-19T09:09:32Z</time>
      </trkpt>
      <trkpt lat="49.09226" lon="6.88108">
        <ele>246.5</ele>
        <time>2014-11-19T09:09:37Z</time>
      </trkpt>
      <trkpt lat="49.09231" lon="6.88114">
        <ele>246.8</ele>
        <time>2014-11-19T09:09:42Z</time>
      </trkpt>
      <trkpt lat="49.09237" lon="6.88121">
        <ele>247.1</ele>
        <time>2014-11-19T09:09:47Z</time>
      </trkpt>
      <trkpt lat="49.09242" lon="6.88126">
        <ele>247.2</ele>
        <time>2014-11-19T09:09:52Z</time>
      </trkpt>
      <trkpt lat="49.09248" lon="6.88131">
        <ele>247.5</ele>
        <time>2014-11-19T09:09:57Z</time>
      </trkpt>
      <trkpt lat="49.09254" lon="6.88137">
        <ele>247.5</ele>
        <time>2014-11-19T09:10:02Z</time>
      </trkpt>
      <trkpt lat="49.09259" lon="6.88142">
        <ele>248.1</ele>
        <time>2014-11-19T09:10:07Z</time>
      </trkpt>
      <trkpt lat="49.09264" lon="6.88148">
        <ele>248.4</ele>
        <time>2014-11-19T09:10:12Z</time>
      </trkpt>
      <trkpt lat="49.0927" lon="6.88155">
        <ele>248.5</ele>
        <time>2014-11-19T09:10:17Z</time>
      </trkpt>
      <trkpt lat="49.09275" lon="6.8816">
        <ele>249</ele>
        <time>2014-11-19T09:10:22Z</time>
      </trkpt>
      <trkpt lat="49.0928" lon="6.88161">
        <ele>249.8</ele>
        <time>2014-11-19T09:10:27Z</time>
      </trkpt>
      <trkpt lat="49.09282" lon="6.8816">
        <ele>250.6</ele>
        <time>2014-11-19T09:10:32Z</time>
      </trkpt>
      <trkpt lat="49.09282" lon="6.88159">
        <ele>250.9</ele>
        <time>2014-11-19T09:10:37Z</time>
      </trkpt>
      <trkpt lat="49.09282" lon="6.88159">
        <ele>250.9</ele>
        <time>2014-11-19T09:10:42Z</time>
      </trkpt>
      <trkpt lat="49.09282" lon="6.88159">
        <ele>251</ele>
        <time>2014-11-19T09:10:47Z</time>
      </trkpt>
      <trkpt lat="49.09286" lon="6.88157">
        <ele>251</ele>
        <time>2014-11-19T09:10:52Z</time>
      </trkpt>
      <trkpt lat="49.09289" lon="6.88148">
        <ele>251</ele>
        <time>2014-11-19T09:10:57Z</time>
      </trkpt>
      <trkpt lat="49.09289" lon="6.88139">
        <ele>251.1</ele>
        <time>2014-11-19T09:11:02Z</time>
      </trkpt>
      <trkpt lat="49.09289" lon="6.8813">
        <ele>251.1</ele>
        <time>2014-11-19T09:11:07Z</time>
      </trkpt>
      <trkpt lat="49.09288" lon="6.8812">
        <ele>251.2</ele>
        <time>2014-11-19T09:11:12Z</time>
      </trkpt>
      <trkpt lat="49.09288" lon="6.8811">
        <ele>251.3</ele>
        <time>2014-11-19T09:11:17Z</time>
      </trkpt>
      <trkpt lat="49.09289" lon="6.881">
        <ele>251.5</ele>
        <time>2014-11-19T09:11:22Z</time>
      </trkpt>
      <trkpt lat="49.0929" lon="6.88089">
        <ele>251.5</ele>
        <time>2014-11-19T09:11:27Z</time>
      </trkpt>
      <trkpt lat="49.0929" lon="6.88077">
        <ele>251.6</ele>
        <time>2014-11-19T09:11:32Z</time>
      </trkpt>
      <trkpt lat="49.0929" lon="6.88068">
        <ele>251.6</ele>
        <time>2014-11-19T09:11:37Z</time>
      </trkpt>
      <trkpt lat="49.0929" lon="6.88057">
        <ele>251.6</ele>
        <time>2014-11-19T09:11:42Z</time>
      </trkpt>
      <trkpt lat="49.09291" lon="6.88046">
        <ele>251.6</ele>
        <time>2014-11-19T09:11:47Z</time>
      </trkpt>
      <trkpt lat="49.09292" lon="6.88036">
        <ele>251.8</ele>
        <time>2014-11-19T09:11:52Z</time>
      </trkpt>
      <trkpt lat="49.09294" lon="6.88025">
        <ele>252</ele>
        <time>2014-11-19T09:11:57Z</time>
      </trkpt>
      <trkpt lat="49.09296" lon="6.88019">
        <ele>252.1</ele>
        <time>2014-11-19T09:12:02Z</time>
      </trkpt>
      <trkpt lat="49.09299" lon="6.88009">
        <ele>252.3</ele>
        <time>2014-11-19T09:12:07Z</time>
      </trkpt>
      <trkpt lat="49.09299" lon="6.87999">
        <ele>252.4</ele>
        <time>2014-11-19T09:12:12Z</time>
      </trkpt>
      <trkpt lat="49.09301" lon="6.87989">
        <ele>252.4</ele>
        <time>2014-11-19T09:12:17Z</time>
      </trkpt>
      <trkpt lat="49.09303" lon="6.87978">
        <ele>252.4</ele>
        <time>2014-11-19T09:12:22Z</time>
      </trkpt>
      <trkpt lat="49.09305" lon="6.87969">
        <ele>252.4</ele>
        <time>2014-11-19T09:12:27Z</time>
      </trkpt>
      <trkpt lat="49.09307" lon="6.8796">
        <ele>252.7</ele>
        <time>2014-11-19T09:12:32Z</time>
      </trkpt>
      <trkpt lat="49.0931" lon="6.8795">
        <ele>252.9</ele>
        <time>2014-11-19T09:12:37Z</time>
      </trkpt>
      <trkpt lat="49.09314" lon="6.87941">
        <ele>253.3</ele>
        <time>2014-11-19T09:12:42Z</time>
      </trkpt>
      <trkpt lat="49.09317" lon="6.87933">
        <ele>253.8</ele>
        <time>2014-11-19T09:12:47Z</time>
      </trkpt>
      <trkpt lat="49.09319" lon="6.87925">
        <ele>253.9</ele>
        <time>2014-11-19T09:12:52Z</time>
      </trkpt>
      <trkpt lat="49.09323" lon="6.87918">
        <ele>253.9</ele>
        <time>2014-11-19T09:12:57Z</time>
      </trkpt>
      <trkpt lat="49.0933" lon="6.87914">
        <ele>254</ele>
        <time>2014-11-19T09:13:02Z</time>
      </trkpt>
      <trkpt lat="49.09338" lon="6.87916">
        <ele>254.5</ele>
        <time>2014-11-19T09:13:07Z</time>
      </trkpt>
      <trkpt lat="49.09343" lon="6.87922">
        <ele>254.7</ele>
        <time>2014-11-19T09:13:12Z</time>
      </trkpt>
      <trkpt lat="49.09348" lon="6.87928">
        <ele>255.3</ele>
        <time>2014-11-19T09:13:17Z</time>
      </trkpt>
      <trkpt lat="49.09353" lon="6.87933">
        <ele>255.9</ele>
        <time>2014-11-19T09:13:22Z</time>
      </trkpt>
      <trkpt lat="49.09358" lon="6.87939">
        <ele>256.1</ele>
        <time>2014-11-19T09:13:27Z</time>
      </trkpt>
      <trkpt lat="49.09361" lon="6.87947">
        <ele>256.8</ele>
        <time>2014-11-19T09:13:32Z</time>
      </trkpt>
      <trkpt lat="49.09367" lon="6.87954">
        <ele>257.2</ele>
        <time>2014-11-19T09:13:37Z</time>
      </trkpt>
      <trkpt lat="49.09373" lon="6.8796">
        <ele>257.3</ele>
        <time>2014-11-19T09:13:42Z</time>
      </trkpt>
      <trkpt lat="49.09376" lon="6.87966">
        <ele>258.2</ele>
        <time>2014-11-19T09:13:47Z</time>
      </trkpt>
      <trkpt lat="49.09381" lon="6.87971">
        <ele>258.7</ele>
        <time>2014-11-19T09:13:52Z</time>
      </trkpt>
      <trkpt lat="49.09388" lon="6.87977">
        <ele>259.2</ele>
        <time>2014-11-19T09:13:57Z</time>
      </trkpt>
      <trkpt lat="49.09395" lon="6.87983">
        <ele>259.7</ele>
        <time>2014-11-19T09:14:02Z</time>
      </trkpt>
      <trkpt lat="49.09402" lon="6.87989">
        <ele>260.2</ele>
        <time>2014-11-19T09:14:07Z</time>
      </trkpt>
      <trkpt lat="49.09409" lon="6.87995">
        <ele>261</ele>
        <time>2014-11-19T09:14:12Z</time>
      </trkpt>
      <trkpt lat="49.09416" lon="6.88001">
        <ele>261.4</ele>
        <time>2014-11-19T09:14:17Z</time>
      </trkpt>
      <trkpt lat="49.09421" lon="6.88007">
        <ele>262</ele>
        <time>2014-11-19T09:14:22Z</time>
      </trkpt>
      <trkpt lat="49.09426" lon="6.88014">
        <ele>262.7</ele>
        <time>2014-11-19T09:14:27Z</time>
      </trkpt>
      <trkpt lat="49.09432" lon="6.88021">
        <ele>263.2</ele>
        <time>2014-11-19T09:14:32Z</time>
      </trkpt>
      <trkpt lat="49.09438" lon="6.88029">
        <ele>264</ele>
        <time>2014-11-19T09:14:37Z</time>
      </trkpt>
      <trkpt lat="49.09446" lon="6.88035">
        <ele>264.5</ele>
        <time>2014-11-19T09:14:42Z</time>
      </trkpt>
      <trkpt lat="49.09452" lon="6.88041">
        <ele>264.9</ele>
        <time>2014-11-19T09:14:47Z</time>
      </trkpt>
      <trkpt lat="49.09458" lon="6.88044">
        <ele>265.7</ele>
        <time>2014-11-19T09:14:52Z</time>
      </trkpt>
      <trkpt lat="49.09463" lon="6.8805">
        <ele>266.2</ele>
        <time>2014-11-19T09:14:57Z</time>
      </trkpt>
      <trkpt lat="49.09467" lon="6.88058">
        <ele>266.8</ele>
        <time>2014-11-19T09:15:02Z</time>
      </trkpt>
      <trkpt lat="49.09472" lon="6.88067">
        <ele>267.3</ele>
        <time>2014-11-19T09:15:07Z</time>
      </trkpt>
      <trkpt lat="49.09477" lon="6.88074">
        <ele>267.7</ele>
        <time>2014-11-19T09:15:12Z</time>
      </trkpt>
      <trkpt lat="49.09484" lon="6.88071">
        <ele>267.8</ele>
        <time>2014-11-19T09:15:17Z</time>
      </trkpt>
      <trkpt lat="49.0949" lon="6.8806">
        <ele>268</ele>
        <time>2014-11-19T09:15:22Z</time>
      </trkpt>
      <trkpt lat="49.09491" lon="6.88048">
        <ele>268.1</ele>
        <time>2014-11-19T09:15:27Z</time>
      </trkpt>
      <trkpt lat="49.09491" lon="6.88037">
        <ele>268.7</ele>
        <time>2014-11-19T09:15:32Z</time>
      </trkpt>
      <trkpt lat="49.09493" lon="6.88028">
        <ele>269</ele>
        <time>2014-11-19T09:15:37Z</time>
      </trkpt>
      <trkpt lat="49.09492" lon="6.88017">
        <ele>269.1</ele>
        <time>2014-11-19T09:15:42Z</time>
      </trkpt>
      <trkpt lat="49.09491" lon="6.88008">
        <ele>269.1</ele>
        <time>2014-11-19T09:15:47Z</time>
      </trkpt>
      <trkpt lat="49.0949" lon="6.87997">
        <ele>269.1</ele>
        <time>2014-11-19T09:15:52Z</time>
      </trkpt>
      <trkpt lat="49.09487" lon="6.87984">
        <ele>269.1</ele>
        <time>2014-11-19T09:15:57Z</time>
      </trkpt>
      <trkpt lat="49.09487" lon="6.87974">
        <ele>269.1</ele>
        <time>2014-11-19T09:16:02Z</time>
      </trkpt>
      <trkpt lat="49.0949" lon="6.87963">
        <ele>269.1</ele>
        <time>2014-11-19T09:16:07Z</time>
      </trkpt>
      <trkpt lat="49.09488" lon="6.87951">
        <ele>269.1</ele>
        <time>2014-11-19T09:16:12Z</time>
      </trkpt>
      <trkpt lat="49.09488" lon="6.87941">
        <ele>269.1</ele>
        <time>2014-11-19T09:16:17Z</time>
      </trkpt>
      <trkpt lat="49.09488" lon="6.87933">
        <ele>269.1</ele>
        <time>2014-11-19T09:16:22Z</time>
      </trkpt>
      <trkpt lat="49.09488" lon="6.87923">
        <ele>269</ele>
        <time>2014-11-19T09:16:27Z</time>
      </trkpt>
      <trkpt lat="49.09489" lon="6.87913">
        <ele>268.9</ele>
        <time>2014-11-19T09:16:32Z</time>
      </trkpt>
      <trkpt lat="49.09487" lon="6.87904">
        <ele>268.8</ele>
        <time>2014-11-19T09:16:37Z</time>
      </trkpt>
      <trkpt lat="49.09483" lon="6.87896">
        <ele>268.5</ele>
        <time>2014-11-19T09:16:42Z</time>
      </trkpt>
      <trkpt lat="49.09482" lon="6.87885">
        <ele>268.3</ele>
        <time>2014-11-19T09:16:47Z</time>
      </trkpt>
      <trkpt lat="49.09482" lon="6.87874">
        <ele>268.3</ele>
        <time>2014-11-19T09:16:52Z</time>
      </trkpt>
      <trkpt lat="49.09481" lon="6.87863">
        <ele>268.3</ele>
        <time>2014-11-19T09:16:57Z</time>
      </trkpt>
      <trkpt lat="49.0948" lon="6.87852">
        <ele>268</ele>
        <time>2014-11-19T09:17:02Z</time>
      </trkpt>
      <trkpt lat="49.0948" lon="6.87843">
        <ele>268</ele>
        <time>2014-11-19T09:17:07Z</time>
      </trkpt>
      <trkpt lat="49.0948" lon="6.87832">
        <ele>267.9</ele>
        <time>2014-11-19T09:17:12Z</time>
      </trkpt>
      <trkpt lat="49.0948" lon="6.87822">
        <ele>267.7</ele>
        <time>2014-11-19T09:17:17Z</time>
      </trkpt>
      <trkpt lat="49.0948" lon="6.87812">
        <ele>267.6</ele>
        <time>2014-11-19T09:17:22Z</time>
      </trkpt>
      <trkpt lat="49.0948" lon="6.87802">
        <ele>267.6</ele>
        <time>2014-11-19T09:17:27Z</time>
      </trkpt>
      <trkpt lat="49.09482" lon="6.87793">
        <ele>267.6</ele>
        <time>2014-11-19T09:17:32Z</time>
      </trkpt>
      <trkpt lat="49.09483" lon="6.87783">
        <ele>267.6</ele>
        <time>2014-11-19T09:17:37Z</time>
      </trkpt>
      <trkpt lat="49.09485" lon="6.87774">
        <ele>267.6</ele>
        <time>2014-11-19T09:17:42Z</time>
      </trkpt>
      <trkpt lat="49.09486" lon="6.87764">
        <ele>267.6</ele>
        <time>2014-11-19T09:17:47Z</time>
      </trkpt>
      <trkpt lat="49.09488" lon="6.87754">
        <ele>267.6</ele>
        <time>2014-11-19T09:17:52Z</time>
      </trkpt>
      <trkpt lat="49.09487" lon="6.87741">
        <ele>267.6</ele>
        <time>2014-11-19T09:17:57Z</time>
      </trkpt>
      <trkpt lat="49.09487" lon="6.87732">
        <ele>267.6</ele>
        <time>2014-11-19T09:18:02Z</time>
      </trkpt>
      <trkpt lat="49.09488" lon="6.87721">
        <ele>267.5</ele>
        <time>2014-11-19T09:18:07Z</time>
      </trkpt>
      <trkpt lat="49.0949" lon="6.87705">
        <ele>267.2</ele>
        <time>2014-11-19T09:18:12Z</time>
      </trkpt>
      <trkpt lat="49.09492" lon="6.87694">
        <ele>267.1</ele>
        <time>2014-11-19T09:18:17Z</time>
      </trkpt>
      <trkpt lat="49.09494" lon="6.87683">
        <ele>267.1</ele>
        <time>2014-11-19T09:18:22Z</time>
      </trkpt>
      <trkpt lat="49.09496" lon="6.87673">
        <ele>267.1</ele>
        <time>2014-11-19T09:18:27Z</time>
      </trkpt>
      <trkpt lat="49.09497" lon="6.87663">
        <ele>267.1</ele>
        <time>2014-11-19T09:18:32Z</time>
      </trkpt>
      <trkpt lat="49.09498" lon="6.87653">
        <ele>267</ele>
        <time>2014-11-19T09:18:37Z</time>
      </trkpt>
      <trkpt lat="49.09499" lon="6.87642">
        <ele>266.9</ele>
        <time>2014-11-19T09:18:42Z</time>
      </trkpt>
      <trkpt lat="49.09501" lon="6.87632">
        <ele>266.9</ele>
        <time>2014-11-19T09:18:47Z</time>
      </trkpt>
      <trkpt lat="49.09502" lon="6.87623">
        <ele>266.8</ele>
        <time>2014-11-19T09:18:52Z</time>
      </trkpt>
      <trkpt lat="49.09505" lon="6.87616">
        <ele>266.6</ele>
        <time>2014-11-19T09:18:57Z</time>
      </trkpt>
      <trkpt lat="49.09506" lon="6.87607">
        <ele>266.3</ele>
        <time>2014-11-19T09:19:02Z</time>
      </trkpt>
      <trkpt lat="49.09507" lon="6.87596">
        <ele>266.1</ele>
        <time>2014-11-19T09:19:07Z</time>
      </trkpt>
      <trkpt lat="49.09507" lon="6.87586">
        <ele>265.9</ele>
        <time>2014-11-19T09:19:12Z</time>
      </trkpt>
      <trkpt lat="49.09509" lon="6.87576">
        <ele>265.8</ele>
        <time>2014-11-19T09:19:17Z</time>
      </trkpt>
      <trkpt lat="49.0951" lon="6.87566">
        <ele>265.8</ele>
        <time>2014-11-19T09:19:22Z</time>
      </trkpt>
      <trkpt lat="49.09512" lon="6.87555">
        <ele>265.8</ele>
        <time>2014-11-19T09:19:27Z</time>
      </trkpt>
      <trkpt lat="49.09512" lon="6.87543">
        <ele>265.8</ele>
        <time>2014-11-19T09:19:32Z</time>
      </trkpt>
      <trkpt lat="49.09513" lon="6.87531">
        <ele>265.8</ele>
        <time>2014-11-19T09:19:37Z</time>
      </trkpt>
      <trkpt lat="49.09516" lon="6.87522">
        <ele>265.8</ele>
        <time>2014-11-19T09:19:42Z</time>
      </trkpt>
      <trkpt lat="49.09516" lon="6.87514">
        <ele>265.8</ele>
        <time>2014-11-19T09:19:47Z</time>
      </trkpt>
      <trkpt lat="49.09518" lon="6.87504">
        <ele>265.8</ele>
        <time>2014-11-19T09:19:52Z</time>
      </trkpt>
      <trkpt lat="49.09521" lon="6.87494">
        <ele>265.8</ele>
        <time>2014-11-19T09:19:57Z</time>
      </trkpt>
      <trkpt lat="49.09522" lon="6.87485">
        <ele>265.8</ele>
        <time>2014-11-19T09:20:02Z</time>
      </trkpt>
      <trkpt lat="49.09525" lon="6.87476">
        <ele>265.9</ele>
        <time>2014-11-19T09:20:07Z</time>
      </trkpt>
      <trkpt lat="49.09526" lon="6.87465">
        <ele>266</ele>
        <time>2014-11-19T09:20:12Z</time>
      </trkpt>
      <trkpt lat="49.09526" lon="6.87456">
        <ele>266</ele>
        <time>2014-11-19T09:20:17Z</time>
      </trkpt>
      <trkpt lat="49.09529" lon="6.87444">
        <ele>266</ele>
        <time>2014-11-19T09:20:22Z</time>
      </trkpt>
      <trkpt lat="49.09532" lon="6.87434">
        <ele>266</ele>
        <time>2014-11-19T09:20:27Z</time>
      </trkpt>
      <trkpt lat="49.09533" lon="6.87421">
        <ele>266.1</ele>
        <time>2014-11-19T09:20:32Z</time>
      </trkpt>
      <trkpt lat="49.09534" lon="6.87411">
        <ele>266.1</ele>
        <time>2014-11-19T09:20:37Z</time>
      </trkpt>
      <trkpt lat="49.09535" lon="6.87401">
        <ele>266.3</ele>
        <time>2014-11-19T09:20:42Z</time>
      </trkpt>
      <trkpt lat="49.09537" lon="6.87392">
        <ele>266.5</ele>
        <time>2014-11-19T09:20:47Z</time>
      </trkpt>
      <trkpt lat="49.0954" lon="6.87383">
        <ele>267</ele>
        <time>2014-11-19T09:20:52Z</time>
      </trkpt>
      <trkpt lat="49.09543" lon="6.87374">
        <ele>267.2</ele>
        <time>2014-11-19T09:20:57Z</time>
      </trkpt>
      <trkpt lat="49.09544" lon="6.87362">
        <ele>267.2</ele>
        <time>2014-11-19T09:21:02Z</time>
      </trkpt>
      <trkpt lat="49.09546" lon="6.87352">
        <ele>267.3</ele>
        <time>2014-11-19T09:21:07Z</time>
      </trkpt>
      <trkpt lat="49.09549" lon="6.87342">
        <ele>267.5</ele>
        <time>2014-11-19T09:21:12Z</time>
      </trkpt>
      <trkpt lat="49.0955" lon="6.87334">
        <ele>267.6</ele>
        <time>2014-11-19T09:21:17Z</time>
      </trkpt>
      <trkpt lat="49.09552" lon="6.87326">
        <ele>267.7</ele>
        <time>2014-11-19T09:21:22Z</time>
      </trkpt>
      <trkpt lat="49.09553" lon="6.87317">
        <ele>267.8</ele>
        <time>2014-11-19T09:21:27Z</time>
      </trkpt>
      <trkpt lat="49.09555" lon="6.87308">
        <ele>267.9</ele>
        <time>2014-11-19T09:21:32Z</time>
      </trkpt>
      <trkpt lat="49.09556" lon="6.87297">
        <ele>268.1</ele>
        <time>2014-11-19T09:21:37Z</time>
      </trkpt>
      <trkpt lat="49.09558" lon="6.87287">
        <ele>268.4</ele>
        <time>2014-11-19T09:21:42Z</time>
      </trkpt>
      <trkpt lat="49.09561" lon="6.87276">
        <ele>268.4</ele>
        <time>2014-11-19T09:21:47Z</time>
      </trkpt>
      <trkpt lat="49.09562" lon="6.87266">
        <ele>268.4</ele>
        <time>2014-11-19T09:21:52Z</time>
      </trkpt>
      <trkpt lat="49.09563" lon="6.87257">
        <ele>268.6</ele>
        <time>2014-11-19T09:21:57Z</time>
      </trkpt>
      <trkpt lat="49.09564" lon="6.87246">
        <ele>268.8</ele>
        <time>2014-11-19T09:22:02Z</time>
      </trkpt>
      <trkpt lat="49.09565" lon="6.87237">
        <ele>268.9</ele>
        <time>2014-11-19T09:22:07Z</time>
      </trkpt>
      <trkpt lat="49.09565" lon="6.87229">
        <ele>268.9</ele>
        <time>2014-11-19T09:22:12Z</time>
      </trkpt>
      <trkpt lat="49.09564" lon="6.87219">
        <ele>268.9</ele>
        <time>2014-11-19T09:22:17Z</time>
      </trkpt>
      <trkpt lat="49.09563" lon="6.87208">
        <ele>268.9</ele>
        <time>2014-11-19T09:22:22Z</time>
      </trkpt>
      <trkpt lat="49.09563" lon="6.87199">
        <ele>268.9</ele>
        <time>2014-11-19T09:22:27Z</time>
      </trkpt>
      <trkpt lat="49.09559" lon="6.87184">
        <ele>268.9</ele>
        <time>2014-11-19T09:22:32Z</time>
      </trkpt>
      <trkpt lat="49.09556" lon="6.87172">
        <ele>268.9</ele>
        <time>2014-11-19T09:22:37Z</time>
      </trkpt>
      <trkpt lat="49.09554" lon="6.8716">
        <ele>268.9</ele>
        <time>2014-11-19T09:22:42Z</time>
      </trkpt>
      <trkpt lat="49.09552" lon="6.87149">
        <ele>268.9</ele>
        <time>2014-11-19T09:22:47Z</time>
      </trkpt>
      <trkpt lat="49.0955" lon="6.87139">
        <ele>268.9</ele>
        <time>2014-11-19T09:22:52Z</time>
      </trkpt>
      <trkpt lat="49.09549" lon="6.87129">
        <ele>268.9</ele>
        <time>2014-11-19T09:22:57Z</time>
      </trkpt>
      <trkpt lat="49.09549" lon="6.87119">
        <ele>268.9</ele>
        <time>2014-11-19T09:23:02Z</time>
      </trkpt>
      <trkpt lat="49.09547" lon="6.87109">
        <ele>268.9</ele>
        <time>2014-11-19T09:23:07Z</time>
      </trkpt>
      <trkpt lat="49.09546" lon="6.871">
        <ele>268.9</ele>
        <time>2014-11-19T09:23:12Z</time>
      </trkpt>
      <trkpt lat="49.09542" lon="6.87091">
        <ele>268.9</ele>
        <time>2014-11-19T09:23:17Z</time>
      </trkpt>
      <trkpt lat="49.09541" lon="6.8708">
        <ele>268.9</ele>
        <time>2014-11-19T09:23:22Z</time>
      </trkpt>
      <trkpt lat="49.09541" lon="6.87069">
        <ele>268.9</ele>
        <time>2014-11-19T09:23:27Z</time>
      </trkpt>
      <trkpt lat="49.0954" lon="6.87057">
        <ele>269</ele>
        <time>2014-11-19T09:23:32Z</time>
      </trkpt>
      <trkpt lat="49.09538" lon="6.87046">
        <ele>269</ele>
        <time>2014-11-19T09:23:37Z</time>
      </trkpt>
      <trkpt lat="49.09536" lon="6.87036">
        <ele>269.1</ele>
        <time>2014-11-19T09:23:42Z</time>
      </trkpt>
      <trkpt lat="49.09534" lon="6.87026">
        <ele>269.1</ele>
        <time>2014-11-19T09:23:47Z</time>
      </trkpt>
      <trkpt lat="49.09532" lon="6.87017">
        <ele>269.2</ele>
        <time>2014-11-19T09:23:52Z</time>
      </trkpt>
      <trkpt lat="49.09533" lon="6.87007">
        <ele>269.4</ele>
        <time>2014-11-19T09:23:57Z</time>
      </trkpt>
      <trkpt lat="49.09534" lon="6.86994">
        <ele>269.5</ele>
        <time>2014-11-19T09:24:02Z</time>
      </trkpt>
      <trkpt lat="49.09535" lon="6.86985">
        <ele>269.6</ele>
        <time>2014-11-19T09:24:07Z</time>
      </trkpt>
      <trkpt lat="49.09535" lon="6.86975">
        <ele>269.6</ele>
        <time>2014-11-19T09:24:12Z</time>
      </trkpt>
      <trkpt lat="49.09535" lon="6.86967">
        <ele>269.6</ele>
        <time>2014-11-19T09:24:17Z</time>
      </trkpt>
      <trkpt lat="49.09529" lon="6.86966">
        <ele>269.6</ele>
        <time>2014-11-19T09:24:22Z</time>
      </trkpt>
      <trkpt lat="49.09521" lon="6.86969">
        <ele>269.6</ele>
        <time>2014-11-19T09:24:27Z</time>
      </trkpt>
      <trkpt lat="49.09515" lon="6.86974">
        <ele>269.6</ele>
        <time>2014-11-19T09:24:32Z</time>
      </trkpt>
      <trkpt lat="49.09507" lon="6.86985">
        <ele>269.4</ele>
        <time>2014-11-19T09:24:37Z</time>
      </trkpt>
      <trkpt lat="49.09503" lon="6.86991">
        <ele>269</ele>
        <time>2014-11-19T09:24:42Z</time>
      </trkpt>
      <trkpt lat="49.09497" lon="6.86996">
        <ele>268.8</ele>
        <time>2014-11-19T09:24:47Z</time>
      </trkpt>
      <trkpt lat="49.09491" lon="6.87003">
        <ele>268.7</ele>
        <time>2014-11-19T09:24:52Z</time>
      </trkpt>
      <trkpt lat="49.09486" lon="6.87009">
        <ele>268.1</ele>
        <time>2014-11-19T09:24:57Z</time>
      </trkpt>
      <trkpt lat="49.0948" lon="6.87016">
        <ele>267.5</ele>
        <time>2014-11-19T09:25:02Z</time>
      </trkpt>
      <trkpt lat="49.09473" lon="6.87025">
        <ele>267.2</ele>
        <time>2014-11-19T09:25:07Z</time>
      </trkpt>
      <trkpt lat="49.09466" lon="6.87034">
        <ele>266.7</ele>
        <time>2014-11-19T09:25:12Z</time>
      </trkpt>
      <trkpt lat="49.0946" lon="6.87042">
        <ele>266.2</ele>
        <time>2014-11-19T09:25:17Z</time>
      </trkpt>
      <trkpt lat="49.09455" lon="6.87049">
        <ele>265.4</ele>
        <time>2014-11-19T09:25:22Z</time>
      </trkpt>
      <trkpt lat="49.0945" lon="6.87056">
        <ele>264.7</ele>
        <time>2014-11-19T09:25:27Z</time>
      </trkpt>
      <trkpt lat="49.09445" lon="6.8706">
        <ele>264.2</ele>
        <time>2014-11-19T09:25:32Z</time>
      </trkpt>
      <trkpt lat="49.0944" lon="6.87065">
        <ele>263.8</ele>
        <time>2014-11-19T09:25:37Z</time>
      </trkpt>
      <trkpt lat="49.09433" lon="6.8707">
        <ele>262.8</ele>
        <time>2014-11-19T09:25:42Z</time>
      </trkpt>
      <trkpt lat="49.09427" lon="6.87074">
        <ele>262.2</ele>
        <time>2014-11-19T09:25:47Z</time>
      </trkpt>
      <trkpt lat="49.0942" lon="6.87076">
        <ele>261.7</ele>
        <time>2014-11-19T09:25:52Z</time>
      </trkpt>
      <trkpt lat="49.09413" lon="6.87078">
        <ele>261.3</ele>
        <time>2014-11-19T09:25:57Z</time>
      </trkpt>
      <trkpt lat="49.09407" lon="6.87081">
        <ele>260.3</ele>
        <time>2014-11-19T09:26:02Z</time>
      </trkpt>
      <trkpt lat="49.09401" lon="6.87083">
        <ele>259.7</ele>
        <time>2014-11-19T09:26:07Z</time>
      </trkpt>
      <trkpt lat="49.09393" lon="6.87085">
        <ele>258.8</ele>
        <time>2014-11-19T09:26:12Z</time>
      </trkpt>
      <trkpt lat="49.09385" lon="6.87088">
        <ele>257.8</ele>
        <time>2014-11-19T09:26:17Z</time>
      </trkpt>
      <trkpt lat="49.09378" lon="6.87089">
        <ele>256.7</ele>
        <time>2014-11-19T09:26:22Z</time>
      </trkpt>
      <trkpt lat="49.09373" lon="6.87089">
        <ele>255.9</ele>
        <time>2014-11-19T09:26:27Z</time>
      </trkpt>
      <trkpt lat="49.09367" lon="6.8709">
        <ele>255.1</ele>
        <time>2014-11-19T09:26:32Z</time>
      </trkpt>
      <trkpt lat="49.0936" lon="6.87093">
        <ele>254.5</ele>
        <time>2014-11-19T09:26:37Z</time>
      </trkpt>
      <trkpt lat="49.09353" lon="6.87095">
        <ele>253.6</ele>
        <time>2014-11-19T09:26:42Z</time>
      </trkpt>
      <trkpt lat="49.09348" lon="6.87097">
        <ele>253.3</ele>
        <time>2014-11-19T09:26:47Z</time>
      </trkpt>
      <trkpt lat="49.09342" lon="6.871">
        <ele>252.6</ele>
        <time>2014-11-19T09:26:52Z</time>
      </trkpt>
      <trkpt lat="49.09336" lon="6.87102">
        <ele>251.9</ele>
        <time>2014-11-19T09:26:57Z</time>
      </trkpt>
      <trkpt lat="49.0933" lon="6.87105">
        <ele>251.6</ele>
        <time>2014-11-19T09:27:02Z</time>
      </trkpt>
      <trkpt lat="49.09321" lon="6.8711">
        <ele>251.1</ele>
        <time>2014-11-19T09:27:07Z</time>
      </trkpt>
      <trkpt lat="49.09319" lon="6.8711">
        <ele>250.9</ele>
        <time>2014-11-19T09:27:12Z</time>
      </trkpt>
      <trkpt lat="49.09319" lon="6.8711">
        <ele>250.8</ele>
        <time>2014-11-19T09:27:17Z</time>
      </trkpt>
      <trkpt lat="49.09309" lon="6.87113">
        <ele>250.7</ele>
        <time>2014-11-19T09:27:22Z</time>
      </trkpt>
      <trkpt lat="49.09302" lon="6.87114">
        <ele>250.3</ele>
        <time>2014-11-19T09:27:27Z</time>
      </trkpt>
      <trkpt lat="49.09296" lon="6.87116">
        <ele>249.6</ele>
        <time>2014-11-19T09:27:32Z</time>
      </trkpt>
      <trkpt lat="49.09291" lon="6.87118">
        <ele>249.2</ele>
        <time>2014-11-19T09:27:37Z</time>
      </trkpt>
      <trkpt lat="49.09284" lon="6.8712">
        <ele>248.4</ele>
        <time>2014-11-19T09:27:42Z</time>
      </trkpt>
      <trkpt lat="49.09277" lon="6.87122">
        <ele>247.9</ele>
        <time>2014-11-19T09:27:47Z</time>
      </trkpt>
      <trkpt lat="49.09271" lon="6.87126">
        <ele>247.3</ele>
        <time>2014-11-19T09:27:52Z</time>
      </trkpt>
      <trkpt lat="49.09262" lon="6.87129">
        <ele>247.1</ele>
        <time>2014-11-19T09:27:57Z</time>
      </trkpt>
      <trkpt lat="49.09255" lon="6.87134">
        <ele>246.8</ele>
        <time>2014-11-19T09:28:02Z</time>
      </trkpt>
      <trkpt lat="49.09248" lon="6.87138">
        <ele>246.1</ele>
        <time>2014-11-19T09:28:07Z</time>
      </trkpt>
      <trkpt lat="49.09241" lon="6.87139">
        <ele>245.7</ele>
        <time>2014-11-19T09:28:12Z</time>
      </trkpt>
      <trkpt lat="49.09234" lon="6.87142">
        <ele>245.5</ele>
        <time>2014-11-19T09:28:17Z</time>
      </trkpt>
      <trkpt lat="49.09227" lon="6.87147">
        <ele>245.5</ele>
        <time>2014-11-19T09:28:22Z</time>
      </trkpt>
      <trkpt lat="49.09221" lon="6.87151">
        <ele>245.4</ele>
        <time>2014-11-19T09:28:27Z</time>
      </trkpt>
      <trkpt lat="49.09216" lon="6.87155">
        <ele>245.4</ele>
        <time>2014-11-19T09:28:32Z</time>
      </trkpt>
      <trkpt lat="49.0921" lon="6.8716">
        <ele>245.3</ele>
        <time>2014-11-19T09:28:37Z</time>
      </trkpt>
      <trkpt lat="49.09202" lon="6.87164">
        <ele>245.3</ele>
        <time>2014-11-19T09:28:42Z</time>
      </trkpt>
      <trkpt lat="49.09197" lon="6.87167">
        <ele>245.2</ele>
        <time>2014-11-19T09:28:47Z</time>
      </trkpt>
      <trkpt lat="49.09192" lon="6.87171">
        <ele>245.2</ele>
        <time>2014-11-19T09:28:52Z</time>
      </trkpt>
      <trkpt lat="49.09184" lon="6.87174">
        <ele>245.2</ele>
        <time>2014-11-19T09:28:57Z</time>
      </trkpt>
      <trkpt lat="49.09178" lon="6.87179">
        <ele>245.2</ele>
        <time>2014-11-19T09:29:02Z</time>
      </trkpt>
      <trkpt lat="49.0917" lon="6.87182">
        <ele>245.2</ele>
        <time>2014-11-19T09:29:07Z</time>
      </trkpt>
      <trkpt lat="49.09164" lon="6.87185">
        <ele>245.5</ele>
        <time>2014-11-19T09:29:12Z</time>
      </trkpt>
      <trkpt lat="49.09158" lon="6.87191">
        <ele>245.5</ele>
        <time>2014-11-19T09:29:17Z</time>
      </trkpt>
      <trkpt lat="49.09152" lon="6.87195">
        <ele>245.9</ele>
        <time>2014-11-19T09:29:22Z</time>
      </trkpt>
      <trkpt lat="49.09144" lon="6.87199">
        <ele>246.1</ele>
        <time>2014-11-19T09:29:27Z</time>
      </trkpt>
      <trkpt lat="49.09139" lon="6.87201">
        <ele>246.2</ele>
        <time>2014-11-19T09:29:32Z</time>
      </trkpt>
      <trkpt lat="49.09133" lon="6.87205">
        <ele>246.6</ele>
        <time>2014-11-19T09:29:37Z</time>
      </trkpt>
      <trkpt lat="49.09125" lon="6.87209">
        <ele>246.8</ele>
        <time>2014-11-19T09:29:42Z</time>
      </trkpt>
      <trkpt lat="49.0912" lon="6.87211">
        <ele>247.1</ele>
        <time>2014-11-19T09:29:47Z</time>
      </trkpt>
      <trkpt lat="49.09115" lon="6.87215">
        <ele>247.3</ele>
        <time>2014-11-19T09:29:52Z</time>
      </trkpt>
      <trkpt lat="49.09111" lon="6.87218">
        <ele>247.6</ele>
        <time>2014-11-19T09:29:57Z</time>
      </trkpt>
      <trkpt lat="49.09104" lon="6.87225">
        <ele>247.7</ele>
        <time>2014-11-19T09:30:02Z</time>
      </trkpt>
      <trkpt lat="49.09099" lon="6.87227">
        <ele>247.8</ele>
        <time>2014-11-19T09:30:07Z</time>
      </trkpt>
      <trkpt lat="49.0909" lon="6.87233">
        <ele>248.7</ele>
        <time>2014-11-19T09:30:12Z</time>
      </trkpt>
      <trkpt lat="49.09084" lon="6.87237">
        <ele>249.3</ele>
        <time>2014-11-19T09:30:17Z</time>
      </trkpt>
      <trkpt lat="49.09078" lon="6.87239">
        <ele>249.6</ele>
        <time>2014-11-19T09:30:22Z</time>
      </trkpt>
      <trkpt lat="49.09069" lon="6.87245">
        <ele>249.9</ele>
        <time>2014-11-19T09:30:27Z</time>
      </trkpt>
      <trkpt lat="49.09061" lon="6.87244">
        <ele>250.6</ele>
        <time>2014-11-19T09:30:32Z</time>
      </trkpt>
      <trkpt lat="49.09056" lon="6.87242">
        <ele>251</ele>
        <time>2014-11-19T09:30:37Z</time>
      </trkpt>
      <trkpt lat="49.09049" lon="6.87244">
        <ele>251.6</ele>
        <time>2014-11-19T09:30:42Z</time>
      </trkpt>
      <trkpt lat="49.09043" lon="6.87245">
        <ele>251.8</ele>
        <time>2014-11-19T09:30:47Z</time>
      </trkpt>
      <trkpt lat="49.09036" lon="6.8725">
        <ele>251.9</ele>
        <time>2014-11-19T09:30:52Z</time>
      </trkpt>
      <trkpt lat="49.0903" lon="6.87254">
        <ele>252.2</ele>
        <time>2014-11-19T09:30:57Z</time>
      </trkpt>
      <trkpt lat="49.09028" lon="6.87253">
        <ele>252.2</ele>
        <time>2014-11-19T09:31:02Z</time>
      </trkpt>
      <trkpt lat="49.09027" lon="6.8725">
        <ele>252.2</ele>
        <time>2014-11-19T09:31:07Z</time>
      </trkpt>
      <trkpt lat="49.09025" lon="6.87242">
        <ele>252.2</ele>
        <time>2014-11-19T09:31:12Z</time>
      </trkpt>
      <trkpt lat="49.09023" lon="6.87236">
        <ele>252</ele>
        <time>2014-11-19T09:31:17Z</time>
      </trkpt>
      <trkpt lat="49.0902" lon="6.87233">
        <ele>252</ele>
        <time>2014-11-19T09:31:22Z</time>
      </trkpt>
      <trkpt lat="49.09017" lon="6.87233">
        <ele>243.1</ele>
        <time>2014-11-19T09:31:27Z</time>
      </trkpt>
      <trkpt lat="49.09013" lon="6.87234">
        <ele>249.4</ele>
        <time>2014-11-19T09:31:32Z</time>
      </trkpt>
      <trkpt lat="49.0901" lon="6.87235">
        <ele>251.1</ele>
        <time>2014-11-19T09:31:37Z</time>
      </trkpt>
      <trkpt lat="49.09008" lon="6.87234">
        <ele>253.2</ele>
        <time>2014-11-19T09:31:42Z</time>
      </trkpt>
      <trkpt lat="49.09009" lon="6.87236">
        <ele>260.2</ele>
        <time>2014-11-19T09:31:47Z</time>
      </trkpt>
      <trkpt lat="49.09009" lon="6.87236">
        <ele>257.3</ele>
        <time>2014-11-19T09:31:52Z</time>
      </trkpt>
      <trkpt lat="49.09019" lon="6.87242">
        <ele>254.5</ele>
        <time>2014-11-19T09:31:57Z</time>
      </trkpt>
      <trkpt lat="49.09024" lon="6.87245">
        <ele>253.8</ele>
        <time>2014-11-19T09:32:02Z</time>
      </trkpt>
      <trkpt lat="49.0903" lon="6.87247">
        <ele>253.4</ele>
        <time>2014-11-19T09:32:07Z</time>
      </trkpt>
      <trkpt lat="49.09033" lon="6.87249">
        <ele>253</ele>
        <time>2014-11-19T09:32:12Z</time>
      </trkpt>
      <trkpt lat="49.09033" lon="6.87249">
        <ele>252.9</ele>
        <time>2014-11-19T09:32:17Z</time>
      </trkpt>
      <trkpt lat="49.09033" lon="6.87249">
        <ele>252.8</ele>
        <time>2014-11-19T09:32:22Z</time>
      </trkpt>
      <trkpt lat="49.09033" lon="6.87249">
        <ele>252.8</ele>
        <time>2014-11-19T09:32:27Z</time>
      </trkpt>
      <trkpt lat="49.09033" lon="6.87249">
        <ele>252.8</ele>
        <time>2014-11-19T09:32:32Z</time>
      </trkpt>
      <trkpt lat="49.09033" lon="6.87249">
        <ele>252.8</ele>
        <time>2014-11-19T09:32:37Z</time>
      </trkpt>
      <trkpt lat="49.09033" lon="6.87249">
        <ele>252.8</ele>
        <time>2014-11-19T09:32:42Z</time>
      </trkpt>
      <trkpt lat="49.09033" lon="6.87249">
        <ele>252.8</ele>
        <time>2014-11-19T09:32:47Z</time>
      </trkpt>
      <trkpt lat="49.09033" lon="6.87249">
        <ele>252.8</ele>
        <time>2014-11-19T09:32:52Z</time>
      </trkpt>
      <trkpt lat="49.09033" lon="6.87249">
        <ele>252.8</ele>
        <time>2014-11-19T09:32:57Z</time>
      </trkpt>
      <trkpt lat="49.09032" lon="6.87246">
        <ele>252.7</ele>
        <time>2014-11-19T09:33:02Z</time>
      </trkpt>
      <trkpt lat="49.09032" lon="6.87246">
        <ele>252.7</ele>
        <time>2014-11-19T09:33:07Z</time>
      </trkpt>
      <trkpt lat="49.09032" lon="6.87246">
        <ele>252.7</ele>
        <time>2014-11-19T09:33:12Z</time>
      </trkpt>
      <trkpt lat="49.09032" lon="6.87246">
        <ele>252.7</ele>
        <time>2014-11-19T09:33:17Z</time>
      </trkpt>
      <trkpt lat="49.09032" lon="6.87246">
        <ele>252.7</ele>
        <time>2014-11-19T09:33:22Z</time>
      </trkpt>
      <trkpt lat="49.09036" lon="6.87233">
        <ele>252.7</ele>
        <time>2014-11-19T09:33:27Z</time>
      </trkpt>
      <trkpt lat="49.09034" lon="6.87225">
        <ele>252.7</ele>
        <time>2014-11-19T09:33:32Z</time>
      </trkpt>
      <trkpt lat="49.09031" lon="6.8722">
        <ele>252.7</ele>
        <time>2014-11-19T09:33:37Z</time>
      </trkpt>
      <trkpt lat="49.09029" lon="6.87212">
        <ele>252.7</ele>
        <time>2014-11-19T09:33:42Z</time>
      </trkpt>
      <trkpt lat="49.09028" lon="6.87201">
        <ele>252.7</ele>
        <time>2014-11-19T09:33:47Z</time>
      </trkpt>
      <trkpt lat="49.09031" lon="6.87196">
        <ele>252.7</ele>
        <time>2014-11-19T09:33:52Z</time>
      </trkpt>
      <trkpt lat="49.09034" lon="6.87191">
        <ele>252.9</ele>
        <time>2014-11-19T09:33:57Z</time>
      </trkpt>
      <trkpt lat="49.09036" lon="6.8719">
        <ele>253.2</ele>
        <time>2014-11-19T09:34:02Z</time>
      </trkpt>
      <trkpt lat="49.09042" lon="6.87184">
        <ele>253.5</ele>
        <time>2014-11-19T09:34:07Z</time>
      </trkpt>
      <trkpt lat="49.09047" lon="6.87179">
        <ele>253.7</ele>
        <time>2014-11-19T09:34:12Z</time>
      </trkpt>
      <trkpt lat="49.09048" lon="6.87172">
        <ele>253.8</ele>
        <time>2014-11-19T09:34:17Z</time>
      </trkpt>
      <trkpt lat="49.09047" lon="6.87165">
        <ele>254.2</ele>
        <time>2014-11-19T09:34:22Z</time>
      </trkpt>
      <trkpt lat="49.09046" lon="6.87157">
        <ele>254.4</ele>
        <time>2014-11-19T09:34:27Z</time>
      </trkpt>
      <trkpt lat="49.09045" lon="6.87152">
        <ele>254.4</ele>
        <time>2014-11-19T09:34:32Z</time>
      </trkpt>
      <trkpt lat="49.09044" lon="6.87143">
        <ele>253.7</ele>
        <time>2014-11-19T09:34:37Z</time>
      </trkpt>
      <trkpt lat="49.09044" lon="6.87134">
        <ele>254.6</ele>
        <time>2014-11-19T09:34:42Z</time>
      </trkpt>
      <trkpt lat="49.09046" lon="6.87128">
        <ele>255</ele>
        <time>2014-11-19T09:34:47Z</time>
      </trkpt>
      <trkpt lat="49.09045" lon="6.87117">
        <ele>255.3</ele>
        <time>2014-11-19T09:34:52Z</time>
      </trkpt>
      <trkpt lat="49.09045" lon="6.8711">
        <ele>255.6</ele>
        <time>2014-11-19T09:34:57Z</time>
      </trkpt>
      <trkpt lat="49.09043" lon="6.87103">
        <ele>255.9</ele>
        <time>2014-11-19T09:35:02Z</time>
      </trkpt>
      <trkpt lat="49.0904" lon="6.87094">
        <ele>256</ele>
        <time>2014-11-19T09:35:07Z</time>
      </trkpt>
      <trkpt lat="49.09037" lon="6.87085">
        <ele>256</ele>
        <time>2014-11-19T09:35:12Z</time>
      </trkpt>
      <trkpt lat="49.09034" lon="6.87075">
        <ele>256.1</ele>
        <time>2014-11-19T09:35:17Z</time>
      </trkpt>
      <trkpt lat="49.09034" lon="6.87064">
        <ele>256.3</ele>
        <time>2014-11-19T09:35:22Z</time>
      </trkpt>
      <trkpt lat="49.09037" lon="6.87053">
        <ele>257</ele>
        <time>2014-11-19T09:35:27Z</time>
      </trkpt>
      <trkpt lat="49.09041" lon="6.87044">
        <ele>257.2</ele>
        <time>2014-11-19T09:35:32Z</time>
      </trkpt>
      <trkpt lat="49.09041" lon="6.87036">
        <ele>257.2</ele>
        <time>2014-11-19T09:35:37Z</time>
      </trkpt>
      <trkpt lat="49.0904" lon="6.87026">
        <ele>257.3</ele>
        <time>2014-11-19T09:35:42Z</time>
      </trkpt>
      <trkpt lat="49.09038" lon="6.87018">
        <ele>257.6</ele>
        <time>2014-11-19T09:35:47Z</time>
      </trkpt>
      <trkpt lat="49.09036" lon="6.87007">
        <ele>257.8</ele>
        <time>2014-11-19T09:35:52Z</time>
      </trkpt>
      <trkpt lat="49.09036" lon="6.86999">
        <ele>258.1</ele>
        <time>2014-11-19T09:35:57Z</time>
      </trkpt>
      <trkpt lat="49.09035" lon="6.86988">
        <ele>258.4</ele>
        <time>2014-11-19T09:36:02Z</time>
      </trkpt>
      <trkpt lat="49.09034" lon="6.86976">
        <ele>258.7</ele>
        <time>2014-11-19T09:36:07Z</time>
      </trkpt>
      <trkpt lat="49.09035" lon="6.86967">
        <ele>259.3</ele>
        <time>2014-11-19T09:36:12Z</time>
      </trkpt>
      <trkpt lat="49.09036" lon="6.86955">
        <ele>259.5</ele>
        <time>2014-11-19T09:36:17Z</time>
      </trkpt>
      <trkpt lat="49.09036" lon="6.86944">
        <ele>259.7</ele>
        <time>2014-11-19T09:36:22Z</time>
      </trkpt>
      <trkpt lat="49.09035" lon="6.86933">
        <ele>259.9</ele>
        <time>2014-11-19T09:36:27Z</time>
      </trkpt>
      <trkpt lat="49.09035" lon="6.86921">
        <ele>260.2</ele>
        <time>2014-11-19T09:36:32Z</time>
      </trkpt>
      <trkpt lat="49.09037" lon="6.86911">
        <ele>260.5</ele>
        <time>2014-11-19T09:36:37Z</time>
      </trkpt>
      <trkpt lat="49.09035" lon="6.86903">
        <ele>260.7</ele>
        <time>2014-11-19T09:36:42Z</time>
      </trkpt>
      <trkpt lat="49.09029" lon="6.869">
        <ele>260.7</ele>
        <time>2014-11-19T09:36:47Z</time>
      </trkpt>
      <trkpt lat="49.09021" lon="6.86901">
        <ele>260.7</ele>
        <time>2014-11-19T09:36:52Z</time>
      </trkpt>
      <trkpt lat="49.09011" lon="6.86906">
        <ele>260.8</ele>
        <time>2014-11-19T09:36:57Z</time>
      </trkpt>
      <trkpt lat="49.09001" lon="6.86909">
        <ele>260.9</ele>
        <time>2014-11-19T09:37:02Z</time>
      </trkpt>
      <trkpt lat="49.08994" lon="6.86911">
        <ele>260.7</ele>
        <time>2014-11-19T09:37:07Z</time>
      </trkpt>
      <trkpt lat="49.08987" lon="6.86913">
        <ele>260.3</ele>
        <time>2014-11-19T09:37:12Z</time>
      </trkpt>
      <trkpt lat="49.08981" lon="6.86916">
        <ele>259.9</ele>
        <time>2014-11-19T09:37:17Z</time>
      </trkpt>
      <trkpt lat="49.08975" lon="6.86917">
        <ele>259.3</ele>
        <time>2014-11-19T09:37:22Z</time>
      </trkpt>
      <trkpt lat="49.08969" lon="6.86918">
        <ele>259.1</ele>
        <time>2014-11-19T09:37:27Z</time>
      </trkpt>
      <trkpt lat="49.0896" lon="6.8692">
        <ele>258.2</ele>
        <time>2014-11-19T09:37:32Z</time>
      </trkpt>
      <trkpt lat="49.08954" lon="6.86922">
        <ele>257.8</ele>
        <time>2014-11-19T09:37:37Z</time>
      </trkpt>
      <trkpt lat="49.08947" lon="6.86922">
        <ele>257.2</ele>
        <time>2014-11-19T09:37:42Z</time>
      </trkpt>
      <trkpt lat="49.08941" lon="6.86923">
        <ele>256.1</ele>
        <time>2014-11-19T09:37:47Z</time>
      </trkpt>
      <trkpt lat="49.08933" lon="6.86927">
        <ele>255.6</ele>
        <time>2014-11-19T09:37:52Z</time>
      </trkpt>
      <trkpt lat="49.08926" lon="6.86929">
        <ele>255.2</ele>
        <time>2014-11-19T09:37:57Z</time>
      </trkpt>
      <trkpt lat="49.08919" lon="6.86931">
        <ele>253.8</ele>
        <time>2014-11-19T09:38:02Z</time>
      </trkpt>
      <trkpt lat="49.08911" lon="6.86931">
        <ele>253</ele>
        <time>2014-11-19T09:38:07Z</time>
      </trkpt>
      <trkpt lat="49.08904" lon="6.86932">
        <ele>252</ele>
        <time>2014-11-19T09:38:12Z</time>
      </trkpt>
      <trkpt lat="49.08898" lon="6.86935">
        <ele>250.9</ele>
        <time>2014-11-19T09:38:17Z</time>
      </trkpt>
      <trkpt lat="49.0889" lon="6.86937">
        <ele>250.6</ele>
        <time>2014-11-19T09:38:22Z</time>
      </trkpt>
      <trkpt lat="49.08884" lon="6.86939">
        <ele>250.5</ele>
        <time>2014-11-19T09:38:27Z</time>
      </trkpt>
      <trkpt lat="49.08878" lon="6.86942">
        <ele>250.2</ele>
        <time>2014-11-19T09:38:32Z</time>
      </trkpt>
      <trkpt lat="49.08872" lon="6.86944">
        <ele>250</ele>
        <time>2014-11-19T09:38:37Z</time>
      </trkpt>
      <trkpt lat="49.08866" lon="6.86945">
        <ele>249.5</ele>
        <time>2014-11-19T09:38:42Z</time>
      </trkpt>
      <trkpt lat="49.08858" lon="6.86946">
        <ele>248.6</ele>
        <time>2014-11-19T09:38:47Z</time>
      </trkpt>
      <trkpt lat="49.08851" lon="6.86946">
        <ele>247.8</ele>
        <time>2014-11-19T09:38:52Z</time>
      </trkpt>
      <trkpt lat="49.08845" lon="6.86947">
        <ele>247.5</ele>
        <time>2014-11-19T09:38:57Z</time>
      </trkpt>
      <trkpt lat="49.08838" lon="6.86948">
        <ele>247.4</ele>
        <time>2014-11-19T09:39:02Z</time>
      </trkpt>
      <trkpt lat="49.08833" lon="6.86952">
        <ele>246.8</ele>
        <time>2014-11-19T09:39:07Z</time>
      </trkpt>
      <trkpt lat="49.08826" lon="6.86955">
        <ele>245.8</ele>
        <time>2014-11-19T09:39:12Z</time>
      </trkpt>
      <trkpt lat="49.0882" lon="6.86957">
        <ele>245.3</ele>
        <time>2014-11-19T09:39:17Z</time>
      </trkpt>
      <trkpt lat="49.08813" lon="6.86958">
        <ele>244.4</ele>
        <time>2014-11-19T09:39:22Z</time>
      </trkpt>
      <trkpt lat="49.08807" lon="6.86961">
        <ele>244.2</ele>
        <time>2014-11-19T09:39:27Z</time>
      </trkpt>
      <trkpt lat="49.088" lon="6.86964">
        <ele>244.1</ele>
        <time>2014-11-19T09:39:32Z</time>
      </trkpt>
      <trkpt lat="49.08793" lon="6.86968">
        <ele>244.1</ele>
        <time>2014-11-19T09:39:37Z</time>
      </trkpt>
      <trkpt lat="49.08784" lon="6.8697">
        <ele>244.1</ele>
        <time>2014-11-19T09:39:42Z</time>
      </trkpt>
      <trkpt lat="49.08777" lon="6.86971">
        <ele>243.9</ele>
        <time>2014-11-19T09:39:47Z</time>
      </trkpt>
      <trkpt lat="49.08771" lon="6.86972">
        <ele>243.9</ele>
        <time>2014-11-19T09:39:52Z</time>
      </trkpt>
      <trkpt lat="49.08764" lon="6.86973">
        <ele>243.9</ele>
        <time>2014-11-19T09:39:57Z</time>
      </trkpt>
      <trkpt lat="49.08759" lon="6.86974">
        <ele>243.9</ele>
        <time>2014-11-19T09:40:02Z</time>
      </trkpt>
      <trkpt lat="49.08753" lon="6.86976">
        <ele>244</ele>
        <time>2014-11-19T09:40:07Z</time>
      </trkpt>
      <trkpt lat="49.08746" lon="6.86976">
        <ele>244.1</ele>
        <time>2014-11-19T09:40:12Z</time>
      </trkpt>
      <trkpt lat="49.08738" lon="6.86977">
        <ele>244.5</ele>
        <time>2014-11-19T09:40:17Z</time>
      </trkpt>
      <trkpt lat="49.08732" lon="6.86978">
        <ele>244.7</ele>
        <time>2014-11-19T09:40:22Z</time>
      </trkpt>
      <trkpt lat="49.08725" lon="6.86979">
        <ele>245</ele>
        <time>2014-11-19T09:40:27Z</time>
      </trkpt>
      <trkpt lat="49.08718" lon="6.86981">
        <ele>245.4</ele>
        <time>2014-11-19T09:40:32Z</time>
      </trkpt>
      <trkpt lat="49.08712" lon="6.86986">
        <ele>245.4</ele>
        <time>2014-11-19T09:40:37Z</time>
      </trkpt>
      <trkpt lat="49.08708" lon="6.86989">
        <ele>245.8</ele>
        <time>2014-11-19T09:40:42Z</time>
      </trkpt>
      <trkpt lat="49.08701" lon="6.86989">
        <ele>246.1</ele>
        <time>2014-11-19T09:40:47Z</time>
      </trkpt>
      <trkpt lat="49.08696" lon="6.86992">
        <ele>246.2</ele>
        <time>2014-11-19T09:40:52Z</time>
      </trkpt>
      <trkpt lat="49.08688" lon="6.86994">
        <ele>246.7</ele>
        <time>2014-11-19T09:40:57Z</time>
      </trkpt>
      <trkpt lat="49.08681" lon="6.86994">
        <ele>247</ele>
        <time>2014-11-19T09:41:02Z</time>
      </trkpt>
      <trkpt lat="49.08674" lon="6.86997">
        <ele>247.5</ele>
        <time>2014-11-19T09:41:07Z</time>
      </trkpt>
      <trkpt lat="49.08669" lon="6.87">
        <ele>248</ele>
        <time>2014-11-19T09:41:12Z</time>
      </trkpt>
      <trkpt lat="49.08663" lon="6.87002">
        <ele>248.4</ele>
        <time>2014-11-19T09:41:17Z</time>
      </trkpt>
      <trkpt lat="49.08656" lon="6.87003">
        <ele>248.9</ele>
        <time>2014-11-19T09:41:22Z</time>
      </trkpt>
      <trkpt lat="49.08649" lon="6.87002">
        <ele>249.7</ele>
        <time>2014-11-19T09:41:27Z</time>
      </trkpt>
      <trkpt lat="49.08643" lon="6.87004">
        <ele>250.5</ele>
        <time>2014-11-19T09:41:32Z</time>
      </trkpt>
      <trkpt lat="49.08638" lon="6.87006">
        <ele>251.5</ele>
        <time>2014-11-19T09:41:37Z</time>
      </trkpt>
      <trkpt lat="49.08633" lon="6.87006">
        <ele>252.6</ele>
        <time>2014-11-19T09:41:42Z</time>
      </trkpt>
      <trkpt lat="49.08628" lon="6.87007">
        <ele>253.8</ele>
        <time>2014-11-19T09:41:47Z</time>
      </trkpt>
      <trkpt lat="49.08622" lon="6.87011">
        <ele>254.6</ele>
        <time>2014-11-19T09:41:52Z</time>
      </trkpt>
      <trkpt lat="49.08614" lon="6.87016">
        <ele>255.5</ele>
        <time>2014-11-19T09:41:57Z</time>
      </trkpt>
      <trkpt lat="49.08608" lon="6.87017">
        <ele>257</ele>
        <time>2014-11-19T09:42:02Z</time>
      </trkpt>
      <trkpt lat="49.08603" lon="6.87017">
        <ele>258.2</ele>
        <time>2014-11-19T09:42:07Z</time>
      </trkpt>
      <trkpt lat="49.08596" lon="6.87018">
        <ele>258.7</ele>
        <time>2014-11-19T09:42:12Z</time>
      </trkpt>
      <trkpt lat="49.0859" lon="6.87019">
        <ele>259.4</ele>
        <time>2014-11-19T09:42:17Z</time>
      </trkpt>
      <trkpt lat="49.08584" lon="6.87019">
        <ele>260.2</ele>
        <time>2014-11-19T09:42:22Z</time>
      </trkpt>
      <trkpt lat="49.08582" lon="6.87019">
        <ele>260.6</ele>
        <time>2014-11-19T09:42:27Z</time>
      </trkpt>
      <trkpt lat="49.08582" lon="6.87019">
        <ele>261.1</ele>
        <time>2014-11-19T09:42:32Z</time>
      </trkpt>
      <trkpt lat="49.08582" lon="6.87019">
        <ele>261.3</ele>
        <time>2014-11-19T09:42:37Z</time>
      </trkpt>
      <trkpt lat="49.08582" lon="6.87019">
        <ele>261.3</ele>
        <time>2014-11-19T09:42:42Z</time>
      </trkpt>
      <trkpt lat="49.08582" lon="6.87019">
        <ele>261.3</ele>
        <time>2014-11-19T09:42:47Z</time>
      </trkpt>
      <trkpt lat="49.08582" lon="6.87019">
        <ele>261.3</ele>
        <time>2014-11-19T09:42:52Z</time>
      </trkpt>
      <trkpt lat="49.08582" lon="6.87019">
        <ele>261.3</ele>
        <time>2014-11-19T09:42:57Z</time>
      </trkpt>
      <trkpt lat="49.08582" lon="6.87019">
        <ele>261.3</ele>
        <time>2014-11-19T09:43:02Z</time>
      </trkpt>
      <trkpt lat="49.08582" lon="6.87019">
        <ele>261.3</ele>
        <time>2014-11-19T09:43:07Z</time>
      </trkpt>
      <trkpt lat="49.08582" lon="6.87019">
        <ele>261.3</ele>
        <time>2014-11-19T09:43:12Z</time>
      </trkpt>
      <trkpt lat="49.08582" lon="6.87019">
        <ele>261.3</ele>
        <time>2014-11-19T09:43:17Z</time>
      </trkpt>
      <trkpt lat="49.08575" lon="6.87011">
        <ele>261.3</ele>
        <time>2014-11-19T09:43:22Z</time>
      </trkpt>
      <trkpt lat="49.08571" lon="6.87011">
        <ele>261.3</ele>
        <time>2014-11-19T09:43:27Z</time>
      </trkpt>
      <trkpt lat="49.08568" lon="6.87013">
        <ele>261.3</ele>
        <time>2014-11-19T09:43:32Z</time>
      </trkpt>
      <trkpt lat="49.08564" lon="6.87015">
        <ele>261.3</ele>
        <time>2014-11-19T09:43:37Z</time>
      </trkpt>
      <trkpt lat="49.0856" lon="6.87019">
        <ele>261.3</ele>
        <time>2014-11-19T09:43:42Z</time>
      </trkpt>
      <trkpt lat="49.08553" lon="6.87027">
        <ele>261.3</ele>
        <time>2014-11-19T09:43:47Z</time>
      </trkpt>
      <trkpt lat="49.08547" lon="6.87029">
        <ele>261.3</ele>
        <time>2014-11-19T09:43:52Z</time>
      </trkpt>
      <trkpt lat="49.08542" lon="6.87032">
        <ele>261.3</ele>
        <time>2014-11-19T09:43:57Z</time>
      </trkpt>
      <trkpt lat="49.08537" lon="6.87032">
        <ele>261.3</ele>
        <time>2014-11-19T09:44:02Z</time>
      </trkpt>
      <trkpt lat="49.08531" lon="6.87035">
        <ele>261.2</ele>
        <time>2014-11-19T09:44:07Z</time>
      </trkpt>
      <trkpt lat="49.08524" lon="6.87034">
        <ele>260.1</ele>
        <time>2014-11-19T09:44:12Z</time>
      </trkpt>
      <trkpt lat="49.08517" lon="6.87039">
        <ele>259.6</ele>
        <time>2014-11-19T09:44:17Z</time>
      </trkpt>
      <trkpt lat="49.08511" lon="6.87042">
        <ele>259.1</ele>
        <time>2014-11-19T09:44:22Z</time>
      </trkpt>
      <trkpt lat="49.08505" lon="6.87044">
        <ele>259</ele>
        <time>2014-11-19T09:44:27Z</time>
      </trkpt>
      <trkpt lat="49.085" lon="6.87046">
        <ele>258.5</ele>
        <time>2014-11-19T09:44:32Z</time>
      </trkpt>
      <trkpt lat="49.08495" lon="6.87047">
        <ele>257.2</ele>
        <time>2014-11-19T09:44:37Z</time>
      </trkpt>
      <trkpt lat="49.0849" lon="6.87048">
        <ele>256.4</ele>
        <time>2014-11-19T09:44:42Z</time>
      </trkpt>
      <trkpt lat="49.08485" lon="6.87049">
        <ele>256.2</ele>
        <time>2014-11-19T09:44:47Z</time>
      </trkpt>
      <trkpt lat="49.08479" lon="6.87048">
        <ele>256.1</ele>
        <time>2014-11-19T09:44:52Z</time>
      </trkpt>
      <trkpt lat="49.08472" lon="6.87051">
        <ele>255.4</ele>
        <time>2014-11-19T09:44:57Z</time>
      </trkpt>
      <trkpt lat="49.08467" lon="6.87054">
        <ele>254.7</ele>
        <time>2014-11-19T09:45:02Z</time>
      </trkpt>
      <trkpt lat="49.08459" lon="6.87056">
        <ele>254.3</ele>
        <time>2014-11-19T09:45:07Z</time>
      </trkpt>
      <trkpt lat="49.08453" lon="6.87057">
        <ele>253.8</ele>
        <time>2014-11-19T09:45:12Z</time>
      </trkpt>
      <trkpt lat="49.08447" lon="6.87057">
        <ele>253.2</ele>
        <time>2014-11-19T09:45:17Z</time>
      </trkpt>
      <trkpt lat="49.08442" lon="6.87058">
        <ele>251.9</ele>
        <time>2014-11-19T09:45:22Z</time>
      </trkpt>
      <trkpt lat="49.08435" lon="6.87064">
        <ele>251.5</ele>
        <time>2014-11-19T09:45:27Z</time>
      </trkpt>
      <trkpt lat="49.08429" lon="6.87066">
        <ele>251.1</ele>
        <time>2014-11-19T09:45:32Z</time>
      </trkpt>
      <trkpt lat="49.08424" lon="6.87067">
        <ele>250.3</ele>
        <time>2014-11-19T09:45:37Z</time>
      </trkpt>
      <trkpt lat="49.08418" lon="6.8707">
        <ele>249.8</ele>
        <time>2014-11-19T09:45:42Z</time>
      </trkpt>
      <trkpt lat="49.08412" lon="6.87072">
        <ele>248.8</ele>
        <time>2014-11-19T09:45:47Z</time>
      </trkpt>
      <trkpt lat="49.08405" lon="6.87072">
        <ele>247.6</ele>
        <time>2014-11-19T09:45:52Z</time>
      </trkpt>
      <trkpt lat="49.08397" lon="6.87073">
        <ele>246.9</ele>
        <time>2014-11-19T09:45:57Z</time>
      </trkpt>
      <trkpt lat="49.0839" lon="6.87075">
        <ele>246.6</ele>
        <time>2014-11-19T09:46:02Z</time>
      </trkpt>
      <trkpt lat="49.08384" lon="6.87078">
        <ele>246.4</ele>
        <time>2014-11-19T09:46:07Z</time>
      </trkpt>
      <trkpt lat="49.08379" lon="6.87078">
        <ele>246.1</ele>
        <time>2014-11-19T09:46:12Z</time>
      </trkpt>
      <trkpt lat="49.08374" lon="6.87078">
        <ele>245.9</ele>
        <time>2014-11-19T09:46:17Z</time>
      </trkpt>
      <trkpt lat="49.08367" lon="6.87078">
        <ele>245.7</ele>
        <time>2014-11-19T09:46:22Z</time>
      </trkpt>
      <trkpt lat="49.0836" lon="6.87079">
        <ele>245.4</ele>
        <time>2014-11-19T09:46:27Z</time>
      </trkpt>
      <trkpt lat="49.08352" lon="6.87085">
        <ele>244.6</ele>
        <time>2014-11-19T09:46:32Z</time>
      </trkpt>
      <trkpt lat="49.08346" lon="6.87086">
        <ele>243.7</ele>
        <time>2014-11-19T09:46:37Z</time>
      </trkpt>
      <trkpt lat="49.0834" lon="6.87088">
        <ele>243.4</ele>
        <time>2014-11-19T09:46:42Z</time>
      </trkpt>
      <trkpt lat="49.08334" lon="6.87091">
        <ele>243.1</ele>
        <time>2014-11-19T09:46:47Z</time>
      </trkpt>
      <trkpt lat="49.08327" lon="6.87094">
        <ele>242.5</ele>
        <time>2014-11-19T09:46:52Z</time>
      </trkpt>
      <trkpt lat="49.08322" lon="6.87095">
        <ele>241.9</ele>
        <time>2014-11-19T09:46:57Z</time>
      </trkpt>
      <trkpt lat="49.08315" lon="6.87093">
        <ele>241.3</ele>
        <time>2014-11-19T09:47:02Z</time>
      </trkpt>
      <trkpt lat="49.08309" lon="6.87093">
        <ele>240.6</ele>
        <time>2014-11-19T09:47:07Z</time>
      </trkpt>
      <trkpt lat="49.08302" lon="6.87096">
        <ele>240.3</ele>
        <time>2014-11-19T09:47:12Z</time>
      </trkpt>
      <trkpt lat="49.08298" lon="6.87099">
        <ele>240.2</ele>
        <time>2014-11-19T09:47:17Z</time>
      </trkpt>
      <trkpt lat="49.08292" lon="6.87101">
        <ele>240.1</ele>
        <time>2014-11-19T09:47:22Z</time>
      </trkpt>
      <trkpt lat="49.08286" lon="6.87102">
        <ele>240.1</ele>
        <time>2014-11-19T09:47:27Z</time>
      </trkpt>
      <trkpt lat="49.08281" lon="6.87103">
        <ele>239.7</ele>
        <time>2014-11-19T09:47:32Z</time>
      </trkpt>
      <trkpt lat="49.08274" lon="6.87104">
        <ele>239.5</ele>
        <time>2014-11-19T09:47:37Z</time>
      </trkpt>
      <trkpt lat="49.08265" lon="6.87106">
        <ele>239.5</ele>
        <time>2014-11-19T09:47:42Z</time>
      </trkpt>
      <trkpt lat="49.08258" lon="6.87107">
        <ele>239.5</ele>
        <time>2014-11-19T09:47:47Z</time>
      </trkpt>
      <trkpt lat="49.08253" lon="6.87109">
        <ele>239.6</ele>
        <time>2014-11-19T09:47:52Z</time>
      </trkpt>
      <trkpt lat="49.08247" lon="6.87112">
        <ele>240.3</ele>
        <time>2014-11-19T09:47:57Z</time>
      </trkpt>
      <trkpt lat="49.08241" lon="6.87115">
        <ele>240.8</ele>
        <time>2014-11-19T09:48:02Z</time>
      </trkpt>
      <trkpt lat="49.08236" lon="6.87117">
        <ele>241.2</ele>
        <time>2014-11-19T09:48:07Z</time>
      </trkpt>
      <trkpt lat="49.08229" lon="6.8712">
        <ele>242.1</ele>
        <time>2014-11-19T09:48:12Z</time>
      </trkpt>
      <trkpt lat="49.08222" lon="6.87124">
        <ele>242.7</ele>
        <time>2014-11-19T09:48:17Z</time>
      </trkpt>
      <trkpt lat="49.08217" lon="6.87125">
        <ele>243.2</ele>
        <time>2014-11-19T09:48:22Z</time>
      </trkpt>
      <trkpt lat="49.0821" lon="6.87125">
        <ele>243.6</ele>
        <time>2014-11-19T09:48:27Z</time>
      </trkpt>
      <trkpt lat="49.08205" lon="6.87126">
        <ele>244.5</ele>
        <time>2014-11-19T09:48:32Z</time>
      </trkpt>
      <trkpt lat="49.08197" lon="6.87129">
        <ele>244.9</ele>
        <time>2014-11-19T09:48:37Z</time>
      </trkpt>
      <trkpt lat="49.0819" lon="6.8713">
        <ele>245.5</ele>
        <time>2014-11-19T09:48:42Z</time>
      </trkpt>
      <trkpt lat="49.08183" lon="6.87126">
        <ele>245.9</ele>
        <time>2014-11-19T09:48:47Z</time>
      </trkpt>
      <trkpt lat="49.08176" lon="6.87126">
        <ele>246.4</ele>
        <time>2014-11-19T09:48:52Z</time>
      </trkpt>
      <trkpt lat="49.0817" lon="6.87127">
        <ele>246.8</ele>
        <time>2014-11-19T09:48:57Z</time>
      </trkpt>
      <trkpt lat="49.08165" lon="6.87128">
        <ele>247.1</ele>
        <time>2014-11-19T09:49:02Z</time>
      </trkpt>
      <trkpt lat="49.0816" lon="6.87129">
        <ele>247.4</ele>
        <time>2014-11-19T09:49:07Z</time>
      </trkpt>
      <trkpt lat="49.08155" lon="6.87132">
        <ele>247.8</ele>
        <time>2014-11-19T09:49:12Z</time>
      </trkpt>
      <trkpt lat="49.08151" lon="6.87138">
        <ele>248.2</ele>
        <time>2014-11-19T09:49:17Z</time>
      </trkpt>
      <trkpt lat="49.08147" lon="6.87138">
        <ele>248.6</ele>
        <time>2014-11-19T09:49:22Z</time>
      </trkpt>
      <trkpt lat="49.08146" lon="6.8714">
        <ele>249.1</ele>
        <time>2014-11-19T09:49:27Z</time>
      </trkpt>
      <trkpt lat="49.08142" lon="6.87146">
        <ele>249.5</ele>
        <time>2014-11-19T09:49:32Z</time>
      </trkpt>
      <trkpt lat="49.08138" lon="6.87148">
        <ele>249.6</ele>
        <time>2014-11-19T09:49:37Z</time>
      </trkpt>
      <trkpt lat="49.08134" lon="6.87149">
        <ele>249.6</ele>
        <time>2014-11-19T09:49:42Z</time>
      </trkpt>
      <trkpt lat="49.08129" lon="6.87151">
        <ele>249.8</ele>
        <time>2014-11-19T09:49:47Z</time>
      </trkpt>
      <trkpt lat="49.08121" lon="6.87153">
        <ele>249.9</ele>
        <time>2014-11-19T09:49:52Z</time>
      </trkpt>
      <trkpt lat="49.08114" lon="6.87158">
        <ele>249.9</ele>
        <time>2014-11-19T09:49:57Z</time>
      </trkpt>
      <trkpt lat="49.08108" lon="6.8716">
        <ele>250.1</ele>
        <time>2014-11-19T09:50:02Z</time>
      </trkpt>
      <trkpt lat="49.08102" lon="6.8716">
        <ele>250.4</ele>
        <time>2014-11-19T09:50:07Z</time>
      </trkpt>
      <trkpt lat="49.08095" lon="6.8716">
        <ele>250.4</ele>
        <time>2014-11-19T09:50:12Z</time>
      </trkpt>
      <trkpt lat="49.08088" lon="6.87162">
        <ele>250.7</ele>
        <time>2014-11-19T09:50:17Z</time>
      </trkpt>
      <trkpt lat="49.08081" lon="6.87162">
        <ele>251</ele>
        <time>2014-11-19T09:50:22Z</time>
      </trkpt>
      <trkpt lat="49.08074" lon="6.87163">
        <ele>251</ele>
        <time>2014-11-19T09:50:27Z</time>
      </trkpt>
      <trkpt lat="49.08069" lon="6.87166">
        <ele>251.2</ele>
        <time>2014-11-19T09:50:32Z</time>
      </trkpt>
      <trkpt lat="49.08065" lon="6.87169">
        <ele>251.2</ele>
        <time>2014-11-19T09:50:37Z</time>
      </trkpt>
      <trkpt lat="49.0806" lon="6.87171">
        <ele>251.6</ele>
        <time>2014-11-19T09:50:42Z</time>
      </trkpt>
      <trkpt lat="49.08054" lon="6.87171">
        <ele>251.7</ele>
        <time>2014-11-19T09:50:47Z</time>
      </trkpt>
      <trkpt lat="49.0805" lon="6.87174">
        <ele>251.7</ele>
        <time>2014-11-19T09:50:52Z</time>
      </trkpt>
      <trkpt lat="49.08044" lon="6.87176">
        <ele>251.8</ele>
        <time>2014-11-19T09:50:57Z</time>
      </trkpt>
      <trkpt lat="49.08039" lon="6.87178">
        <ele>252.2</ele>
        <time>2014-11-19T09:51:02Z</time>
      </trkpt>
      <trkpt lat="49.0803" lon="6.87179">
        <ele>252.3</ele>
        <time>2014-11-19T09:51:07Z</time>
      </trkpt>
      <trkpt lat="49.08024" lon="6.87178">
        <ele>252.8</ele>
        <time>2014-11-19T09:51:12Z</time>
      </trkpt>
      <trkpt lat="49.08019" lon="6.87177">
        <ele>252.9</ele>
        <time>2014-11-19T09:51:17Z</time>
      </trkpt>
      <trkpt lat="49.08013" lon="6.87181">
        <ele>252.9</ele>
        <time>2014-11-19T09:51:22Z</time>
      </trkpt>
      <trkpt lat="49.08006" lon="6.87181">
        <ele>252.9</ele>
        <time>2014-11-19T09:51:27Z</time>
      </trkpt>
      <trkpt lat="49.08" lon="6.87184">
        <ele>252.9</ele>
        <time>2014-11-19T09:51:32Z</time>
      </trkpt>
      <trkpt lat="49.07991" lon="6.87185">
        <ele>253.2</ele>
        <time>2014-11-19T09:51:37Z</time>
      </trkpt>
      <trkpt lat="49.07984" lon="6.87189">
        <ele>253.4</ele>
        <time>2014-11-19T09:51:42Z</time>
      </trkpt>
      <trkpt lat="49.07979" lon="6.87189">
        <ele>253.5</ele>
        <time>2014-11-19T09:51:47Z</time>
      </trkpt>
      <trkpt lat="49.07974" lon="6.87191">
        <ele>254.1</ele>
        <time>2014-11-19T09:51:52Z</time>
      </trkpt>
      <trkpt lat="49.07967" lon="6.87193">
        <ele>254.6</ele>
        <time>2014-11-19T09:51:57Z</time>
      </trkpt>
      <trkpt lat="49.07962" lon="6.87195">
        <ele>254.8</ele>
        <time>2014-11-19T09:52:02Z</time>
      </trkpt>
      <trkpt lat="49.07957" lon="6.87197">
        <ele>255.2</ele>
        <time>2014-11-19T09:52:07Z</time>
      </trkpt>
      <trkpt lat="49.07951" lon="6.87203">
        <ele>255.6</ele>
        <time>2014-11-19T09:52:12Z</time>
      </trkpt>
      <trkpt lat="49.07944" lon="6.87206">
        <ele>256.1</ele>
        <time>2014-11-19T09:52:17Z</time>
      </trkpt>
      <trkpt lat="49.07937" lon="6.87206">
        <ele>256.2</ele>
        <time>2014-11-19T09:52:22Z</time>
      </trkpt>
      <trkpt lat="49.07932" lon="6.87207">
        <ele>256.2</ele>
        <time>2014-11-19T09:52:27Z</time>
      </trkpt>
      <trkpt lat="49.07926" lon="6.87207">
        <ele>256.5</ele>
        <time>2014-11-19T09:52:32Z</time>
      </trkpt>
      <trkpt lat="49.0792" lon="6.87209">
        <ele>256.6</ele>
        <time>2014-11-19T09:52:37Z</time>
      </trkpt>
      <trkpt lat="49.07915" lon="6.87209">
        <ele>256.6</ele>
        <time>2014-11-19T09:52:42Z</time>
      </trkpt>
      <trkpt lat="49.0791" lon="6.87212">
        <ele>256.6</ele>
        <time>2014-11-19T09:52:47Z</time>
      </trkpt>
      <trkpt lat="49.07905" lon="6.87213">
        <ele>256.6</ele>
        <time>2014-11-19T09:52:52Z</time>
      </trkpt>
      <trkpt lat="49.07901" lon="6.87214">
        <ele>256.6</ele>
        <time>2014-11-19T09:52:57Z</time>
      </trkpt>
      <trkpt lat="49.07895" lon="6.87215">
        <ele>256.2</ele>
        <time>2014-11-19T09:53:02Z</time>
      </trkpt>
      <trkpt lat="49.07889" lon="6.87217">
        <ele>255.7</ele>
        <time>2014-11-19T09:53:07Z</time>
      </trkpt>
      <trkpt lat="49.07883" lon="6.87219">
        <ele>255.2</ele>
        <time>2014-11-19T09:53:12Z</time>
      </trkpt>
      <trkpt lat="49.07874" lon="6.87224">
        <ele>255</ele>
        <time>2014-11-19T09:53:17Z</time>
      </trkpt>
      <trkpt lat="49.07871" lon="6.87224">
        <ele>254.4</ele>
        <time>2014-11-19T09:53:22Z</time>
      </trkpt>
      <trkpt lat="49.07865" lon="6.87224">
        <ele>253.6</ele>
        <time>2014-11-19T09:53:27Z</time>
      </trkpt>
      <trkpt lat="49.07859" lon="6.87226">
        <ele>253.2</ele>
        <time>2014-11-19T09:53:32Z</time>
      </trkpt>
      <trkpt lat="49.07854" lon="6.87226">
        <ele>252.6</ele>
        <time>2014-11-19T09:53:37Z</time>
      </trkpt>
      <trkpt lat="49.07851" lon="6.87227">
        <ele>251.9</ele>
        <time>2014-11-19T09:53:42Z</time>
      </trkpt>
      <trkpt lat="49.07848" lon="6.87228">
        <ele>251</ele>
        <time>2014-11-19T09:53:47Z</time>
      </trkpt>
      <trkpt lat="49.07841" lon="6.87231">
        <ele>250.2</ele>
        <time>2014-11-19T09:53:52Z</time>
      </trkpt>
      <trkpt lat="49.07832" lon="6.87232">
        <ele>249.6</ele>
        <time>2014-11-19T09:53:57Z</time>
      </trkpt>
      <trkpt lat="49.07823" lon="6.87234">
        <ele>248.4</ele>
        <time>2014-11-19T09:54:02Z</time>
      </trkpt>
      <trkpt lat="49.07814" lon="6.8724">
        <ele>247.6</ele>
        <time>2014-11-19T09:54:07Z</time>
      </trkpt>
      <trkpt lat="49.07807" lon="6.87241">
        <ele>246.8</ele>
        <time>2014-11-19T09:54:12Z</time>
      </trkpt>
      <trkpt lat="49.07801" lon="6.87242">
        <ele>246.3</ele>
        <time>2014-11-19T09:54:17Z</time>
      </trkpt>
      <trkpt lat="49.07795" lon="6.87244">
        <ele>245.5</ele>
        <time>2014-11-19T09:54:22Z</time>
      </trkpt>
      <trkpt lat="49.0779" lon="6.87245">
        <ele>245</ele>
        <time>2014-11-19T09:54:27Z</time>
      </trkpt>
      <trkpt lat="49.07786" lon="6.87246">
        <ele>244.6</ele>
        <time>2014-11-19T09:54:32Z</time>
      </trkpt>
      <trkpt lat="49.07782" lon="6.87248">
        <ele>243.8</ele>
        <time>2014-11-19T09:54:37Z</time>
      </trkpt>
      <trkpt lat="49.07776" lon="6.87249">
        <ele>243.1</ele>
        <time>2014-11-19T09:54:42Z</time>
      </trkpt>
      <trkpt lat="49.07768" lon="6.8725">
        <ele>242.3</ele>
        <time>2014-11-19T09:54:47Z</time>
      </trkpt>
      <trkpt lat="49.0776" lon="6.87253">
        <ele>241.7</ele>
        <time>2014-11-19T09:54:52Z</time>
      </trkpt>
      <trkpt lat="49.07754" lon="6.87254">
        <ele>240.7</ele>
        <time>2014-11-19T09:54:57Z</time>
      </trkpt>
      <trkpt lat="49.07748" lon="6.87257">
        <ele>239.6</ele>
        <time>2014-11-19T09:55:02Z</time>
      </trkpt>
      <trkpt lat="49.07742" lon="6.87259">
        <ele>239</ele>
        <time>2014-11-19T09:55:07Z</time>
      </trkpt>
      <trkpt lat="49.07736" lon="6.87262">
        <ele>238</ele>
        <time>2014-11-19T09:55:12Z</time>
      </trkpt>
      <trkpt lat="49.07729" lon="6.87263">
        <ele>237.4</ele>
        <time>2014-11-19T09:55:17Z</time>
      </trkpt>
      <trkpt lat="49.07724" lon="6.87266">
        <ele>237.1</ele>
        <time>2014-11-19T09:55:22Z</time>
      </trkpt>
      <trkpt lat="49.07717" lon="6.87267">
        <ele>236.4</ele>
        <time>2014-11-19T09:55:27Z</time>
      </trkpt>
      <trkpt lat="49.07711" lon="6.87268">
        <ele>235.6</ele>
        <time>2014-11-19T09:55:32Z</time>
      </trkpt>
      <trkpt lat="49.07704" lon="6.87269">
        <ele>234.6</ele>
        <time>2014-11-19T09:55:37Z</time>
      </trkpt>
      <trkpt lat="49.07698" lon="6.87271">
        <ele>234.2</ele>
        <time>2014-11-19T09:55:42Z</time>
      </trkpt>
      <trkpt lat="49.07693" lon="6.87273">
        <ele>233.7</ele>
        <time>2014-11-19T09:55:47Z</time>
      </trkpt>
      <trkpt lat="49.07688" lon="6.87276">
        <ele>232.8</ele>
        <time>2014-11-19T09:55:52Z</time>
      </trkpt>
      <trkpt lat="49.07682" lon="6.87279">
        <ele>232.2</ele>
        <time>2014-11-19T09:55:57Z</time>
      </trkpt>
      <trkpt lat="49.07675" lon="6.87279">
        <ele>231.9</ele>
        <time>2014-11-19T09:56:02Z</time>
      </trkpt>
      <trkpt lat="49.0767" lon="6.8728">
        <ele>231.5</ele>
        <time>2014-11-19T09:56:07Z</time>
      </trkpt>
      <trkpt lat="49.07664" lon="6.8728">
        <ele>230.9</ele>
        <time>2014-11-19T09:56:12Z</time>
      </trkpt>
      <trkpt lat="49.07658" lon="6.87281">
        <ele>230.6</ele>
        <time>2014-11-19T09:56:17Z</time>
      </trkpt>
      <trkpt lat="49.07653" lon="6.87283">
        <ele>229.8</ele>
        <time>2014-11-19T09:56:22Z</time>
      </trkpt>
      <trkpt lat="49.07646" lon="6.87286">
        <ele>229</ele>
        <time>2014-11-19T09:56:27Z</time>
      </trkpt>
      <trkpt lat="49.0764" lon="6.87287">
        <ele>228.7</ele>
        <time>2014-11-19T09:56:32Z</time>
      </trkpt>
      <trkpt lat="49.07632" lon="6.87289">
        <ele>228.7</ele>
        <time>2014-11-19T09:56:37Z</time>
      </trkpt>
      <trkpt lat="49.07626" lon="6.87291">
        <ele>228.3</ele>
        <time>2014-11-19T09:56:42Z</time>
      </trkpt>
      <trkpt lat="49.07619" lon="6.8729">
        <ele>227.7</ele>
        <time>2014-11-19T09:56:47Z</time>
      </trkpt>
      <trkpt lat="49.07614" lon="6.87293">
        <ele>227.5</ele>
        <time>2014-11-19T09:56:52Z</time>
      </trkpt>
      <trkpt lat="49.07608" lon="6.87296">
        <ele>227.1</ele>
        <time>2014-11-19T09:56:57Z</time>
      </trkpt>
      <trkpt lat="49.07601" lon="6.87299">
        <ele>226.9</ele>
        <time>2014-11-19T09:57:02Z</time>
      </trkpt>
      <trkpt lat="49.07594" lon="6.87299">
        <ele>226.9</ele>
        <time>2014-11-19T09:57:07Z</time>
      </trkpt>
      <trkpt lat="49.07588" lon="6.87298">
        <ele>226.8</ele>
        <time>2014-11-19T09:57:12Z</time>
      </trkpt>
      <trkpt lat="49.07581" lon="6.87298">
        <ele>226.7</ele>
        <time>2014-11-19T09:57:17Z</time>
      </trkpt>
      <trkpt lat="49.07575" lon="6.87299">
        <ele>226.4</ele>
        <time>2014-11-19T09:57:22Z</time>
      </trkpt>
      <trkpt lat="49.07568" lon="6.87304">
        <ele>226.2</ele>
        <time>2014-11-19T09:57:27Z</time>
      </trkpt>
      <trkpt lat="49.0756" lon="6.87309">
        <ele>226.2</ele>
        <time>2014-11-19T09:57:32Z</time>
      </trkpt>
      <trkpt lat="49.07558" lon="6.87308">
        <ele>226.1</ele>
        <time>2014-11-19T09:57:37Z</time>
      </trkpt>
      <trkpt lat="49.07553" lon="6.87306">
        <ele>226.1</ele>
        <time>2014-11-19T09:57:42Z</time>
      </trkpt>
      <trkpt lat="49.07546" lon="6.87306">
        <ele>225.8</ele>
        <time>2014-11-19T09:57:47Z</time>
      </trkpt>
      <trkpt lat="49.07541" lon="6.87306">
        <ele>225.6</ele>
        <time>2014-11-19T09:57:52Z</time>
      </trkpt>
      <trkpt lat="49.07535" lon="6.87304">
        <ele>225.6</ele>
        <time>2014-11-19T09:57:57Z</time>
      </trkpt>
      <trkpt lat="49.0753" lon="6.87302">
        <ele>225.5</ele>
        <time>2014-11-19T09:58:02Z</time>
      </trkpt>
      <trkpt lat="49.07528" lon="6.87302">
        <ele>225.3</ele>
        <time>2014-11-19T09:58:07Z</time>
      </trkpt>
      <trkpt lat="49.07523" lon="6.87298">
        <ele>225.1</ele>
        <time>2014-11-19T09:58:12Z</time>
      </trkpt>
      <trkpt lat="49.07518" lon="6.87295">
        <ele>224.9</ele>
        <time>2014-11-19T09:58:17Z</time>
      </trkpt>
      <trkpt lat="49.07511" lon="6.87294">
        <ele>224.5</ele>
        <time>2014-11-19T09:58:22Z</time>
      </trkpt>
      <trkpt lat="49.07505" lon="6.87295">
        <ele>224.5</ele>
        <time>2014-11-19T09:58:27Z</time>
      </trkpt>
      <trkpt lat="49.07498" lon="6.87298">
        <ele>224.5</ele>
        <time>2014-11-19T09:58:32Z</time>
      </trkpt>
      <trkpt lat="49.07491" lon="6.87299">
        <ele>224.4</ele>
        <time>2014-11-19T09:58:37Z</time>
      </trkpt>
      <trkpt lat="49.07483" lon="6.87301">
        <ele>224.4</ele>
        <time>2014-11-19T09:58:42Z</time>
      </trkpt>
      <trkpt lat="49.07477" lon="6.87303">
        <ele>224.4</ele>
        <time>2014-11-19T09:58:47Z</time>
      </trkpt>
      <trkpt lat="49.07471" lon="6.87304">
        <ele>224.4</ele>
        <time>2014-11-19T09:58:52Z</time>
      </trkpt>
      <trkpt lat="49.07464" lon="6.87303">
        <ele>224.4</ele>
        <time>2014-11-19T09:58:57Z</time>
      </trkpt>
      <trkpt lat="49.07458" lon="6.873">
        <ele>224.4</ele>
        <time>2014-11-19T09:59:02Z</time>
      </trkpt>
      <trkpt lat="49.07452" lon="6.87298">
        <ele>224.4</ele>
        <time>2014-11-19T09:59:07Z</time>
      </trkpt>
      <trkpt lat="49.07447" lon="6.87293">
        <ele>224.4</ele>
        <time>2014-11-19T09:59:12Z</time>
      </trkpt>
      <trkpt lat="49.07441" lon="6.8729">
        <ele>224.4</ele>
        <time>2014-11-19T09:59:17Z</time>
      </trkpt>
      <trkpt lat="49.07436" lon="6.87284">
        <ele>224.4</ele>
        <time>2014-11-19T09:59:22Z</time>
      </trkpt>
      <trkpt lat="49.07431" lon="6.87277">
        <ele>224.7</ele>
        <time>2014-11-19T09:59:27Z</time>
      </trkpt>
      <trkpt lat="49.07426" lon="6.87268">
        <ele>224.8</ele>
        <time>2014-11-19T09:59:32Z</time>
      </trkpt>
      <trkpt lat="49.07421" lon="6.87265">
        <ele>224.9</ele>
        <time>2014-11-19T09:59:37Z</time>
      </trkpt>
      <trkpt lat="49.07413" lon="6.87265">
        <ele>224.9</ele>
        <time>2014-11-19T09:59:42Z</time>
      </trkpt>
      <trkpt lat="49.07407" lon="6.87266">
        <ele>224.9</ele>
        <time>2014-11-19T09:59:47Z</time>
      </trkpt>
      <trkpt lat="49.07407" lon="6.87266">
        <ele>224.9</ele>
        <time>2014-11-19T09:59:52Z</time>
      </trkpt>
      <trkpt lat="49.07407" lon="6.87266">
        <ele>224.9</ele>
        <time>2014-11-19T09:59:57Z</time>
      </trkpt>
      <trkpt lat="49.07407" lon="6.87266">
        <ele>224.9</ele>
        <time>2014-11-19T10:00:02Z</time>
      </trkpt>
      <trkpt lat="49.07408" lon="6.87261">
        <ele>224.9</ele>
        <time>2014-11-19T10:00:07Z</time>
      </trkpt>
      <trkpt lat="49.07411" lon="6.8725">
        <ele>224.9</ele>
        <time>2014-11-19T10:00:12Z</time>
      </trkpt>
      <trkpt lat="49.07416" lon="6.8724">
        <ele>224.9</ele>
        <time>2014-11-19T10:00:17Z</time>
      </trkpt>
      <trkpt lat="49.07419" lon="6.87232">
        <ele>224.9</ele>
        <time>2014-11-19T10:00:22Z</time>
      </trkpt>
      <trkpt lat="49.07421" lon="6.87224">
        <ele>224.9</ele>
        <time>2014-11-19T10:00:27Z</time>
      </trkpt>
      <trkpt lat="49.07425" lon="6.87218">
        <ele>224.9</ele>
        <time>2014-11-19T10:00:32Z</time>
      </trkpt>
      <trkpt lat="49.07429" lon="6.8721">
        <ele>224.9</ele>
        <time>2014-11-19T10:00:37Z</time>
      </trkpt>
      <trkpt lat="49.0743" lon="6.87203">
        <ele>224.9</ele>
        <time>2014-11-19T10:00:42Z</time>
      </trkpt>
      <trkpt lat="49.07433" lon="6.87195">
        <ele>224.9</ele>
        <time>2014-11-19T10:00:47Z</time>
      </trkpt>
      <trkpt lat="49.07437" lon="6.87187">
        <ele>224.9</ele>
        <time>2014-11-19T10:00:52Z</time>
      </trkpt>
      <trkpt lat="49.07439" lon="6.87179">
        <ele>224.9</ele>
        <time>2014-11-19T10:00:57Z</time>
      </trkpt>
      <trkpt lat="49.07442" lon="6.87171">
        <ele>224.9</ele>
        <time>2014-11-19T10:01:02Z</time>
      </trkpt>
      <trkpt lat="49.07446" lon="6.87163">
        <ele>224.9</ele>
        <time>2014-11-19T10:01:07Z</time>
      </trkpt>
      <trkpt lat="49.07451" lon="6.87155">
        <ele>224.9</ele>
        <time>2014-11-19T10:01:12Z</time>
      </trkpt>
      <trkpt lat="49.07454" lon="6.87148">
        <ele>225</ele>
        <time>2014-11-19T10:01:17Z</time>
      </trkpt>
      <trkpt lat="49.07458" lon="6.8714">
        <ele>225</ele>
        <time>2014-11-19T10:01:22Z</time>
      </trkpt>
      <trkpt lat="49.07461" lon="6.87131">
        <ele>225.3</ele>
        <time>2014-11-19T10:01:27Z</time>
      </trkpt>
      <trkpt lat="49.07463" lon="6.87123">
        <ele>225.4</ele>
        <time>2014-11-19T10:01:32Z</time>
      </trkpt>
      <trkpt lat="49.07466" lon="6.87115">
        <ele>225.5</ele>
        <time>2014-11-19T10:01:37Z</time>
      </trkpt>
      <trkpt lat="49.07469" lon="6.87107">
        <ele>225.5</ele>
        <time>2014-11-19T10:01:42Z</time>
      </trkpt>
      <trkpt lat="49.07473" lon="6.87099">
        <ele>225.5</ele>
        <time>2014-11-19T10:01:47Z</time>
      </trkpt>
      <trkpt lat="49.07479" lon="6.87089">
        <ele>225.5</ele>
        <time>2014-11-19T10:01:52Z</time>
      </trkpt>
      <trkpt lat="49.07482" lon="6.87081">
        <ele>225.5</ele>
        <time>2014-11-19T10:01:57Z</time>
      </trkpt>
      <trkpt lat="49.07485" lon="6.87074">
        <ele>225.5</ele>
        <time>2014-11-19T10:02:02Z</time>
      </trkpt>
      <trkpt lat="49.07489" lon="6.87063">
        <ele>225.5</ele>
        <time>2014-11-19T10:02:07Z</time>
      </trkpt>
      <trkpt lat="49.07492" lon="6.87054">
        <ele>225.5</ele>
        <time>2014-11-19T10:02:12Z</time>
      </trkpt>
      <trkpt lat="49.07496" lon="6.87046">
        <ele>225.6</ele>
        <time>2014-11-19T10:02:17Z</time>
      </trkpt>
      <trkpt lat="49.07496" lon="6.87037">
        <ele>225.8</ele>
        <time>2014-11-19T10:02:22Z</time>
      </trkpt>
      <trkpt lat="49.07494" lon="6.87026">
        <ele>225.8</ele>
        <time>2014-11-19T10:02:27Z</time>
      </trkpt>
      <trkpt lat="49.07494" lon="6.87018">
        <ele>225.8</ele>
        <time>2014-11-19T10:02:32Z</time>
      </trkpt>
      <trkpt lat="49.07496" lon="6.87009">
        <ele>225.8</ele>
        <time>2014-11-19T10:02:37Z</time>
      </trkpt>
      <trkpt lat="49.07499" lon="6.87">
        <ele>225.8</ele>
        <time>2014-11-19T10:02:42Z</time>
      </trkpt>
      <trkpt lat="49.07508" lon="6.86991">
        <ele>225.8</ele>
        <time>2014-11-19T10:02:47Z</time>
      </trkpt>
      <trkpt lat="49.0751" lon="6.86979">
        <ele>225.8</ele>
        <time>2014-11-19T10:02:52Z</time>
      </trkpt>
      <trkpt lat="49.0751" lon="6.86967">
        <ele>225.8</ele>
        <time>2014-11-19T10:02:57Z</time>
      </trkpt>
      <trkpt lat="49.07512" lon="6.86956">
        <ele>225.8</ele>
        <time>2014-11-19T10:03:02Z</time>
      </trkpt>
      <trkpt lat="49.07514" lon="6.86947">
        <ele>225.9</ele>
        <time>2014-11-19T10:03:07Z</time>
      </trkpt>
      <trkpt lat="49.07513" lon="6.86937">
        <ele>225.9</ele>
        <time>2014-11-19T10:03:12Z</time>
      </trkpt>
      <trkpt lat="49.07512" lon="6.86926">
        <ele>226.1</ele>
        <time>2014-11-19T10:03:17Z</time>
      </trkpt>
      <trkpt lat="49.07511" lon="6.86916">
        <ele>226.1</ele>
        <time>2014-11-19T10:03:22Z</time>
      </trkpt>
      <trkpt lat="49.0751" lon="6.86906">
        <ele>226.1</ele>
        <time>2014-11-19T10:03:27Z</time>
      </trkpt>
      <trkpt lat="49.07509" lon="6.86895">
        <ele>226.1</ele>
        <time>2014-11-19T10:03:32Z</time>
      </trkpt>
      <trkpt lat="49.07509" lon="6.86884">
        <ele>226.1</ele>
        <time>2014-11-19T10:03:37Z</time>
      </trkpt>
      <trkpt lat="49.0751" lon="6.86873">
        <ele>226.3</ele>
        <time>2014-11-19T10:03:42Z</time>
      </trkpt>
      <trkpt lat="49.0751" lon="6.86861">
        <ele>226.3</ele>
        <time>2014-11-19T10:03:47Z</time>
      </trkpt>
      <trkpt lat="49.07509" lon="6.8685">
        <ele>226.3</ele>
        <time>2014-11-19T10:03:52Z</time>
      </trkpt>
      <trkpt lat="49.07509" lon="6.86839">
        <ele>226.3</ele>
        <time>2014-11-19T10:03:57Z</time>
      </trkpt>
      <trkpt lat="49.07509" lon="6.86829">
        <ele>226.3</ele>
        <time>2014-11-19T10:04:02Z</time>
      </trkpt>
      <trkpt lat="49.07509" lon="6.86818">
        <ele>226.3</ele>
        <time>2014-11-19T10:04:07Z</time>
      </trkpt>
      <trkpt lat="49.07508" lon="6.86808">
        <ele>226.3</ele>
        <time>2014-11-19T10:04:12Z</time>
      </trkpt>
      <trkpt lat="49.07506" lon="6.86799">
        <ele>226.3</ele>
        <time>2014-11-19T10:04:17Z</time>
      </trkpt>
      <trkpt lat="49.07501" lon="6.8679">
        <ele>226.3</ele>
        <time>2014-11-19T10:04:22Z</time>
      </trkpt>
      <trkpt lat="49.07499" lon="6.8678">
        <ele>226.3</ele>
        <time>2014-11-19T10:04:27Z</time>
      </trkpt>
      <trkpt lat="49.07498" lon="6.8677">
        <ele>226.3</ele>
        <time>2014-11-19T10:04:32Z</time>
      </trkpt>
      <trkpt lat="49.07497" lon="6.8676">
        <ele>226.3</ele>
        <time>2014-11-19T10:04:37Z</time>
      </trkpt>
      <trkpt lat="49.07496" lon="6.8675">
        <ele>226.3</ele>
        <time>2014-11-19T10:04:42Z</time>
      </trkpt>
      <trkpt lat="49.07495" lon="6.8674">
        <ele>226.3</ele>
        <time>2014-11-19T10:04:47Z</time>
      </trkpt>
      <trkpt lat="49.07493" lon="6.86729">
        <ele>226.3</ele>
        <time>2014-11-19T10:04:52Z</time>
      </trkpt>
      <trkpt lat="49.07492" lon="6.8672">
        <ele>226.3</ele>
        <time>2014-11-19T10:04:57Z</time>
      </trkpt>
      <trkpt lat="49.07493" lon="6.8671">
        <ele>226.3</ele>
        <time>2014-11-19T10:05:02Z</time>
      </trkpt>
      <trkpt lat="49.07493" lon="6.867">
        <ele>226.4</ele>
        <time>2014-11-19T10:05:07Z</time>
      </trkpt>
      <trkpt lat="49.07492" lon="6.8669">
        <ele>226.4</ele>
        <time>2014-11-19T10:05:12Z</time>
      </trkpt>
      <trkpt lat="49.07492" lon="6.8668">
        <ele>226.5</ele>
        <time>2014-11-19T10:05:17Z</time>
      </trkpt>
      <trkpt lat="49.07492" lon="6.86669">
        <ele>226.5</ele>
        <time>2014-11-19T10:05:22Z</time>
      </trkpt>
      <trkpt lat="49.07491" lon="6.86658">
        <ele>226.5</ele>
        <time>2014-11-19T10:05:27Z</time>
      </trkpt>
      <trkpt lat="49.07491" lon="6.86649">
        <ele>226.5</ele>
        <time>2014-11-19T10:05:32Z</time>
      </trkpt>
      <trkpt lat="49.07491" lon="6.86639">
        <ele>226.5</ele>
        <time>2014-11-19T10:05:37Z</time>
      </trkpt>
      <trkpt lat="49.0749" lon="6.86628">
        <ele>226.5</ele>
        <time>2014-11-19T10:05:42Z</time>
      </trkpt>
      <trkpt lat="49.0749" lon="6.86618">
        <ele>226.6</ele>
        <time>2014-11-19T10:05:47Z</time>
      </trkpt>
      <trkpt lat="49.0749" lon="6.86609">
        <ele>226.6</ele>
        <time>2014-11-19T10:05:52Z</time>
      </trkpt>
      <trkpt lat="49.0749" lon="6.86598">
        <ele>226.7</ele>
        <time>2014-11-19T10:05:57Z</time>
      </trkpt>
      <trkpt lat="49.07489" lon="6.86588">
        <ele>226.7</ele>
        <time>2014-11-19T10:06:02Z</time>
      </trkpt>
      <trkpt lat="49.07488" lon="6.86577">
        <ele>226.8</ele>
        <time>2014-11-19T10:06:07Z</time>
      </trkpt>
      <trkpt lat="49.07487" lon="6.86567">
        <ele>226.8</ele>
        <time>2014-11-19T10:06:12Z</time>
      </trkpt>
      <trkpt lat="49.07486" lon="6.86557">
        <ele>226.9</ele>
        <time>2014-11-19T10:06:17Z</time>
      </trkpt>
      <trkpt lat="49.07486" lon="6.86546">
        <ele>226.9</ele>
        <time>2014-11-19T10:06:22Z</time>
      </trkpt>
      <trkpt lat="49.07485" lon="6.86536">
        <ele>227.1</ele>
        <time>2014-11-19T10:06:27Z</time>
      </trkpt>
      <trkpt lat="49.07483" lon="6.86526">
        <ele>227.1</ele>
        <time>2014-11-19T10:06:32Z</time>
      </trkpt>
      <trkpt lat="49.07481" lon="6.86517">
        <ele>227.2</ele>
        <time>2014-11-19T10:06:37Z</time>
      </trkpt>
      <trkpt lat="49.07479" lon="6.86508">
        <ele>227.2</ele>
        <time>2014-11-19T10:06:42Z</time>
      </trkpt>
      <trkpt lat="49.07477" lon="6.86497">
        <ele>227.3</ele>
        <time>2014-11-19T10:06:47Z</time>
      </trkpt>
      <trkpt lat="49.07475" lon="6.86487">
        <ele>227.4</ele>
        <time>2014-11-19T10:06:52Z</time>
      </trkpt>
      <trkpt lat="49.07474" lon="6.86477">
        <ele>227.5</ele>
        <time>2014-11-19T10:06:57Z</time>
      </trkpt>
      <trkpt lat="49.07472" lon="6.86467">
        <ele>227.5</ele>
        <time>2014-11-19T10:07:02Z</time>
      </trkpt>
      <trkpt lat="49.07472" lon="6.86456">
        <ele>227.6</ele>
        <time>2014-11-19T10:07:07Z</time>
      </trkpt>
      <trkpt lat="49.07472" lon="6.86447">
        <ele>227.6</ele>
        <time>2014-11-19T10:07:12Z</time>
      </trkpt>
      <trkpt lat="49.07471" lon="6.86437">
        <ele>227.7</ele>
        <time>2014-11-19T10:07:17Z</time>
      </trkpt>
      <trkpt lat="49.07469" lon="6.86428">
        <ele>227.7</ele>
        <time>2014-11-19T10:07:22Z</time>
      </trkpt>
      <trkpt lat="49.07467" lon="6.86418">
        <ele>227.8</ele>
        <time>2014-11-19T10:07:27Z</time>
      </trkpt>
      <trkpt lat="49.07464" lon="6.86409">
        <ele>227.8</ele>
        <time>2014-11-19T10:07:32Z</time>
      </trkpt>
      <trkpt lat="49.07461" lon="6.86401">
        <ele>227.9</ele>
        <time>2014-11-19T10:07:37Z</time>
      </trkpt>
      <trkpt lat="49.07457" lon="6.86393">
        <ele>227.9</ele>
        <time>2014-11-19T10:07:42Z</time>
      </trkpt>
      <trkpt lat="49.07454" lon="6.86385">
        <ele>228</ele>
        <time>2014-11-19T10:07:47Z</time>
      </trkpt>
      <trkpt lat="49.0745" lon="6.86377">
        <ele>228</ele>
        <time>2014-11-19T10:07:52Z</time>
      </trkpt>
      <trkpt lat="49.07446" lon="6.86371">
        <ele>228.1</ele>
        <time>2014-11-19T10:07:57Z</time>
      </trkpt>
      <trkpt lat="49.07441" lon="6.86363">
        <ele>228.2</ele>
        <time>2014-11-19T10:08:02Z</time>
      </trkpt>
      <trkpt lat="49.07436" lon="6.86356">
        <ele>228.4</ele>
        <time>2014-11-19T10:08:07Z</time>
      </trkpt>
      <trkpt lat="49.07431" lon="6.86349">
        <ele>228.5</ele>
        <time>2014-11-19T10:08:12Z</time>
      </trkpt>
      <trkpt lat="49.07426" lon="6.86341">
        <ele>228.5</ele>
        <time>2014-11-19T10:08:17Z</time>
      </trkpt>
      <trkpt lat="49.07422" lon="6.86334">
        <ele>228.6</ele>
        <time>2014-11-19T10:08:22Z</time>
      </trkpt>
      <trkpt lat="49.07417" lon="6.86325">
        <ele>228.7</ele>
        <time>2014-11-19T10:08:27Z</time>
      </trkpt>
      <trkpt lat="49.07413" lon="6.86316">
        <ele>228.9</ele>
        <time>2014-11-19T10:08:32Z</time>
      </trkpt>
      <trkpt lat="49.0741" lon="6.86307">
        <ele>228.9</ele>
        <time>2014-11-19T10:08:37Z</time>
      </trkpt>
      <trkpt lat="49.07406" lon="6.86299">
        <ele>229</ele>
        <time>2014-11-19T10:08:42Z</time>
      </trkpt>
      <trkpt lat="49.07404" lon="6.86289">
        <ele>229.2</ele>
        <time>2014-11-19T10:08:47Z</time>
      </trkpt>
      <trkpt lat="49.07402" lon="6.86279">
        <ele>229.2</ele>
        <time>2014-11-19T10:08:52Z</time>
      </trkpt>
      <trkpt lat="49.07403" lon="6.86269">
        <ele>229.3</ele>
        <time>2014-11-19T10:08:57Z</time>
      </trkpt>
      <trkpt lat="49.07404" lon="6.86258">
        <ele>229.3</ele>
        <time>2014-11-19T10:09:02Z</time>
      </trkpt>
      <trkpt lat="49.07405" lon="6.86247">
        <ele>229.4</ele>
        <time>2014-11-19T10:09:07Z</time>
      </trkpt>
      <trkpt lat="49.07406" lon="6.86237">
        <ele>229.4</ele>
        <time>2014-11-19T10:09:12Z</time>
      </trkpt>
      <trkpt lat="49.07408" lon="6.86227">
        <ele>229.8</ele>
        <time>2014-11-19T10:09:17Z</time>
      </trkpt>
      <trkpt lat="49.0741" lon="6.86217">
        <ele>229.9</ele>
        <time>2014-11-19T10:09:22Z</time>
      </trkpt>
      <trkpt lat="49.07412" lon="6.86207">
        <ele>230</ele>
        <time>2014-11-19T10:09:27Z</time>
      </trkpt>
      <trkpt lat="49.07415" lon="6.86197">
        <ele>230.1</ele>
        <time>2014-11-19T10:09:32Z</time>
      </trkpt>
      <trkpt lat="49.07415" lon="6.86187">
        <ele>230.2</ele>
        <time>2014-11-19T10:09:37Z</time>
      </trkpt>
      <trkpt lat="49.07417" lon="6.86176">
        <ele>230.3</ele>
        <time>2014-11-19T10:09:42Z</time>
      </trkpt>
      <trkpt lat="49.07417" lon="6.86165">
        <ele>230.4</ele>
        <time>2014-11-19T10:09:47Z</time>
      </trkpt>
      <trkpt lat="49.07418" lon="6.86155">
        <ele>230.4</ele>
        <time>2014-11-19T10:09:52Z</time>
      </trkpt>
      <trkpt lat="49.07419" lon="6.86146">
        <ele>230.5</ele>
        <time>2014-11-19T10:09:57Z</time>
      </trkpt>
      <trkpt lat="49.07422" lon="6.86137">
        <ele>230.6</ele>
        <time>2014-11-19T10:10:02Z</time>
      </trkpt>
      <trkpt lat="49.07422" lon="6.86129">
        <ele>230.9</ele>
        <time>2014-11-19T10:10:07Z</time>
      </trkpt>
      <trkpt lat="49.07424" lon="6.86119">
        <ele>231</ele>
        <time>2014-11-19T10:10:12Z</time>
      </trkpt>
      <trkpt lat="49.07425" lon="6.86108">
        <ele>231</ele>
        <time>2014-11-19T10:10:17Z</time>
      </trkpt>
      <trkpt lat="49.07426" lon="6.86098">
        <ele>231.1</ele>
        <time>2014-11-19T10:10:22Z</time>
      </trkpt>
      <trkpt lat="49.07427" lon="6.86088">
        <ele>231.1</ele>
        <time>2014-11-19T10:10:27Z</time>
      </trkpt>
      <trkpt lat="49.07425" lon="6.86078">
        <ele>231.2</ele>
        <time>2014-11-19T10:10:32Z</time>
      </trkpt>
      <trkpt lat="49.07424" lon="6.86068">
        <ele>231.2</ele>
        <time>2014-11-19T10:10:37Z</time>
      </trkpt>
      <trkpt lat="49.07424" lon="6.86057">
        <ele>231.3</ele>
        <time>2014-11-19T10:10:42Z</time>
      </trkpt>
      <trkpt lat="49.07424" lon="6.86048">
        <ele>231.5</ele>
        <time>2014-11-19T10:10:47Z</time>
      </trkpt>
      <trkpt lat="49.07423" lon="6.86038">
        <ele>231.6</ele>
        <time>2014-11-19T10:10:52Z</time>
      </trkpt>
      <trkpt lat="49.07422" lon="6.86028">
        <ele>231.7</ele>
        <time>2014-11-19T10:10:57Z</time>
      </trkpt>
      <trkpt lat="49.07418" lon="6.86019">
        <ele>231.8</ele>
        <time>2014-11-19T10:11:02Z</time>
      </trkpt>
      <trkpt lat="49.07417" lon="6.86012">
        <ele>231.8</ele>
        <time>2014-11-19T10:11:07Z</time>
      </trkpt>
      <trkpt lat="49.07414" lon="6.86003">
        <ele>231.9</ele>
        <time>2014-11-19T10:11:12Z</time>
      </trkpt>
      <trkpt lat="49.07412" lon="6.85994">
        <ele>232.2</ele>
        <time>2014-11-19T10:11:17Z</time>
      </trkpt>
      <trkpt lat="49.0741" lon="6.85984">
        <ele>232.3</ele>
        <time>2014-11-19T10:11:22Z</time>
      </trkpt>
      <trkpt lat="49.07409" lon="6.85975">
        <ele>232.4</ele>
        <time>2014-11-19T10:11:27Z</time>
      </trkpt>
      <trkpt lat="49.07406" lon="6.85965">
        <ele>232.5</ele>
        <time>2014-11-19T10:11:32Z</time>
      </trkpt>
      <trkpt lat="49.07404" lon="6.85956">
        <ele>232.7</ele>
        <time>2014-11-19T10:11:37Z</time>
      </trkpt>
      <trkpt lat="49.07401" lon="6.85948">
        <ele>232.7</ele>
        <time>2014-11-19T10:11:42Z</time>
      </trkpt>
      <trkpt lat="49.07399" lon="6.8594">
        <ele>232.8</ele>
        <time>2014-11-19T10:11:47Z</time>
      </trkpt>
      <trkpt lat="49.07397" lon="6.85931">
        <ele>232.9</ele>
        <time>2014-11-19T10:11:52Z</time>
      </trkpt>
      <trkpt lat="49.07395" lon="6.85923">
        <ele>232.9</ele>
        <time>2014-11-19T10:11:57Z</time>
      </trkpt>
      <trkpt lat="49.07397" lon="6.85916">
        <ele>232.9</ele>
        <time>2014-11-19T10:12:02Z</time>
      </trkpt>
      <trkpt lat="49.07403" lon="6.8591">
        <ele>232.9</ele>
        <time>2014-11-19T10:12:07Z</time>
      </trkpt>
      <trkpt lat="49.07409" lon="6.85905">
        <ele>233.2</ele>
        <time>2014-11-19T10:12:12Z</time>
      </trkpt>
      <trkpt lat="49.07415" lon="6.85899">
        <ele>233.5</ele>
        <time>2014-11-19T10:12:17Z</time>
      </trkpt>
      <trkpt lat="49.0742" lon="6.85893">
        <ele>233.5</ele>
        <time>2014-11-19T10:12:22Z</time>
      </trkpt>
      <trkpt lat="49.07426" lon="6.85886">
        <ele>233.6</ele>
        <time>2014-11-19T10:12:27Z</time>
      </trkpt>
      <trkpt lat="49.07432" lon="6.85881">
        <ele>233.6</ele>
        <time>2014-11-19T10:12:32Z</time>
      </trkpt>
      <trkpt lat="49.07437" lon="6.85874">
        <ele>233.7</ele>
        <time>2014-11-19T10:12:37Z</time>
      </trkpt>
      <trkpt lat="49.07443" lon="6.85869">
        <ele>233.7</ele>
        <time>2014-11-19T10:12:42Z</time>
      </trkpt>
      <trkpt lat="49.07448" lon="6.85863">
        <ele>233.8</ele>
        <time>2014-11-19T10:12:47Z</time>
      </trkpt>
      <trkpt lat="49.07454" lon="6.85857">
        <ele>233.8</ele>
        <time>2014-11-19T10:12:52Z</time>
      </trkpt>
      <trkpt lat="49.07458" lon="6.85851">
        <ele>233.9</ele>
        <time>2014-11-19T10:12:57Z</time>
      </trkpt>
      <trkpt lat="49.07463" lon="6.85844">
        <ele>234</ele>
        <time>2014-11-19T10:13:02Z</time>
      </trkpt>
      <trkpt lat="49.07468" lon="6.85836">
        <ele>234</ele>
        <time>2014-11-19T10:13:07Z</time>
      </trkpt>
      <trkpt lat="49.07472" lon="6.85828">
        <ele>234.1</ele>
        <time>2014-11-19T10:13:12Z</time>
      </trkpt>
      <trkpt lat="49.07477" lon="6.85822">
        <ele>234.5</ele>
        <time>2014-11-19T10:13:17Z</time>
      </trkpt>
      <trkpt lat="49.07483" lon="6.85816">
        <ele>234.6</ele>
        <time>2014-11-19T10:13:22Z</time>
      </trkpt>
      <trkpt lat="49.07487" lon="6.85808">
        <ele>234.7</ele>
        <time>2014-11-19T10:13:27Z</time>
      </trkpt>
      <trkpt lat="49.07491" lon="6.85801">
        <ele>234.7</ele>
        <time>2014-11-19T10:13:32Z</time>
      </trkpt>
      <trkpt lat="49.07497" lon="6.85794">
        <ele>234.8</ele>
        <time>2014-11-19T10:13:37Z</time>
      </trkpt>
      <trkpt lat="49.075" lon="6.85786">
        <ele>234.8</ele>
        <time>2014-11-19T10:13:42Z</time>
      </trkpt>
      <trkpt lat="49.07501" lon="6.85776">
        <ele>234.9</ele>
        <time>2014-11-19T10:13:47Z</time>
      </trkpt>
      <trkpt lat="49.07499" lon="6.85766">
        <ele>235.1</ele>
        <time>2014-11-19T10:13:52Z</time>
      </trkpt>
      <trkpt lat="49.07496" lon="6.85757">
        <ele>235.2</ele>
        <time>2014-11-19T10:13:57Z</time>
      </trkpt>
      <trkpt lat="49.07492" lon="6.85749">
        <ele>235.3</ele>
        <time>2014-11-19T10:14:02Z</time>
      </trkpt>
      <trkpt lat="49.07486" lon="6.85742">
        <ele>235.3</ele>
        <time>2014-11-19T10:14:07Z</time>
      </trkpt>
      <trkpt lat="49.0748" lon="6.85734">
        <ele>235.4</ele>
        <time>2014-11-19T10:14:12Z</time>
      </trkpt>
      <trkpt lat="49.07476" lon="6.85726">
        <ele>235.4</ele>
        <time>2014-11-19T10:14:17Z</time>
      </trkpt>
      <trkpt lat="49.07472" lon="6.85718">
        <ele>235.5</ele>
        <time>2014-11-19T10:14:22Z</time>
      </trkpt>
      <trkpt lat="49.07469" lon="6.8571">
        <ele>235.7</ele>
        <time>2014-11-19T10:14:27Z</time>
      </trkpt>
      <trkpt lat="49.07464" lon="6.85702">
        <ele>235.9</ele>
        <time>2014-11-19T10:14:32Z</time>
      </trkpt>
      <trkpt lat="49.0746" lon="6.85693">
        <ele>236.1</ele>
        <time>2014-11-19T10:14:37Z</time>
      </trkpt>
      <trkpt lat="49.07457" lon="6.85684">
        <ele>236.2</ele>
        <time>2014-11-19T10:14:42Z</time>
      </trkpt>
      <trkpt lat="49.07454" lon="6.85676">
        <ele>236.3</ele>
        <time>2014-11-19T10:14:47Z</time>
      </trkpt>
      <trkpt lat="49.07451" lon="6.85667">
        <ele>236.4</ele>
        <time>2014-11-19T10:14:52Z</time>
      </trkpt>
      <trkpt lat="49.07447" lon="6.85657">
        <ele>236.5</ele>
        <time>2014-11-19T10:14:57Z</time>
      </trkpt>
      <trkpt lat="49.07445" lon="6.85647">
        <ele>236.6</ele>
        <time>2014-11-19T10:15:02Z</time>
      </trkpt>
      <trkpt lat="49.07443" lon="6.85637">
        <ele>236.6</ele>
        <time>2014-11-19T10:15:07Z</time>
      </trkpt>
      <trkpt lat="49.07442" lon="6.85627">
        <ele>236.8</ele>
        <time>2014-11-19T10:15:12Z</time>
      </trkpt>
      <trkpt lat="49.07441" lon="6.85616">
        <ele>237</ele>
        <time>2014-11-19T10:15:17Z</time>
      </trkpt>
      <trkpt lat="49.07439" lon="6.85605">
        <ele>237.1</ele>
        <time>2014-11-19T10:15:22Z</time>
      </trkpt>
      <trkpt lat="49.07437" lon="6.85596">
        <ele>237.5</ele>
        <time>2014-11-19T10:15:27Z</time>
      </trkpt>
      <trkpt lat="49.07438" lon="6.85591">
        <ele>237.9</ele>
        <time>2014-11-19T10:15:32Z</time>
      </trkpt>
      <trkpt lat="49.07435" lon="6.85581">
        <ele>238.1</ele>
        <time>2014-11-19T10:15:37Z</time>
      </trkpt>
      <trkpt lat="49.07434" lon="6.85572">
        <ele>238.2</ele>
        <time>2014-11-19T10:15:42Z</time>
      </trkpt>
      <trkpt lat="49.0743" lon="6.85563">
        <ele>238.3</ele>
        <time>2014-11-19T10:15:47Z</time>
      </trkpt>
      <trkpt lat="49.07428" lon="6.85553">
        <ele>238.5</ele>
        <time>2014-11-19T10:15:52Z</time>
      </trkpt>
      <trkpt lat="49.07426" lon="6.85544">
        <ele>238.8</ele>
        <time>2014-11-19T10:15:57Z</time>
      </trkpt>
      <trkpt lat="49.07425" lon="6.85535">
        <ele>239</ele>
        <time>2014-11-19T10:16:02Z</time>
      </trkpt>
      <trkpt lat="49.07424" lon="6.85526">
        <ele>239.1</ele>
        <time>2014-11-19T10:16:07Z</time>
      </trkpt>
      <trkpt lat="49.07422" lon="6.85517">
        <ele>239.4</ele>
        <time>2014-11-19T10:16:12Z</time>
      </trkpt>
      <trkpt lat="49.07421" lon="6.85509">
        <ele>239.5</ele>
        <time>2014-11-19T10:16:17Z</time>
      </trkpt>
      <trkpt lat="49.07421" lon="6.85499">
        <ele>239.6</ele>
        <time>2014-11-19T10:16:22Z</time>
      </trkpt>
      <trkpt lat="49.07419" lon="6.85489">
        <ele>239.9</ele>
        <time>2014-11-19T10:16:27Z</time>
      </trkpt>
      <trkpt lat="49.07417" lon="6.85479">
        <ele>240.1</ele>
        <time>2014-11-19T10:16:32Z</time>
      </trkpt>
      <trkpt lat="49.07416" lon="6.85469">
        <ele>240.3</ele>
        <time>2014-11-19T10:16:37Z</time>
      </trkpt>
      <trkpt lat="49.0741" lon="6.85464">
        <ele>240.4</ele>
        <time>2014-11-19T10:16:42Z</time>
      </trkpt>
      <trkpt lat="49.07409" lon="6.85455">
        <ele>240.5</ele>
        <time>2014-11-19T10:16:47Z</time>
      </trkpt>
      <trkpt lat="49.07407" lon="6.85445">
        <ele>240.6</ele>
        <time>2014-11-19T10:16:52Z</time>
      </trkpt>
      <trkpt lat="49.07404" lon="6.85434">
        <ele>240.7</ele>
        <time>2014-11-19T10:16:57Z</time>
      </trkpt>
      <trkpt lat="49.074" lon="6.85424">
        <ele>240.9</ele>
        <time>2014-11-19T10:17:02Z</time>
      </trkpt>
      <trkpt lat="49.07397" lon="6.85415">
        <ele>241</ele>
        <time>2014-11-19T10:17:07Z</time>
      </trkpt>
      <trkpt lat="49.07392" lon="6.85405">
        <ele>241.1</ele>
        <time>2014-11-19T10:17:12Z</time>
      </trkpt>
      <trkpt lat="49.07387" lon="6.85395">
        <ele>241.2</ele>
        <time>2014-11-19T10:17:17Z</time>
      </trkpt>
      <trkpt lat="49.07383" lon="6.85385">
        <ele>241.5</ele>
        <time>2014-11-19T10:17:22Z</time>
      </trkpt>
      <trkpt lat="49.0738" lon="6.85376">
        <ele>241.6</ele>
        <time>2014-11-19T10:17:27Z</time>
      </trkpt>
      <trkpt lat="49.07378" lon="6.85367">
        <ele>241.7</ele>
        <time>2014-11-19T10:17:32Z</time>
      </trkpt>
      <trkpt lat="49.07375" lon="6.85357">
        <ele>241.7</ele>
        <time>2014-11-19T10:17:37Z</time>
      </trkpt>
      <trkpt lat="49.0737" lon="6.85349">
        <ele>241.8</ele>
        <time>2014-11-19T10:17:42Z</time>
      </trkpt>
      <trkpt lat="49.07368" lon="6.8534">
        <ele>241.8</ele>
        <time>2014-11-19T10:17:47Z</time>
      </trkpt>
      <trkpt lat="49.07367" lon="6.85332">
        <ele>241.9</ele>
        <time>2014-11-19T10:17:52Z</time>
      </trkpt>
      <trkpt lat="49.07362" lon="6.85323">
        <ele>241.9</ele>
        <time>2014-11-19T10:17:57Z</time>
      </trkpt>
      <trkpt lat="49.0736" lon="6.85316">
        <ele>242.2</ele>
        <time>2014-11-19T10:18:02Z</time>
      </trkpt>
      <trkpt lat="49.07357" lon="6.85306">
        <ele>242.5</ele>
        <time>2014-11-19T10:18:07Z</time>
      </trkpt>
      <trkpt lat="49.07358" lon="6.85297">
        <ele>243</ele>
        <time>2014-11-19T10:18:12Z</time>
      </trkpt>
      <trkpt lat="49.07364" lon="6.85288">
        <ele>243.3</ele>
        <time>2014-11-19T10:18:17Z</time>
      </trkpt>
      <trkpt lat="49.07368" lon="6.8528">
        <ele>243.4</ele>
        <time>2014-11-19T10:18:22Z</time>
      </trkpt>
      <trkpt lat="49.07372" lon="6.85273">
        <ele>242.9</ele>
        <time>2014-11-19T10:18:27Z</time>
      </trkpt>
      <trkpt lat="49.07376" lon="6.85264">
        <ele>245.6</ele>
        <time>2014-11-19T10:18:32Z</time>
      </trkpt>
      <trkpt lat="49.07381" lon="6.85257">
        <ele>247.7</ele>
        <time>2014-11-19T10:18:37Z</time>
      </trkpt>
      <trkpt lat="49.07387" lon="6.85251">
        <ele>244.6</ele>
        <time>2014-11-19T10:18:42Z</time>
      </trkpt>
      <trkpt lat="49.07393" lon="6.85246">
        <ele>243.9</ele>
        <time>2014-11-19T10:18:47Z</time>
      </trkpt>
      <trkpt lat="49.07396" lon="6.85242">
        <ele>242.9</ele>
        <time>2014-11-19T10:18:52Z</time>
      </trkpt>
      <trkpt lat="49.07396" lon="6.85241">
        <ele>241.5</ele>
        <time>2014-11-19T10:18:57Z</time>
      </trkpt>
      <trkpt lat="49.07396" lon="6.85241">
        <ele>240.8</ele>
        <time>2014-11-19T10:19:02Z</time>
      </trkpt>
      <trkpt lat="49.07396" lon="6.85241">
        <ele>240.6</ele>
        <time>2014-11-19T10:19:07Z</time>
      </trkpt>
      <trkpt lat="49.07396" lon="6.85242">
        <ele>240.8</ele>
        <time>2014-11-19T10:19:12Z</time>
      </trkpt>
      <trkpt lat="49.07395" lon="6.85241">
        <ele>241.1</ele>
        <time>2014-11-19T10:19:17Z</time>
      </trkpt>
      <trkpt lat="49.07395" lon="6.85241">
        <ele>241.1</ele>
        <time>2014-11-19T10:19:17Z</time>
      </trkpt>
      <trkpt lat="49.07395" lon="6.8524">
        <ele>241.2</ele>
        <time>2014-11-19T10:19:18Z</time>
      </trkpt>
    </trkseg>
  </trk>
</gpx>